[[{"header":{"parameterUnit":"m.s-1","parameterCategory":1,"la1":30.6,"la2":28.766,"lo1":-90.7593,"lo2":-88.6598,"dx":0.0162,"dy":0.0183,"nx":116,"ny":114,"refTime":"2023-02-13T06:00:00:Z","depth":0,"parameterNumber":2,"parameterNumberName":"U-component_of_WINDS"},"data":[0.0,0.0,0.0,0.0,0.0,0.0,0.0,0.0,0.0,0.0,0.0,0.0,0.0,0.0,0.0,0.0,0.0,0.0,0.0,0.0,0.0,0.0,0.0,0.0,0.0,0.0,0.0,0.0,0.0,0.0,0.0,0.0,0.0,0.0,0.0,0.0,0.0,0.0,0.0,0.0,0.0,0.0,0.0,0.0,0.0,0.0,0.0,0.0,0.0,0.0,0.0,0.0,0.0,0.0,0.0,0.0,0.0,0.0,0.0,0.0,0.0,0.0,0.0,0.0,0.0,0.0,0.0,0.0,0.0,0.0,0.0,0.0,0.0,0.0,0.0,0.0,0.0,0.0,0.0,0.0,0.0,0.0,0.0,0.0,0.0,0.0,0.0,0.0,0.0,0.0,0.0,0.0,0.0,0.0,0.0,0.0,0.0,0.0,0.0,0.0,0.0,0.0,0.0,0.0,0.0,0.0,0.0,0.0,0.0,0.0,0.0,0.0,0.0,0.0,0.0,0.0,0.0,0.0,0.0,0.0,0.0,0.0,0.0,0.0,0.0,0.0,0.0,0.0,0.0,0.0,0.0,0.0,0.0,0.0,0.0,0.0,0.0,0.0,0.0,0.0,0.0,0.0,0.0,0.0,0.0,0.0,0.0,0.0,0.0,0.0,0.0,0.0,0.0,0.0,0.0,0.0,0.0,0.0,0.0,0.0,0.0,0.0,0.0,0.0,0.0,0.0,0.0,0.0,0.0,0.0,0.0,0.0,0.0,0.0,0.0,0.0,0.0,0.0,0.0,0.0,0.0,0.0,0.0,0.0,0.0,0.0,0.0,0.0,0.0,0.0,0.0,0.0,0.0,0.0,0.0,0.0,0.0,0.0,0.0,0.0,0.0,0.0,0.0,0.0,0.0,0.0,0.0,0.0,0.0,0.0,0.0,0.0,0.0,0.0,0.0,0.0,0.0,0.0,0.0,0.0,0.0,0.0,0.0,0.0,0.0,0.0,0.0,0.0,0.0,0.0,0.0,0.0,0.0,0.0,0.0,0.0,0.0,0.0,0.0,0.0,0.0,0.0,0.0,0.0,0.0,0.0,0.0,0.0,0.0,0.0,0.0,0.0,0.0,0.0,0.0,0.0,0.0,0.0,0.0,0.0,0.0,0.0,0.0,0.0,0.0,0.0,0.0,0.0,0.0,0.0,0.0,0.0,0.0,0.0,0.0,0.0,0.0,0.0,0.0,0.0,0.0,0.0,0.0,0.0,0.0,0.0,0.0,0.0,0.0,0.0,0.0,0.0,0.0,0.0,0.0,0.0,0.0,0.0,0.0,0.0,0.0,0.0,0.0,0.0,0.0,0.0,0.0,0.0,0.0,0.0,0.0,0.0,0.0,0.0,0.0,0.0,0.0,0.0,0.0,0.0,0.0,0.0,0.0,0.0,0.0,0.0,0.0,0.0,0.0,0.0,0.0,0.0,0.0,0.0,0.0,0.0,0.0,0.0,0.0,0.0,0.0,0.0,0.0,0.0,0.0,0.0,0.0,0.0,0.0,0.0,0.0,0.0,0.0,0.0,0.0,0.0,0.0,0.0,0.0,0.0,0.0,0.0,0.0,0.0,0.0,0.0,0.0,0.0,0.0,0.0,0.0,0.0,0.0,0.0,0.0,0.0,0.0,0.0,0.0,0.0,0.0,0.0,0.0,0.0,0.0,0.0,0.0,0.0,0.0,0.0,0.0,0.0,0.0,0.0,0.0,0.0,0.0,0.0,0.0,0.0,0.0,0.0,0.0,0.0,0.0,0.0,0.0,0.0,0.0,0.0,0.0,0.0,0.0,0.0,0.0,0.0,0.0,0.0,0.0,0.0,0.0,0.0,0.0,0.0,0.0,0.0,0.0,0.0,0.0,0.0,0.0,0.0,0.0,0.0,0.0,0.0,0.0,0.0,0.0,0.0,0.0,0.0,0.0,0.0,0.0,0.0,0.0,0.0,0.0,0.0,0.0,0.0,0.0,0.0,0.0,0.0,0.0,0.0,0.0,0.0,0.0,0.0,0.0,0.0,0.0,0.0,0.0,0.0,0.0,0.0,0.0,0.0,0.0,0.0,0.0,0.0,0.0,0.0,0.0,0.0,0.0,0.0,0.0,0.0,0.0,0.0,0.0,0.0,0.0,0.0,0.0,0.0,0.0,0.0,0.0,0.0,0.0,0.0,0.0,0.0,0.0,0.0,0.0,0.0,0.0,0.0,0.0,0.0,0.0,0.0,0.0,0.0,0.0,0.0,0.0,0.0,0.0,0.0,0.0,0.0,0.0,0.0,0.0,0.0,0.0,0.0,0.0,0.0,0.0,0.0,0.0,0.0,0.0,0.0,0.0,0.0,0.0,0.0,0.0,0.0,0.0,0.0,0.0,0.0,0.0,0.0,0.0,0.0,0.0,0.0,0.0,0.0,0.0,0.0,0.0,0.0,0.0,0.0,0.0,0.0,0.0,0.0,0.0,0.0,0.0,0.0,0.0,0.0,0.0,0.0,0.0,0.0,0.0,0.0,0.0,0.0,0.0,0.0,0.0,0.0,0.0,0.0,0.0,0.0,0.0,0.0,0.0,0.0,0.0,0.0,0.0,0.0,0.0,0.0,0.0,0.0,0.0,0.0,0.0,0.0,0.0,0.0,0.0,0.0,0.0,0.0,0.0,0.0,0.0,0.0,0.0,0.0,0.0,0.0,0.0,0.0,0.0,0.0,0.0,0.0,0.0,0.0,0.0,0.0,0.0,0.0,0.0,0.0,0.0,0.0,0.0,0.0,0.0,0.0,0.0,0.0,0.0,0.0,0.0,0.0,0.0,0.0,0.0,0.0,0.0,0.0,0.0,0.0,0.0,0.0,0.0,0.0,0.0,0.0,0.0,0.0,0.0,0.0,0.0,0.0,0.0,0.0,0.0,0.0,0.0,0.0,0.0,0.0,0.0,0.0,0.0,0.0,0.0,0.0,0.0,0.0,0.0,0.0,0.0,0.0,0.0,0.0,0.0,0.0,0.0,0.0,0.0,0.0,0.0,0.0,0.0,0.0,0.0,0.0,0.0,0.0,0.0,0.0,0.0,0.0,0.0,0.0,0.0,0.0,0.0,0.0,0.0,0.0,0.0,0.0,0.0,0.0,0.0,0.0,0.0,0.0,0.0,0.0,0.0,0.0,0.0,0.0,0.0,0.0,0.0,0.0,0.0,0.0,0.0,0.0,0.0,0.0,0.0,0.0,0.0,0.0,0.0,0.0,0.0,0.0,0.0,0.0,0.0,0.0,0.0,0.0,0.0,0.0,0.0,0.0,0.0,0.0,0.0,0.0,0.0,0.0,0.0,0.0,0.0,0.0,0.0,0.0,0.0,0.0,0.0,0.0,0.0,0.0,0.0,0.0,0.0,0.0,0.0,0.0,0.0,0.0,0.0,0.0,0.0,0.0,0.0,0.0,0.0,0.0,0.0,0.0,0.0,0.0,0.0,0.0,0.0,0.0,0.0,0.0,0.0,0.0,0.0,0.0,0.0,0.0,0.0,0.0,0.0,0.0,0.0,0.0,0.0,0.0,0.0,0.0,0.0,0.0,0.0,0.0,0.0,0.0,0.0,0.0,0.0,0.0,0.0,0.0,0.0,0.0,0.0,0.0,0.0,0.0,0.0,0.0,0.0,0.0,0.0,0.0,0.0,0.0,0.0,0.0,0.0,0.0,0.0,0.0,0.0,0.0,0.0,0.0,0.0,0.0,0.0,0.0,0.0,0.0,0.0,0.0,0.0,0.0,0.0,0.0,0.0,0.0,0.0,0.0,0.0,0.0,0.0,0.0,0.0,0.0,0.0,0.0,0.0,0.0,0.0,0.0,0.0,0.0,0.0,0.0,0.0,0.0,0.0,0.0,0.0,0.0,0.0,0.0,0.0,0.0,0.0,0.0,0.0,0.0,0.0,0.0,0.0,0.0,0.0,0.0,0.0,0.0,0.0,0.0,0.0,0.0,0.0,0.0,0.0,0.0,0.0,0.0,0.0,0.0,0.0,0.0,0.0,0.0,0.0,0.0,0.0,0.0,0.0,0.0,0.0,0.0,0.0,0.0,0.0,0.0,0.0,0.0,0.0,0.0,0.0,0.0,0.0,0.0,0.0,0.0,0.0,0.0,0.0,0.0,0.0,0.0,0.0,0.0,0.0,0.0,0.0,0.0,0.0,0.0,0.0,0.0,0.0,0.0,0.0,0.0,0.0,0.0,0.0,0.0,0.0,0.0,0.0,0.0,0.0,0.0,0.0,0.0,0.0,0.0,0.0,0.0,0.0,0.0,0.0,0.0,0.0,0.0,0.0,0.0,0.0,0.0,0.0,0.0,0.0,0.0,0.0,0.0,0.0,0.0,0.0,0.0,0.0,0.0,0.0,0.0,0.0,0.0,0.0,0.0,0.0,0.0,0.0,0.0,0.0,0.0,0.0,0.0,0.0,0.0,0.0,0.0,0.0,0.0,0.0,0.0,0.0,0.0,0.0,0.0,0.0,0.0,0.0,0.0,0.0,0.0,0.0,0.0,0.0,0.0,0.0,0.0,0.0,0.0,0.0,0.0,0.0,0.0,0.0,0.0,0.0,0.0,0.0,0.0,0.0,0.0,0.0,0.0,0.0,0.0,0.0,0.0,0.0,0.0,0.0,0.0,0.0,0.0,0.0,0.0,0.0,0.0,0.0,0.0,0.0,0.0,0.0,0.0,0.0,0.0,0.0,0.0,0.0,0.0,0.0,0.0,0.0,0.0,0.0,0.0,0.0,0.0,0.0,0.0,0.0,0.0,0.0,0.0,0.0,0.0,0.0,0.0,0.0,0.0,0.0,0.0,0.0,0.0,0.0,0.0,0.0,0.0,0.0,0.0,0.0,0.0,0.0,0.0,0.0,0.0,0.0,0.0,0.0,0.0,0.0,0.0,0.0,0.0,0.0,0.0,0.0,0.0,0.0,0.0,0.0,0.0,0.0,0.0,0.0,0.0,0.0,0.0,0.0,0.0,0.0,0.0,0.0,0.0,0.0,0.0,0.0,0.0,0.0,0.0,0.0,0.0,0.0,0.0,0.0,0.0,0.0,0.0,0.0,0.0,0.0,0.0,0.0,0.0,0.0,0.0,0.0,0.0,0.0,0.0,0.0,0.0,0.0,0.0,0.0,0.0,0.0,0.0,0.0,0.0,0.0,0.0,0.0,0.0,0.0,0.0,0.0,0.0,0.0,0.0,0.0,0.0,0.0,0.0,0.0,0.0,0.0,0.0,0.0,0.0,0.0,0.0,0.0,0.0,0.0,0.0,0.0,0.0,0.0,0.0,0.0,0.0,0.0,0.0,0.0,0.0,0.0,0.0,0.0,0.0,0.0,0.0,0.0,0.0,0.0,0.0,0.0,0.0,0.0,0.0,0.0,0.0,0.0,0.0,0.0,0.0,0.0,0.0,0.0,0.0,0.0,0.0,0.0,0.0,0.0,0.0,0.0,0.0,0.0,0.0,0.0,0.0,0.0,0.0,0.0,0.0,0.0,0.0,0.0,0.0,0.0,0.0,0.0,0.0,0.0,0.0,0.0,0.0,0.0,0.0,0.0,0.0,0.0,0.0,0.0,0.0,0.0,0.0,0.0,0.0,0.0,0.0,0.0,0.0,0.0,0.0,0.0,0.0,0.0,0.0,0.0,0.0,0.0,0.0,0.0,0.0,0.0,0.0,0.0,0.0,0.0,0.0,0.0,0.0,0.0,0.0,0.0,0.0,0.0,0.0,0.0,0.0,0.0,0.0,0.0,0.0,0.0,0.0,0.0,0.0,0.0,0.0,0.0,0.0,0.0,0.0,0.0,0.0,0.0,0.0,0.0,0.0,0.0,0.0,0.0,0.0,0.0,0.0,0.0,0.0,0.0,0.0,0.0,0.0,0.0,0.0,0.0,0.0,0.0,0.0,0.0,0.0,0.0,0.0,0.0,0.0,0.0,0.0,0.0,0.0,0.0,0.0,0.0,0.0,0.0,0.0,0.0,0.0,0.0,0.0,0.0,0.0,0.0,0.0,0.0,0.0,0.0,0.0,0.0,0.0,0.0,0.0,0.0,0.0,-2.3591,0.0,0.0,0.0,0.0,0.0,0.0,0.0,0.0,0.0,0.0,0.0,0.0,0.0,0.0,0.0,0.0,0.0,0.0,0.0,0.0,0.0,0.0,0.0,0.0,0.0,0.0,0.0,0.0,0.0,0.0,0.0,0.0,0.0,0.0,0.0,0.0,0.0,0.0,0.0,0.0,0.0,0.0,0.0,0.0,0.0,0.0,0.0,0.0,0.0,0.0,0.0,0.0,0.0,0.0,0.0,0.0,0.0,0.0,0.0,0.0,0.0,0.0,0.0,0.0,0.0,0.0,0.0,0.0,0.0,0.0,0.0,0.0,0.0,0.0,0.0,0.0,0.0,0.0,0.0,0.0,0.0,0.0,0.0,0.0,0.0,0.0,0.0,0.0,0.0,0.0,0.0,0.0,0.0,0.0,0.0,0.0,0.0,0.0,0.0,0.0,0.0,0.0,0.0,0.0,0.0,0.0,0.0,0.0,0.0,0.0,0.0,0.0,0.0,0.0,0.0,0.0,-2.367,0.0,0.0,0.0,0.0,0.0,0.0,0.0,0.0,0.0,0.0,0.0,0.0,0.0,0.0,0.0,0.0,0.0,0.0,0.0,0.0,0.0,0.0,0.0,0.0,0.0,0.0,0.0,0.0,0.0,0.0,0.0,0.0,0.0,0.0,0.0,0.0,0.0,0.0,0.0,0.0,0.0,0.0,0.0,0.0,0.0,0.0,0.0,0.0,0.0,0.0,0.0,0.0,0.0,0.0,0.0,0.0,0.0,0.0,0.0,0.0,0.0,0.0,0.0,0.0,0.0,0.0,0.0,0.0,0.0,0.0,0.0,0.0,0.0,0.0,0.0,0.0,0.0,0.0,0.0,0.0,0.0,0.0,0.0,0.0,0.0,0.0,0.0,0.0,0.0,0.0,0.0,0.0,0.0,0.0,0.0,0.0,0.0,0.0,0.0,0.0,0.0,0.0,0.0,0.0,0.0,0.0,0.0,0.0,-3.1329,-3.1683,-3.208,-3.208,-3.16,-3.0614,-2.7678,-2.5502,-2.4015,-2.4636,0.0,0.0,0.0,0.0,0.0,0.0,0.0,0.0,0.0,0.0,0.0,0.0,0.0,0.0,0.0,0.0,0.0,0.0,0.0,0.0,0.0,0.0,0.0,0.0,0.0,0.0,0.0,0.0,0.0,0.0,0.0,0.0,0.0,0.0,0.0,0.0,0.0,0.0,0.0,0.0,0.0,0.0,0.0,0.0,0.0,0.0,0.0,0.0,0.0,0.0,0.0,0.0,0.0,0.0,0.0,0.0,0.0,0.0,0.0,0.0,0.0,0.0,0.0,0.0,0.0,0.0,0.0,0.0,0.0,0.0,0.0,0.0,0.0,0.0,0.0,0.0,0.0,0.0,0.0,0.0,0.0,0.0,0.0,0.0,0.0,0.0,-2.4377,-2.5063,0.0,0.0,0.0,0.0,0.0,0.0,0.0,0.0,0.0,0.0,0.0,0.0,0.0,-3.076,-3.076,-3.3697,-3.4908,-3.4367,-3.5844,-3.6054,-3.511,-3.511,-3.449,-3.3332,-3.2477,0.0,-2.6167,-2.5028,0.0,0.0,0.0,0.0,0.0,0.0,0.0,0.0,0.0,0.0,0.0,0.0,0.0,0.0,0.0,0.0,0.0,0.0,0.0,0.0,0.0,0.0,0.0,0.0,0.0,0.0,0.0,0.0,0.0,0.0,0.0,0.0,0.0,0.0,0.0,0.0,0.0,0.0,0.0,0.0,0.0,0.0,0.0,0.0,0.0,0.0,0.0,0.0,0.0,0.0,0.0,0.0,0.0,0.0,0.0,0.0,0.0,0.0,0.0,0.0,0.0,0.0,0.0,0.0,0.0,0.0,0.0,0.0,0.0,0.0,0.0,0.0,0.0,0.0,0.0,0.0,0.0,0.0,0.0,0.0,0.0,0.0,0.0,0.0,0.0,-2.4996,-2.5447,-2.5322,-2.6159,-2.6755,0.0,0.0,0.0,0.0,0.0,0.0,0.0,0.0,0.0,-3.0485,-3.2412,-3.366,-3.4137,-3.6028,-3.7239,-3.7771,-3.8487,-3.8647,-3.8269,-3.7817,-3.7005,-3.5934,-3.4826,-3.29,-3.0328,-2.8433,-2.6877,-2.5693,0.0,0.0,0.0,0.0,-2.4644,-2.4582,0.0,0.0,0.0,0.0,0.0,0.0,0.0,0.0,0.0,0.0,0.0,0.0,0.0,0.0,0.0,0.0,0.0,0.0,0.0,0.0,0.0,0.0,0.0,0.0,0.0,0.0,0.0,0.0,0.0,0.0,0.0,0.0,0.0,0.0,0.0,0.0,0.0,0.0,0.0,0.0,0.0,0.0,0.0,0.0,0.0,0.0,0.0,0.0,0.0,0.0,0.0,0.0,0.0,0.0,0.0,0.0,0.0,0.0,0.0,0.0,0.0,0.0,0.0,0.0,0.0,0.0,0.0,0.0,0.0,0.0,0.0,0.0,0.0,0.0,0.0,0.0,0.0,-2.5944,-2.6621,-2.5736,-2.7544,-2.8698,0.0,0.0,0.0,0.0,0.0,0.0,-3.0828,-3.2269,-3.3331,-3.3844,-3.5422,-3.6578,-3.7202,-3.8212,-3.9313,-4.0506,-4.0708,-4.0928,-4.1089,-4.049,-3.9607,-3.8435,-3.7013,-3.5521,-3.3853,-3.1206,-2.911,-2.752,-2.7148,-2.6776,-2.6437,-2.6251,-2.6167,-2.6101,0.0,0.0,0.0,0.0,0.0,0.0,0.0,0.0,0.0,0.0,0.0,0.0,0.0,0.0,0.0,0.0,0.0,0.0,0.0,0.0,0.0,0.0,0.0,0.0,0.0,0.0,0.0,0.0,0.0,0.0,0.0,0.0,0.0,0.0,0.0,0.0,0.0,0.0,0.0,0.0,0.0,0.0,0.0,0.0,0.0,0.0,0.0,0.0,0.0,0.0,0.0,0.0,0.0,0.0,0.0,0.0,0.0,0.0,0.0,0.0,0.0,0.0,0.0,0.0,0.0,0.0,0.0,0.0,0.0,0.0,0.0,0.0,0.0,0.0,0.0,0.0,0.0,0.0,0.0,-2.664,-2.9486,0.0,0.0,0.0,0.0,-3.1506,-3.3493,-3.4601,-3.4352,-3.6456,-3.7533,-3.7268,-3.8799,-3.9662,-3.9717,-4.1277,-4.2103,-4.2194,-4.2947,-4.3332,-4.3334,-4.3279,-4.2402,-4.0888,-3.9835,-3.8061,-3.5558,-3.172,-3.004,-2.9786,-2.8332,-2.8197,-2.8721,-2.7977,-2.7671,-2.7448,0.0,0.0,0.0,0.0,0.0,0.0,0.0,0.0,0.0,0.0,0.0,0.0,0.0,0.0,0.0,0.0,0.0,0.0,0.0,0.0,0.0,0.0,0.0,0.0,0.0,0.0,0.0,0.0,0.0,0.0,0.0,0.0,0.0,0.0,0.0,0.0,0.0,0.0,0.0,0.0,0.0,0.0,0.0,0.0,0.0,0.0,0.0,0.0,0.0,0.0,0.0,0.0,0.0,0.0,0.0,0.0,0.0,0.0,0.0,0.0,0.0,0.0,0.0,0.0,0.0,0.0,0.0,0.0,0.0,0.0,0.0,0.0,0.0,0.0,0.0,0.0,0.0,0.0,0.0,-3.1333,-3.3064,0.0,-3.4776,-3.441,-3.4603,-3.568,-3.6361,-3.6996,-3.7706,-3.8871,-3.9871,-4.0593,-4.1148,-4.168,-4.2194,-4.2782,-4.3057,-4.3075,-4.3351,-4.3222,-4.2708,-4.2194,-4.1181,-3.9763,-3.856,-3.7373,-3.6085,-3.3857,-3.2662,-3.2087,-3.0581,-3.0159,-3.0311,-2.9567,-2.9296,-2.9164,0.0,0.0,0.0,0.0,0.0,0.0,0.0,0.0,0.0,0.0,0.0,0.0,0.0,0.0,0.0,0.0,0.0,0.0,0.0,0.0,0.0,0.0,0.0,0.0,0.0,0.0,0.0,0.0,0.0,0.0,0.0,0.0,0.0,0.0,0.0,0.0,0.0,0.0,0.0,0.0,0.0,0.0,-2.0794,0.0,0.0,0.0,0.0,0.0,0.0,0.0,0.0,0.0,0.0,0.0,0.0,0.0,0.0,0.0,0.0,0.0,0.0,0.0,0.0,0.0,0.0,0.0,0.0,0.0,0.0,0.0,0.0,0.0,0.0,0.0,0.0,0.0,0.0,0.0,-3.3203,-3.4847,-3.6565,-3.7853,-3.8392,-3.795,-3.8104,-3.92,-3.9646,-4.0119,-4.0745,-4.1436,-4.2087,-4.2705,-4.269,-4.2947,-4.3479,-4.3497,-4.3497,-4.3497,-4.3497,-4.3222,-4.269,-4.2158,-4.111,-3.9692,-3.8524,-3.7514,-3.6568,-3.5352,-3.459,-3.4015,-3.2527,-3.1935,-3.1884,-3.1393,-3.1055,-3.0695,0.0,0.0,0.0,0.0,0.0,0.0,0.0,0.0,0.0,0.0,0.0,0.0,0.0,0.0,0.0,0.0,0.0,0.0,0.0,0.0,0.0,0.0,0.0,0.0,0.0,0.0,0.0,0.0,0.0,0.0,0.0,0.0,0.0,0.0,0.0,0.0,0.0,0.0,0.0,0.0,0.0,0.0,-2.1821,0.0,0.0,0.0,0.0,0.0,0.0,0.0,0.0,0.0,0.0,0.0,0.0,0.0,0.0,0.0,0.0,0.0,0.0,0.0,0.0,0.0,0.0,0.0,0.0,0.0,0.0,0.0,0.0,0.0,0.0,0.0,0.0,0.0,-3.0782,-3.4341,-3.6969,-3.6906,-3.9815,-4.1219,-3.9642,-4.095,-4.1893,-4.1931,-4.3412,-4.4039,-4.3379,-4.4171,-4.428,-4.3548,-4.3513,-4.3513,-4.3497,-4.3497,-4.3497,-4.3497,-4.3497,-4.3479,-4.3442,-4.3424,-4.2561,-4.1027,-3.9962,-3.8667,-3.7132,-3.6054,-3.5622,-3.547,-3.4015,-3.344,-3.344,-3.3406,-3.2933,-3.1991,0.0,0.0,0.0,0.0,0.0,0.0,0.0,0.0,0.0,0.0,0.0,0.0,0.0,0.0,0.0,0.0,0.0,0.0,0.0,0.0,0.0,0.0,0.0,0.0,0.0,0.0,0.0,0.0,0.0,0.0,0.0,0.0,0.0,0.0,0.0,0.0,0.0,0.0,0.0,0.0,0.0,0.0,-2.419,0.0,0.0,0.0,0.0,0.0,0.0,0.0,0.0,0.0,0.0,0.0,0.0,0.0,0.0,0.0,0.0,0.0,0.0,0.0,0.0,0.0,0.0,0.0,0.0,0.0,0.0,0.0,0.0,0.0,0.0,0.0,0.0,-3.4515,-3.4328,-3.6842,-3.9359,-4.1135,-4.2162,-4.3047,-4.3778,-4.3701,-4.3874,-4.4509,-4.497,-4.5074,-4.4623,-4.4832,-4.4612,-4.3881,-4.3849,-4.3758,-4.3479,-4.3497,-4.3497,-4.3497,-4.3497,-4.3185,-4.2598,-4.2029,-4.1534,-4.0972,-3.8815,-3.7937,-3.7948,-3.6277,-3.5622,-3.552,-3.4556,-3.4201,-3.4134,-3.3609,-3.2647,-3.1437,0.0,0.0,0.0,0.0,0.0,0.0,0.0,0.0,0.0,0.0,0.0,0.0,0.0,0.0,0.0,0.0,0.0,0.0,0.0,0.0,0.0,0.0,0.0,0.0,0.0,0.0,0.0,0.0,0.0,0.0,0.0,0.0,0.0,0.0,0.0,0.0,0.0,0.0,0.0,0.0,0.0,0.0,-2.7181,-2.5089,-2.5217,-2.6395,-2.5503,-2.6562,-2.8237,-2.7231,0.0,0.0,0.0,0.0,0.0,0.0,0.0,0.0,0.0,0.0,0.0,0.0,0.0,0.0,0.0,0.0,0.0,0.0,0.0,0.0,0.0,0.0,0.0,0.0,-3.613,-3.8291,-3.8848,-4.0169,-4.185,-4.3888,-4.4143,-4.4528,-4.5509,-4.5143,-4.5047,-4.5547,-4.5586,-4.5592,-4.5595,-4.5156,-4.4859,-4.4749,-4.4141,-4.3772,-4.3693,-4.3563,-4.3497,-4.3497,-4.3497,-4.3259,-4.2782,-4.1974,-4.1607,-4.1449,-3.9154,-3.8274,-3.8302,-3.7065,-3.6383,0.0,0.0,0.0,0.0,0.0,-3.3198,-3.2109,0.0,0.0,0.0,0.0,0.0,0.0,0.0,0.0,0.0,0.0,0.0,0.0,0.0,0.0,0.0,0.0,0.0,0.0,0.0,0.0,0.0,0.0,0.0,0.0,0.0,0.0,0.0,0.0,0.0,0.0,0.0,0.0,0.0,0.0,0.0,0.0,0.0,0.0,0.0,0.0,0.0,0.0,-3.0448,-2.8925,-2.9659,-3.1237,-2.8998,-2.9392,-3.0754,-2.9142,0.0,0.0,0.0,0.0,0.0,0.0,0.0,0.0,0.0,0.0,0.0,0.0,0.0,0.0,0.0,0.0,0.0,0.0,0.0,0.0,0.0,0.0,0.0,0.0,-3.975,-4.19,-4.3583,-4.383,-4.4242,-4.5464,-4.5586,-4.5624,-4.574,-4.5663,-4.5682,-4.5855,-4.5797,-4.5975,-4.6478,0.0,0.0,0.0,0.0,-4.3818,-4.3924,-4.3646,-4.3497,-4.3497,-4.3497,-4.3497,-4.3461,-4.2671,-4.2304,-4.2197,-4.0229,-3.9031,-3.8496,-3.7974,-3.7381,-3.6705,-3.6011,-3.569,-3.552,-3.4776,-3.4147,-3.3499,0.0,0.0,0.0,0.0,0.0,0.0,0.0,0.0,0.0,0.0,0.0,0.0,0.0,0.0,0.0,0.0,0.0,0.0,0.0,0.0,0.0,0.0,0.0,0.0,0.0,0.0,0.0,0.0,0.0,0.0,0.0,0.0,0.0,0.0,0.0,0.0,0.0,0.0,0.0,0.0,0.0,0.0,-3.2999,-3.2045,-3.1971,-3.2228,-3.1091,-3.218,-3.3879,-3.2286,-3.276,-3.3622,-3.1328,0.0,0.0,0.0,0.0,0.0,0.0,0.0,0.0,0.0,0.0,0.0,0.0,0.0,0.0,0.0,0.0,0.0,0.0,0.0,0.0,-4.0,-4.1939,-4.3894,-4.616,-4.6372,-4.6123,-4.5659,-4.5586,-4.5874,-4.6586,-4.6009,-4.6163,-4.7509,-4.7028,-4.6972,-4.7703,-4.7549,-4.6918,-4.5814,-4.5509,-4.4789,-4.3597,-4.3548,-4.3497,-4.3497,0.0,0.0,-4.3461,-4.2671,-4.2304,-4.2179,-3.9693,-3.8876,-3.9164,-3.7659,-3.6907,-3.6755,-3.662,-3.618,-3.552,-3.4776,-3.4445,-3.4046,0.0,0.0,0.0,0.0,0.0,0.0,0.0,0.0,0.0,0.0,0.0,0.0,0.0,0.0,0.0,0.0,0.0,0.0,0.0,0.0,0.0,0.0,0.0,0.0,0.0,0.0,0.0,0.0,0.0,0.0,0.0,0.0,0.0,0.0,0.0,0.0,0.0,0.0,0.0,0.0,0.0,0.0,-3.6119,-3.4908,-3.4706,-3.4945,-3.4137,-3.4633,-3.5459,-3.4202,-3.4231,-3.4445,-3.2711,-3.1203,-2.9755,0.0,0.0,0.0,0.0,0.0,0.0,0.0,0.0,0.0,0.0,0.0,0.0,0.0,0.0,-3.432,0.0,0.0,-4.0546,-4.2666,-4.4339,-4.5796,-4.6937,-4.7376,-4.7381,-4.6912,-4.6855,-4.7028,-4.7471,-4.7105,-4.7201,-4.8048,-4.774,-4.7875,-4.8702,-4.7618,-4.6881,-4.6695,-4.5378,-4.4352,-4.3758,-4.3597,-4.3497,-4.3497,-4.3497,-4.3497,-4.3461,-4.2671,-4.2525,-4.2784,-4.0497,-3.9722,-3.9999,-3.8534,-3.7889,-3.7889,-3.7889,-3.6958,-3.5571,-3.5199,-3.4852,-3.4343,0.0,0.0,0.0,0.0,0.0,0.0,0.0,0.0,0.0,0.0,0.0,0.0,0.0,0.0,0.0,0.0,0.0,0.0,0.0,0.0,0.0,0.0,0.0,0.0,0.0,0.0,0.0,0.0,0.0,0.0,0.0,0.0,0.0,0.0,0.0,0.0,0.0,0.0,0.0,0.0,0.0,0.0,-3.8781,-3.7312,-3.7055,-3.7397,-3.6578,-3.6083,-3.5716,-3.5018,-3.4481,-3.3969,-3.3114,-3.2441,-3.1455,-2.8975,-2.8393,0.0,0.0,0.0,0.0,0.0,0.0,0.0,0.0,0.0,-3.2146,-3.402,-3.5807,-3.7712,-3.9956,-4.1758,-4.3376,-4.4829,-4.6118,-4.7018,-4.7223,-4.761,-4.799,-4.8317,-4.8202,-4.8163,-4.8336,-4.8202,-4.824,-4.8586,-4.8452,-4.8625,-4.9278,-4.7467,-4.6639,-4.7148,-4.499,-4.3859,-4.3912,-4.3612,-4.3497,-4.3497,-4.3497,-4.3497,-4.3461,-4.2818,-4.28,-4.3188,-4.1389,-4.0577,-4.0475,-3.9555,-3.9123,-3.8988,-3.8988,-3.7787,-3.6062,-3.6062,-3.5496,-3.4693,0.0,0.0,0.0,0.0,0.0,0.0,0.0,0.0,0.0,0.0,0.0,0.0,0.0,0.0,0.0,0.0,0.0,0.0,0.0,0.0,0.0,0.0,0.0,0.0,0.0,0.0,0.0,0.0,0.0,0.0,0.0,0.0,0.0,0.0,0.0,0.0,0.0,0.0,0.0,0.0,0.0,0.0,-3.9662,-3.8781,-3.8028,-3.7397,-3.6578,-3.533,-3.4064,-3.3972,-3.3889,-3.3823,-3.3697,-3.3136,-3.2162,-3.043,0.0,-2.6673,-2.5801,-2.6042,-2.7045,-2.9172,-2.9979,-3.1429,0.0,0.0,-3.6517,-3.8324,-4.0148,-4.1533,-4.1947,-4.3493,-4.4979,-4.5824,-4.6008,-4.6533,-4.7959,-4.7513,-4.7586,-4.9086,-4.8567,-4.8394,-4.9183,-4.8548,-4.874,-5.0279,-4.9683,-4.9162,-4.8965,-4.8705,-4.7631,-4.5627,-4.527,-4.461,-4.3582,-4.3513,-4.3497,-4.3497,-4.3497,-4.3497,-4.3497,-4.3406,-4.302,-4.2347,-4.1157,-4.0323,-3.9891,-3.9944,-3.958,-3.8988,-3.8988,-3.8447,-3.7652,-3.7652,-3.6781,-3.5448,0.0,0.0,0.0,0.0,0.0,0.0,0.0,0.0,0.0,0.0,0.0,0.0,0.0,0.0,0.0,0.0,0.0,0.0,0.0,0.0,0.0,0.0,0.0,0.0,0.0,0.0,0.0,0.0,0.0,0.0,0.0,0.0,0.0,0.0,0.0,0.0,0.0,0.0,0.0,0.0,0.0,0.0,-3.9056,-3.779,-3.6193,-3.4679,-3.4924,-3.3884,0.0,0.0,-3.2292,-3.1813,-3.2404,-3.1943,-3.0889,-2.9274,-2.876,0.0,-2.8727,-2.8917,-2.9531,0.0,-3.3294,-3.5391,-3.7507,-3.8469,-3.9455,-4.1335,-4.273,-4.3819,-4.4501,-4.5253,-4.5815,0.0,-4.6352,-4.6851,-4.7407,-4.7544,-4.7855,-4.8567,-4.8317,-4.8432,-4.9317,-4.9067,-4.9086,-4.9614,-4.9765,-4.9228,-4.7928,-4.7643,-4.6815,-4.5345,-4.4628,-4.3996,-4.3497,-4.3497,-4.3497,-4.3497,-4.3497,-4.3497,-4.3497,-4.3497,-4.3156,-4.2486,-4.168,-4.0972,-4.0424,-4.0199,-3.9901,-3.9631,-3.9631,-3.9445,-3.9073,-3.8227,-3.6721,-3.5072,0.0,0.0,0.0,0.0,0.0,0.0,0.0,0.0,0.0,0.0,0.0,0.0,0.0,0.0,0.0,0.0,0.0,0.0,0.0,0.0,0.0,0.0,0.0,0.0,0.0,0.0,0.0,0.0,0.0,0.0,0.0,0.0,0.0,0.0,0.0,0.0,0.0,0.0,0.0,0.0,0.0,0.0,-3.8175,-3.6303,-3.4082,-3.2034,-3.2815,-3.1853,0.0,0.0,-3.0064,-2.9466,-3.0398,-3.0323,-2.9641,-2.8466,-2.8676,-2.9459,-3.0283,0.0,0.0,-3.3705,-3.6459,-3.8815,-3.9296,-4.0534,-4.2066,-4.3752,-4.4433,-4.498,-4.5799,-4.5937,-4.585,-4.5601,-4.6288,-4.6849,-4.6889,-4.7201,-4.7509,-4.774,-4.7567,-4.7722,-4.8471,-4.8759,-4.8771,-4.8438,-4.8947,-4.8491,-4.6685,-4.6338,-4.5749,-4.4822,-4.3959,-4.3497,-4.3497,-4.3497,-4.3497,-4.3497,-4.3497,-4.3497,-4.3497,-4.3497,-4.3214,-4.2673,-4.208,-4.1446,-4.0856,-4.0336,-4.007,-4.007,-4.007,-4.007,-3.9952,-3.8903,-3.7152,-3.5284,0.0,0.0,0.0,0.0,0.0,0.0,0.0,0.0,0.0,0.0,0.0,0.0,0.0,0.0,0.0,0.0,0.0,0.0,0.0,0.0,0.0,0.0,0.0,0.0,0.0,0.0,0.0,0.0,0.0,0.0,0.0,0.0,0.0,0.0,0.0,0.0,0.0,0.0,0.0,0.0,0.0,0.0,-3.7257,-3.4798,-3.2375,-3.0289,-3.0524,0.0,0.0,0.0,-2.7191,-2.7139,-2.7958,-2.859,0.0,-2.8975,-2.8033,0.0,0.0,0.0,-3.2382,-3.6523,-3.901,-4.0873,-4.2566,-4.3699,-4.4645,-4.5619,-4.5274,-4.4852,-4.5018,-4.5039,-4.4972,-4.4764,-4.5412,-4.615,-4.6812,-4.6182,-4.599,-4.6836,-4.6182,-4.586,0.0,-4.7163,-4.7524,-4.7197,-4.7189,-4.6647,-4.5413,-4.5345,-4.4772,-4.3569,-4.3532,-4.3497,-4.3497,-4.3497,-4.3497,-4.3497,-4.3497,-4.3497,-4.3497,-4.3497,-4.3214,-4.2673,-4.208,-4.1446,-4.0856,-4.0336,-4.007,-4.007,-4.007,-4.007,-4.007,-4.002,-3.8626,-3.6726,0.0,0.0,0.0,0.0,0.0,0.0,0.0,0.0,0.0,0.0,0.0,0.0,0.0,0.0,0.0,0.0,0.0,0.0,0.0,0.0,0.0,0.0,0.0,0.0,0.0,0.0,0.0,0.0,0.0,0.0,0.0,0.0,0.0,0.0,0.0,0.0,0.0,0.0,0.0,0.0,0.0,0.0,-3.4171,-3.1737,-2.9718,-2.8166,0.0,0.0,0.0,0.0,0.0,0.0,-2.5815,0.0,0.0,-2.7132,0.0,0.0,0.0,0.0,-3.7092,-3.9739,-4.1726,-4.3335,-4.4489,-4.4556,-4.4346,-4.4249,-4.3113,-4.2031,-4.1678,-4.2539,-4.3214,-4.3016,-4.4625,-4.5928,-4.602,-4.6278,-4.6355,-4.6067,-4.6033,0.0,0.0,0.0,0.0,-4.594,-4.6387,-4.5923,-4.4192,-4.4601,-4.446,-4.3516,-4.3497,-4.3497,-4.3497,-4.3497,-4.3497,-4.3497,-4.3497,-4.3497,-4.3497,-4.3497,-4.3214,-4.2673,-4.208,-4.1446,-4.0856,-4.0336,-4.007,-4.007,-4.007,-4.007,-4.007,-4.007,-3.9287,-3.8084,0.0,0.0,0.0,0.0,0.0,0.0,0.0,0.0,0.0,0.0,0.0,0.0,0.0,0.0,0.0,0.0,0.0,0.0,0.0,0.0,0.0,0.0,0.0,0.0,0.0,0.0,0.0,0.0,0.0,0.0,0.0,0.0,0.0,0.0,0.0,0.0,0.0,0.0,0.0,0.0,0.0,0.0,-3.1483,-2.936,-2.7809,0.0,0.0,0.0,0.0,0.0,0.0,0.0,0.0,0.0,0.0,0.0,0.0,0.0,0.0,-3.7905,-4.0567,-4.3013,-4.4432,-4.5201,-4.5143,-4.4498,-4.3631,-4.2665,-4.1128,-3.973,-3.908,-3.9844,-4.0713,-4.1101,-4.2808,-4.4441,-4.5461,-4.5817,-4.6105,-4.6451,-4.6374,-4.6088,0.0,0.0,0.0,-4.4729,-4.5407,-4.5164,-4.3587,-4.4268,-4.4342,-4.3516,-4.3497,-4.3497,-4.3497,-4.3497,-4.3497,-4.3497,-4.3497,-4.3497,-4.3497,-4.3497,-4.3087,-4.2342,-4.1979,-4.1358,-4.0577,-4.0254,-4.007,-4.007,-4.007,-4.007,-4.007,-4.007,-3.9782,-3.9093,0.0,0.0,0.0,0.0,0.0,0.0,0.0,0.0,0.0,0.0,0.0,0.0,0.0,0.0,0.0,0.0,0.0,0.0,0.0,0.0,0.0,0.0,0.0,0.0,0.0,0.0,0.0,0.0,0.0,0.0,0.0,0.0,0.0,0.0,0.0,0.0,0.0,0.0,0.0,0.0,0.0,0.0,-2.9267,-2.7683,0.0,0.0,0.0,0.0,0.0,0.0,0.0,0.0,0.0,0.0,0.0,0.0,0.0,-3.3733,-3.8916,-4.1217,-4.2893,-4.6105,-4.6913,-4.6432,-4.4643,-4.3627,-4.2579,-4.0896,-3.9226,-3.7848,0.0,0.0,-3.7725,-3.9186,-4.0349,-4.2149,-4.5214,-4.5028,-4.5432,0.0,0.0,0.0,0.0,0.0,0.0,-4.3697,0.0,-4.4378,-4.3589,-4.4287,-4.4342,-4.3516,-4.3497,-4.3497,-4.3497,-4.3497,-4.3497,-4.3497,-4.3497,-4.3497,-4.3497,-4.3497,-4.2903,-4.181,-4.181,-4.115,-4.007,-4.007,-4.007,-4.007,-4.007,-4.0054,-4.002,-4.002,-4.0003,-3.9682,0.0,0.0,0.0,0.0,0.0,0.0,0.0,0.0,0.0,0.0,0.0,0.0,0.0,0.0,0.0,0.0,0.0,0.0,0.0,0.0,0.0,0.0,0.0,0.0,0.0,0.0,0.0,0.0,0.0,0.0,0.0,0.0,0.0,0.0,0.0,0.0,0.0,0.0,0.0,0.0,0.0,0.0,-2.6958,0.0,0.0,0.0,0.0,0.0,0.0,0.0,0.0,0.0,0.0,0.0,-2.9752,0.0,0.0,-3.8472,-4.1304,-4.423,-4.6567,-4.6836,-4.6913,-4.6297,-4.3932,-4.2268,-4.0397,-3.7568,-3.5152,-3.3346,0.0,0.0,0.0,-3.8296,-4.1954,0.0,-4.6369,-4.7451,0.0,-4.7687,0.0,-4.8117,-4.6688,-4.6583,0.0,0.0,-4.4929,-4.4617,-4.4415,-4.4599,-4.4342,-4.3516,-4.3497,-4.3497,-4.3497,-4.3497,-4.3497,-4.3497,-4.3497,-4.3497,-4.3497,-4.3497,-4.2903,-4.181,-4.181,-4.115,-4.007,-4.007,-4.007,-4.007,-4.007,-3.9749,-3.9276,-3.9276,-3.892,-3.8231,0.0,0.0,0.0,0.0,0.0,0.0,0.0,0.0,0.0,0.0,0.0,0.0,0.0,0.0,0.0,0.0,0.0,0.0,0.0,0.0,0.0,0.0,0.0,0.0,0.0,0.0,0.0,0.0,0.0,0.0,0.0,0.0,0.0,0.0,0.0,0.0,0.0,0.0,0.0,0.0,0.0,0.0,0.0,0.0,0.0,0.0,0.0,0.0,0.0,0.0,0.0,-2.8088,-2.96,-3.1072,-3.2842,-3.6017,0.0,-4.1661,-4.4346,-4.6551,-4.799,-4.7548,-4.6874,-4.547,-4.2181,-4.04,-3.8312,-3.4295,-3.2649,0.0,-3.0525,-3.2478,0.0,0.0,0.0,0.0,-4.6544,-4.7721,-4.8587,0.0,-4.9466,0.0,-4.889,-4.8455,-4.8012,0.0,-4.6416,-4.5608,-4.5259,-4.5241,-4.4856,-4.4048,-4.3681,-4.3497,-4.3497,-4.3497,-4.3497,-4.3497,-4.3497,-4.3497,-4.3479,-4.325,-4.2657,-4.181,0.0,-4.0891,-4.007,-4.007,-4.007,-4.007,-4.007,-3.9631,-3.8988,-3.8988,-3.8531,-3.7643,0.0,0.0,0.0,0.0,0.0,0.0,0.0,0.0,0.0,0.0,0.0,0.0,0.0,0.0,0.0,0.0,0.0,0.0,0.0,0.0,0.0,0.0,0.0,0.0,0.0,0.0,0.0,0.0,0.0,0.0,0.0,0.0,0.0,0.0,0.0,0.0,0.0,0.0,0.0,0.0,0.0,0.0,0.0,0.0,0.0,0.0,0.0,0.0,0.0,0.0,-2.856,-2.9731,-3.2267,-3.4238,-3.6274,-3.9699,-4.1877,-4.3924,-4.7204,-4.8182,-4.824,-4.8125,-4.674,-4.4333,-4.0096,-3.8344,-3.622,-3.143,0.0,-3.1094,-2.9824,-3.0901,-3.3127,-3.6584,0.0,-4.1473,-4.6373,-4.7259,-4.8491,-5.1469,-5.0684,-5.0444,-5.1801,-5.0693,-4.9811,-4.9609,-4.8251,-4.704,-4.6104,-4.6067,-4.5645,-4.4745,-4.4011,-4.3608,-4.3497,-4.3497,-4.3497,-4.3497,-4.3497,-4.3444,-4.3375,-4.2902,-4.2342,-4.1664,-4.1133,0.0,-4.007,-4.007,-4.007,-4.007,-4.007,-3.958,-3.8853,-3.8853,-3.8328,-3.7309,0.0,0.0,0.0,0.0,0.0,0.0,0.0,0.0,0.0,0.0,0.0,0.0,0.0,0.0,0.0,0.0,0.0,0.0,0.0,0.0,0.0,0.0,0.0,0.0,0.0,0.0,0.0,0.0,0.0,0.0,0.0,0.0,0.0,0.0,0.0,0.0,0.0,0.0,0.0,0.0,0.0,0.0,0.0,0.0,0.0,0.0,0.0,0.0,0.0,0.0,-3.1235,-3.3189,-3.487,-3.7444,-4.0287,-4.2598,-4.4454,-4.6103,-4.7665,-4.8625,-4.899,-4.8279,-4.6297,-4.3426,-3.9251,-3.6578,0.0,0.0,-2.9162,-2.8926,-2.9439,-3.0821,-3.3239,-3.7267,-3.9956,-4.3027,-4.7277,-4.9125,-5.0372,0.0,-5.2087,-5.2271,-5.1566,-5.1563,0.0,0.0,-4.9315,-4.8489,-4.6985,-4.6911,-4.6232,-4.4764,-4.4562,-4.4176,-4.3497,-4.3497,-4.3497,-4.3497,-4.3497,-4.325,-4.2826,-4.275,-4.2121,-4.1041,-4.0949,0.0,-4.007,-4.007,-4.007,-4.007,-4.007,-3.9276,-3.8091,-3.8091,-3.7212,-3.5886,0.0,0.0,0.0,0.0,0.0,0.0,0.0,0.0,0.0,0.0,0.0,0.0,0.0,0.0,0.0,0.0,0.0,0.0,0.0,0.0,0.0,0.0,0.0,0.0,0.0,0.0,0.0,0.0,0.0,0.0,0.0,0.0,0.0,0.0,0.0,0.0,0.0,0.0,0.0,0.0,0.0,0.0,0.0,0.0,0.0,0.0,0.0,0.0,0.0,0.0,-3.0983,-3.3853,-3.6793,-3.97,-4.2412,-4.425,-4.5975,-4.751,-4.8491,-4.8759,-4.8624,-4.8285,-4.56,-4.2091,-3.8364,0.0,0.0,0.0,-2.9079,-2.9393,-2.9409,-3.1074,0.0,-3.6325,-3.8537,-4.1364,-4.5545,-4.7625,-4.9452,-5.1379,-5.2541,-5.3163,0.0,-5.238,-5.1499,-5.0306,-4.9829,-4.904,-4.781,-4.7352,-4.6379,-4.4764,-4.4709,-4.4305,-4.3497,-4.3497,-4.3497,-4.3497,-4.3497,-4.3375,-4.3105,-4.2826,-4.2203,-4.1358,-4.1041,0.0,-4.007,-4.007,-4.007,-4.007,-4.007,-3.9411,-3.8464,-3.8464,-3.7516,-3.606,0.0,0.0,0.0,0.0,0.0,0.0,0.0,0.0,0.0,0.0,0.0,0.0,0.0,0.0,0.0,0.0,0.0,0.0,0.0,0.0,0.0,0.0,0.0,0.0,0.0,0.0,0.0,0.0,0.0,0.0,0.0,0.0,0.0,0.0,0.0,0.0,0.0,0.0,0.0,0.0,0.0,0.0,0.0,0.0,0.0,0.0,0.0,0.0,0.0,0.0,-2.9813,-3.2783,-3.653,-3.9967,-4.2842,-4.418,-4.6163,-4.8092,-4.896,-4.8726,-4.8218,-4.8327,-4.4982,-4.0837,-3.7734,-3.5415,0.0,0.0,-2.9418,-3.0205,-2.9888,0.0,-3.3188,0.0,-3.6897,-3.9258,-4.3682,-4.5951,-4.8318,0.0,-5.2615,0.0,-5.4279,-5.3068,0.0,-5.1114,-5.0141,-4.9205,-4.8361,-4.7719,-4.6636,-4.5021,-4.4966,-4.4488,-4.3497,-4.3497,-4.3497,-4.3497,-4.3497,-4.3444,-4.3286,-4.277,-4.2162,-4.1578,-4.0995,0.0,0.0,-4.007,-4.007,-4.007,-4.007,-3.9631,-3.8971,-3.8819,-3.7922,-3.6599,0.0,0.0,0.0,0.0,0.0,0.0,0.0,0.0,0.0,0.0,0.0,0.0,0.0,0.0,0.0,0.0,0.0,0.0,0.0,0.0,0.0,0.0,0.0,0.0,0.0,0.0,0.0,0.0,0.0,0.0,0.0,0.0,0.0,0.0,0.0,0.0,0.0,0.0,0.0,0.0,0.0,0.0,0.0,0.0,0.0,0.0,0.0,0.0,0.0,0.0,0.0,-2.9984,-3.1969,-3.6416,-4.0963,-4.1189,0.0,0.0,-4.835,-4.8516,-4.8477,-4.8487,-4.4656,-4.0237,-3.7659,0.0,0.0,0.0,0.0,-2.9782,-3.1282,0.0,0.0,0.0,0.0,-3.8565,-4.3585,-4.6432,-4.8835,-5.1075,0.0,0.0,-5.3831,-5.337,-5.2766,-5.194,-5.0453,-4.9205,-4.8361,-4.8233,-4.7462,-4.5847,-4.5792,-4.5039,-4.3497,-4.3497,-4.3497,-4.3497,-4.3497,-4.325,-4.2732,-4.2162,-4.1534,-4.0949,-4.0417,0.0,0.0,-4.007,-4.007,-4.007,-4.007,-3.9631,-3.892,-3.8261,-3.7483,-3.6514,0.0,0.0,0.0,0.0,0.0,0.0,0.0,0.0,0.0,0.0,0.0,0.0,0.0,0.0,0.0,0.0,0.0,0.0,0.0,0.0,0.0,0.0,0.0,0.0,0.0,0.0,0.0,0.0,0.0,0.0,0.0,0.0,0.0,0.0,0.0,0.0,0.0,0.0,0.0,0.0,0.0,0.0,0.0,0.0,0.0,0.0,0.0,0.0,0.0,0.0,0.0,0.0,-2.8043,-3.1134,0.0,0.0,-4.1954,-4.522,-4.6571,-4.731,-4.7715,-4.7723,-4.3868,-3.9686,-3.8176,0.0,0.0,0.0,0.0,-3.0295,-3.1521,-3.1426,0.0,0.0,0.0,0.0,-3.9931,-4.2239,-4.4709,-4.7899,-4.9824,0.0,0.0,0.0,-5.1426,-5.06,-4.9903,-4.9169,-4.8343,-4.7847,-4.7076,-4.5938,-4.5424,-4.4635,-4.3497,-4.3497,-4.3497,-4.3497,-4.3497,-4.3214,-4.2711,-4.244,-4.1793,-4.0903,-4.0655,0.0,0.0,-4.007,-4.007,-4.007,-4.007,-3.9901,-3.9614,-3.9326,-3.8481,-3.7208,0.0,0.0,0.0,0.0,0.0,0.0,0.0,0.0,0.0,0.0,0.0,0.0,0.0,0.0,0.0,0.0,0.0,0.0,0.0,0.0,0.0,0.0,0.0,0.0,0.0,0.0,0.0,0.0,0.0,0.0,0.0,0.0,-2.5703,-2.5703,0.0,0.0,0.0,0.0,0.0,0.0,0.0,0.0,0.0,0.0,0.0,0.0,0.0,0.0,0.0,0.0,0.0,0.0,0.0,0.0,0.0,0.0,-3.9273,-4.2786,-4.4728,-4.6033,-4.6874,-4.6875,-4.32,-3.9305,0.0,0.0,0.0,0.0,0.0,-3.0679,-3.1545,-3.1698,-3.2256,0.0,0.0,-3.4776,-3.793,-3.9749,-4.1972,-4.5361,0.0,-4.927,0.0,-5.1021,-5.0655,-5.0325,-4.9811,-4.9279,-4.871,-4.77,-4.6746,-4.592,-4.5131,-4.4305,-4.3497,-4.3497,-4.3497,-4.3497,-4.3497,-4.3214,-4.2693,-4.2519,-4.1979,-4.1133,-4.0827,0.0,0.0,-4.0171,-4.007,-4.007,-4.007,-3.9952,-3.9732,-3.9512,-3.865,-3.7326,0.0,0.0,0.0,0.0,0.0,0.0,0.0,0.0,0.0,0.0,0.0,0.0,0.0,0.0,0.0,0.0,0.0,0.0,0.0,0.0,0.0,0.0,0.0,0.0,0.0,0.0,0.0,0.0,0.0,0.0,0.0,0.0,0.0,0.0,0.0,0.0,0.0,0.0,0.0,0.0,0.0,0.0,0.0,0.0,0.0,0.0,0.0,0.0,0.0,0.0,0.0,0.0,0.0,0.0,0.0,0.0,-3.5918,-4.0488,-4.3027,-4.4894,-4.6113,-4.6117,-4.2836,-3.9142,0.0,0.0,0.0,0.0,0.0,-3.0679,-3.1545,-3.1698,-3.2256,-3.393,-3.493,0.0,-3.8931,-4.044,-4.2093,0.0,0.0,-4.7014,-4.8216,-4.9829,-5.1132,-5.1903,-5.049,0.0,-4.9572,-4.8012,-4.6746,-4.592,-4.5131,-4.4305,-4.3497,-4.3497,-4.3497,-4.3497,-4.3497,-4.3214,-4.2655,-4.208,-4.1793,-4.1725,0.0,0.0,0.0,-4.0336,-4.007,-4.007,-4.007,-3.9631,-3.892,-3.8193,-3.7449,-3.6531,0.0,0.0,0.0,0.0,0.0,0.0,0.0,0.0,0.0,0.0,0.0,0.0,0.0,0.0,0.0,0.0,0.0,0.0,0.0,0.0,0.0,0.0,0.0,0.0,0.0,0.0,0.0,0.0,0.0,0.0,0.0,0.0,0.0,0.0,0.0,0.0,0.0,0.0,0.0,0.0,0.0,0.0,0.0,0.0,0.0,0.0,0.0,0.0,0.0,0.0,0.0,0.0,0.0,0.0,0.0,0.0,0.0,0.0,-3.7104,-3.8715,-3.9845,-3.9117,-3.6577,-3.4268,-3.4206,0.0,0.0,0.0,0.0,0.0,-3.1545,-3.1218,-3.1756,-3.4622,-3.4814,0.0,0.0,0.0,0.0,-4.3866,-4.7249,-4.96,0.0,0.0,-5.0674,-5.0362,-4.9866,-4.9334,-4.8746,-4.7168,-4.6159,-4.5902,-4.5131,-4.4305,-4.3497,-4.3497,-4.3497,-4.3497,-4.3497,-4.2995,-4.208,-4.2302,-4.1785,0.0,0.0,0.0,0.0,-4.0154,-4.007,-4.007,-4.007,-3.9631,-3.8954,-3.8734,-3.7855,-3.6582,0.0,0.0,0.0,0.0,0.0,0.0,0.0,0.0,0.0,0.0,0.0,0.0,0.0,0.0,0.0,0.0,0.0,0.0,0.0,0.0,0.0,0.0,0.0,0.0,0.0,0.0,0.0,0.0,0.0,0.0,0.0,0.0,0.0,0.0,0.0,0.0,0.0,0.0,0.0,0.0,0.0,0.0,-2.5303,0.0,0.0,0.0,0.0,0.0,0.0,0.0,0.0,0.0,0.0,0.0,0.0,0.0,0.0,0.0,0.0,-3.4862,-3.5981,-3.5305,-3.3441,0.0,0.0,0.0,0.0,0.0,0.0,0.0,-3.1121,-3.1025,-3.1698,-3.4122,-3.426,-3.4963,0.0,0.0,0.0,-4.3915,0.0,0.0,0.0,-4.9866,-4.9793,-4.9591,-4.9297,-4.8728,-4.7902,-4.6911,-4.6067,-4.548,-4.4672,-4.4011,-4.3497,-4.3497,-4.3497,-4.3497,-4.3286,-4.2846,-4.2162,-4.2302,-4.1785,0.0,0.0,0.0,0.0,-4.0154,-4.007,-4.0054,-3.9766,-3.9225,-3.8548,-3.8261,-3.7398,-3.6131,0.0,0.0,0.0,0.0,0.0,0.0,0.0,0.0,0.0,0.0,0.0,0.0,0.0,0.0,0.0,0.0,0.0,0.0,0.0,0.0,0.0,0.0,0.0,0.0,0.0,0.0,0.0,0.0,-2.7761,-2.8229,-2.8307,0.0,0.0,0.0,0.0,0.0,0.0,-2.5421,-2.5363,0.0,0.0,-2.5303,0.0,0.0,0.0,0.0,0.0,0.0,0.0,0.0,0.0,0.0,0.0,0.0,0.0,0.0,0.0,0.0,0.0,0.0,0.0,0.0,0.0,0.0,0.0,0.0,0.0,0.0,0.0,0.0,0.0,-3.1198,-3.2025,-3.3006,-3.3608,-3.5107,0.0,-3.9276,0.0,0.0,-4.6397,0.0,-4.8251,-4.8306,-4.8636,-4.9426,-4.8691,-4.7902,-4.715,-4.7003,-4.625,-4.4764,-4.392,-4.3497,-4.3497,-4.3497,-4.3497,-4.3479,-4.2976,-4.275,-4.2693,-4.2162,-4.1835,0.0,0.0,0.0,0.0,-4.0218,-4.0003,-3.9935,-3.9191,-3.8497,-3.7821,-3.706,-3.6282,-3.5424,0.0,0.0,0.0,0.0,0.0,0.0,0.0,0.0,0.0,0.0,0.0,0.0,0.0,0.0,0.0,0.0,0.0,0.0,0.0,0.0,0.0,0.0,0.0,0.0,0.0,0.0,0.0,-2.6822,-2.8304,-2.9356,-3.0024,-3.0886,0.0,0.0,0.0,0.0,-2.5421,-2.5346,-2.5313,0.0,-2.5303,-2.5303,0.0,0.0,0.0,0.0,-2.5303,-2.5861,0.0,0.0,0.0,0.0,0.0,0.0,0.0,0.0,-2.7375,0.0,0.0,0.0,0.0,0.0,0.0,0.0,0.0,0.0,0.0,0.0,0.0,0.0,0.0,0.0,-3.2602,-3.5372,-3.5752,-3.6559,-3.8968,-4.2728,0.0,-4.7278,-4.893,-4.9499,-4.8416,-4.8306,-4.8379,-4.86,-4.7865,-4.7315,-4.7131,-4.5938,-4.5094,-4.4727,-4.392,-4.3497,-4.3497,-4.3497,-4.3497,-4.3497,-4.3375,-4.3105,-4.2711,-4.2995,-4.2368,0.0,0.0,0.0,-3.9452,-3.934,-3.9242,-3.9174,-3.8447,-3.8058,-3.7821,-3.706,-3.6282,-3.5424,0.0,0.0,0.0,0.0,0.0,0.0,0.0,0.0,0.0,0.0,0.0,0.0,0.0,0.0,0.0,0.0,0.0,0.0,0.0,0.0,0.0,0.0,0.0,0.0,0.0,0.0,0.0,0.0,0.0,-3.0645,0.0,0.0,0.0,0.0,0.0,0.0,-2.5406,-2.5321,-2.5303,-2.5303,-2.5303,0.0,0.0,0.0,0.0,0.0,-2.5745,-2.6197,0.0,-2.8025,-2.8448,-2.8516,0.0,0.0,0.0,0.0,-2.8152,0.0,0.0,0.0,0.0,0.0,0.0,0.0,0.0,0.0,0.0,0.0,0.0,0.0,0.0,0.0,0.0,0.0,-3.5986,0.0,0.0,0.0,-4.6856,-4.7664,-4.8893,-4.9297,0.0,-4.8306,-4.8159,-4.7792,-4.737,-4.6801,-4.6049,-4.5186,-4.4544,-4.4158,-4.3718,-4.3497,-4.3497,-4.3497,-4.3497,-4.3497,-4.325,-4.3105,-4.305,-4.2828,-4.2208,0.0,0.0,0.0,-3.8988,-3.8988,-3.8802,-3.8413,-3.7686,-3.7398,-3.7297,-3.6535,-3.5778,-3.5005,0.0,0.0,0.0,0.0,0.0,0.0,0.0,0.0,0.0,0.0,0.0,0.0,0.0,0.0,0.0,0.0,0.0,0.0,0.0,0.0,0.0,0.0,0.0,0.0,0.0,0.0,0.0,0.0,0.0,0.0,0.0,0.0,0.0,0.0,0.0,0.0,-2.5383,-2.5312,-2.5303,-2.5303,-2.5303,0.0,0.0,0.0,0.0,0.0,0.0,0.0,0.0,-2.8621,-2.9179,-2.939,-3.0006,0.0,0.0,0.0,0.0,0.0,0.0,0.0,0.0,0.0,0.0,0.0,0.0,0.0,0.0,0.0,0.0,0.0,0.0,0.0,0.0,0.0,0.0,0.0,-4.2294,-4.4819,-4.6471,-4.704,-4.7939,0.0,-4.8141,-4.8122,-4.7847,-4.713,-4.6893,-4.6159,-4.4782,-4.458,-4.4195,-4.3516,-4.3497,-4.3497,-4.3497,-4.3497,-4.3497,-4.3479,-4.305,-4.3014,-4.3339,-4.2364,-4.1853,-4.1621,0.0,0.0,-3.8819,-3.87,-3.8294,-3.7669,-3.6907,-3.6671,-3.6688,-3.591,-3.5253,-3.464,0.0,0.0,0.0,0.0,0.0,0.0,0.0,0.0,0.0,0.0,0.0,0.0,0.0,0.0,0.0,0.0,0.0,0.0,0.0,0.0,0.0,0.0,0.0,0.0,0.0,0.0,0.0,0.0,0.0,0.0,-3.6334,-3.7065,-3.4911,0.0,0.0,-2.5996,-2.5313,-2.5293,-2.5303,-2.5303,-2.5303,0.0,0.0,0.0,0.0,0.0,0.0,0.0,0.0,-2.9006,-2.9583,-3.0102,-2.9486,0.0,0.0,0.0,0.0,0.0,0.0,0.0,0.0,0.0,0.0,0.0,0.0,0.0,0.0,0.0,0.0,0.0,0.0,0.0,-3.5278,0.0,0.0,-4.2514,0.0,0.0,-4.7737,-4.7186,0.0,-4.8838,-4.7443,-4.7297,-4.7241,-4.7131,-4.5847,-4.4966,-4.4727,-4.4048,-4.3626,-4.3497,-4.3497,-4.3497,-4.3497,-4.3497,-4.3497,-4.3497,-4.341,-4.3178,-4.2826,-4.2655,-4.1979,-4.1007,0.0,-3.9267,-3.8024,-3.7381,-3.706,-3.6874,-3.6096,-3.6197,-3.6688,-3.591,-3.5515,-3.527,0.0,0.0,0.0,0.0,0.0,0.0,0.0,0.0,0.0,0.0,0.0,0.0,0.0,0.0,0.0,0.0,0.0,0.0,0.0,0.0,0.0,0.0,0.0,0.0,0.0,0.0,0.0,0.0,0.0,-3.6719,-3.87,-3.6353,-3.3506,-3.0263,0.0,-2.5668,-2.5303,-2.5303,-2.5303,-2.5303,0.0,0.0,0.0,0.0,0.0,0.0,0.0,0.0,0.0,0.0,-2.9083,-2.914,-2.964,0.0,0.0,0.0,0.0,0.0,0.0,0.0,0.0,0.0,0.0,0.0,0.0,0.0,0.0,0.0,0.0,0.0,0.0,0.0,-3.7133,-4.034,0.0,-4.3793,-4.5644,-4.6544,-4.704,0.0,0.0,-4.7462,-4.715,-4.6728,-4.6287,-4.5847,0.0,0.0,-4.4066,-4.3699,-4.3497,-4.3497,-4.3497,-4.3497,-4.3497,-4.3057,-4.3057,-4.3497,-4.3214,-4.2939,-4.2655,-4.1594,-4.0832,-4.0262,0.0,-3.8223,-3.728,-3.6924,-3.6535,-3.6113,-3.5757,-3.5842,-3.6004,-3.4932,-3.4512,-3.4301,0.0,0.0,0.0,0.0,0.0,0.0,0.0,0.0,0.0,0.0,0.0,0.0,0.0,0.0,0.0,0.0,0.0,0.0,0.0,0.0,0.0,0.0,0.0,0.0,0.0,0.0,0.0,-3.6103,-3.7584,-3.8854,-3.9815,-3.5526,-3.2295,0.0,0.0,-2.5813,-2.5591,-2.5591,-2.5707,-2.589,0.0,0.0,0.0,0.0,0.0,0.0,0.0,0.0,0.0,0.0,0.0,0.0,0.0,0.0,0.0,0.0,0.0,-3.0436,-3.066,0.0,0.0,0.0,0.0,0.0,0.0,0.0,0.0,0.0,0.0,0.0,0.0,-3.7159,0.0,-4.2328,-4.3539,-4.4617,-4.6232,-4.6452,-4.6617,-4.7076,-4.6562,-4.6361,-4.6801,-4.6104,-4.5369,-4.4764,0.0,0.0,-4.3516,-4.3497,-4.3406,-4.3222,-4.3222,-4.313,-4.2928,-4.2323,-4.2525,-4.3479,-4.274,-4.2418,-4.2404,-4.0613,-3.9703,-3.9549,-3.8244,-3.7313,-3.6772,-3.6586,-3.6163,-3.5622,-3.5622,-3.5622,-3.547,-3.4447,-3.3887,-3.3443,0.0,0.0,0.0,0.0,0.0,0.0,0.0,0.0,0.0,0.0,0.0,0.0,0.0,0.0,0.0,0.0,0.0,0.0,0.0,0.0,0.0,0.0,0.0,0.0,0.0,-3.2333,-3.366,-3.7815,-3.8738,-3.8854,-3.8142,-3.6219,-3.3122,-2.914,0.0,-2.7255,-2.6505,-2.6505,-2.6967,-2.764,-2.6832,0.0,0.0,0.0,0.0,0.0,0.0,0.0,0.0,0.0,0.0,0.0,0.0,0.0,0.0,0.0,0.0,-3.0571,-3.1391,-3.1809,0.0,0.0,0.0,0.0,0.0,0.0,0.0,0.0,0.0,0.0,0.0,-3.9182,-4.0789,-4.3067,-4.4744,-4.6287,-4.7902,0.0,-4.7884,-4.7205,-4.7076,-4.6746,-4.6049,-4.5259,-4.4764,0.0,0.0,0.0,-4.3497,-4.3497,-4.3149,-4.2415,-4.2396,-4.2029,-4.1295,-4.124,-4.1974,-4.3479,-4.2123,-4.1611,-4.1817,-4.0438,-3.9508,-3.9001,-3.753,-3.6823,-3.6721,-3.5994,-3.5673,-3.5622,-3.5622,-3.5622,-3.5577,-3.547,-3.4657,-3.3582,0.0,0.0,0.0,0.0,0.0,0.0,0.0,0.0,0.0,0.0,0.0,0.0,0.0,0.0,0.0,0.0,0.0,0.0,0.0,0.0,0.0,0.0,0.0,-2.939,-3.2583,-3.4064,-3.6122,-3.8815,-3.9142,-3.8584,-3.7142,-3.441,0.0,0.0,0.0,-2.7717,-2.7409,-2.7409,-2.7601,-2.7871,-2.7544,-2.7409,0.0,0.0,0.0,0.0,0.0,0.0,0.0,0.0,0.0,0.0,0.0,0.0,0.0,0.0,0.0,0.0,-3.0598,-3.1355,0.0,0.0,0.0,0.0,0.0,0.0,0.0,0.0,0.0,0.0,0.0,0.0,-4.1401,-4.322,-4.4837,-4.6104,-4.6728,-4.7241,-4.7278,-4.6452,-4.592,-4.5498,-4.5186,-4.4433,0.0,0.0,0.0,0.0,-4.2782,-4.2745,-4.2396,-4.1589,-4.1552,-4.1423,-4.1111,-4.0261,-4.0397,-4.1487,-4.0926,-4.0378,-3.9817,-3.8808,-3.8116,-3.755,-3.6518,-3.6062,-3.6045,-3.574,-3.5622,-3.5622,-3.5622,-3.5622,-3.556,-3.5144,-3.4382,-3.3531,0.0,0.0,0.0,0.0,0.0,0.0,0.0,0.0,0.0,0.0,0.0,0.0,0.0,0.0,0.0,0.0,0.0,0.0,0.0,0.0,0.0,0.0,0.0,-2.8832,-3.0833,-3.391,-3.6488,-3.8469,-3.8469,-3.7469,-3.5449,0.0,0.0,0.0,0.0,0.0,0.0,-2.8441,-2.8341,-2.8541,-2.8303,-2.8188,0.0,0.0,0.0,0.0,0.0,0.0,0.0,0.0,0.0,0.0,0.0,0.0,0.0,0.0,0.0,0.0,-3.0061,-3.061,0.0,0.0,0.0,0.0,0.0,0.0,0.0,0.0,0.0,0.0,0.0,0.0,0.0,0.0,-4.4635,-4.5608,-4.5865,-4.6379,-4.6434,-4.5626,-4.5039,-4.4617,-4.436,0.0,0.0,0.0,0.0,0.0,0.0,-4.1919,-4.1552,-4.0763,-4.0726,-4.0616,-4.0359,-3.9425,-3.9186,-3.9553,-3.9677,-3.9459,-3.8919,-3.7957,-3.7344,-3.6962,-3.6034,-3.5622,-3.5622,-3.5622,-3.547,-3.5267,-3.5267,-3.5267,-3.5222,-3.4747,-3.4151,-3.3464,0.0,0.0,0.0,0.0,0.0,0.0,0.0,0.0,0.0,0.0,0.0,0.0,0.0,0.0,0.0,0.0,0.0,0.0,0.0,0.0,0.0,0.0,0.0,-2.8255,-2.9063,-3.1564,-3.4103,-3.6661,-3.6661,-3.5372,-3.2872,0.0,0.0,0.0,0.0,0.0,0.0,0.0,-2.9256,-2.9923,-2.9122,-2.8812,-2.8826,0.0,0.0,0.0,0.0,0.0,0.0,0.0,0.0,0.0,0.0,0.0,0.0,0.0,0.0,-2.9999,-2.9999,0.0,0.0,0.0,0.0,0.0,0.0,0.0,0.0,0.0,0.0,0.0,0.0,0.0,0.0,-4.3222,-4.4176,-4.4984,-4.5773,-4.5883,-4.559,-4.4782,-4.4709,-4.4378,-4.3552,0.0,0.0,0.0,0.0,0.0,0.0,-4.1111,-4.0726,-3.99,-3.9882,-3.9515,-3.8707,-3.8707,-3.8415,-3.7911,-3.8415,-3.895,-3.9438,-3.8108,-3.7482,-3.743,-3.6117,-3.5605,-3.5605,-3.5605,-3.5165,-3.4472,-3.4472,-3.4472,-3.4472,-3.4472,-3.4058,-3.3365,0.0,0.0,0.0,0.0,0.0,0.0,0.0,0.0,0.0,0.0,0.0,0.0,0.0,0.0,0.0,0.0,0.0,0.0,0.0,0.0,0.0,0.0,0.0,0.0,0.0,0.0,-3.1487,-3.4026,-3.3468,-3.2487,0.0,0.0,0.0,-3.0519,0.0,0.0,0.0,0.0,-2.9696,-2.9761,-2.9534,-2.942,-2.9472,0.0,0.0,0.0,0.0,0.0,0.0,0.0,0.0,0.0,0.0,0.0,0.0,0.0,-3.0209,-2.9969,-2.9829,0.0,0.0,0.0,0.0,0.0,0.0,0.0,0.0,0.0,0.0,0.0,0.0,0.0,0.0,-4.258,-4.3809,-4.4599,-4.425,-4.4709,-4.4764,-4.3956,-4.3864,-4.3534,0.0,0.0,0.0,0.0,0.0,0.0,0.0,-4.0267,-3.9882,-3.9074,-3.9056,-3.8946,-3.8707,-3.7754,-3.7489,-3.7875,-3.657,-3.6631,-3.7863,-3.7461,-3.6799,-3.5931,-3.5155,-3.4539,-3.4066,-3.4066,-3.3931,-3.3728,-3.3728,-3.3728,-3.3728,-3.3728,-3.3305,-3.2643,0.0,0.0,0.0,0.0,0.0,0.0,0.0,0.0,0.0,0.0,0.0,0.0,0.0,0.0,0.0,0.0,0.0,0.0,0.0,0.0,0.0,0.0,0.0,0.0,0.0,-2.8582,-3.0044,0.0,0.0,0.0,0.0,0.0,0.0,-3.2003,0.0,-3.2276,0.0,0.0,-3.0168,-3.0058,-3.0058,-3.0058,-3.0096,0.0,0.0,0.0,0.0,0.0,0.0,0.0,0.0,0.0,0.0,0.0,0.0,0.0,-2.9579,-2.9428,0.0,0.0,0.0,0.0,0.0,0.0,0.0,0.0,0.0,0.0,0.0,0.0,0.0,-4.2525,0.0,-4.2708,-4.3589,-4.4048,-4.3552,-4.392,-4.392,-4.3112,-4.302,0.0,0.0,0.0,0.0,0.0,0.0,0.0,0.0,-3.8946,-3.8579,-3.7771,-3.7753,-3.7753,-3.7753,-3.6767,-3.662,-3.7271,-3.5816,-3.5717,-3.6822,-3.6252,-3.5668,-3.5042,-3.4353,-3.3812,-3.3389,-3.3085,-3.2949,-3.2949,-3.2949,-3.2949,-3.2949,-3.2949,-3.2723,-3.2216,0.0,0.0,0.0,0.0,0.0,0.0,0.0,0.0,0.0,0.0,0.0,0.0,0.0,0.0,0.0,0.0,0.0,0.0,0.0,0.0,0.0,0.0,0.0,0.0,0.0,0.0,0.0,0.0,0.0,0.0,0.0,0.0,-3.3935,-3.4583,0.0,-3.4386,0.0,-3.1586,-3.049,-3.0469,-3.0469,-3.0469,-3.0472,-3.0678,0.0,0.0,0.0,0.0,0.0,0.0,0.0,0.0,0.0,0.0,0.0,0.0,-2.8696,0.0,0.0,0.0,0.0,0.0,0.0,0.0,0.0,0.0,0.0,0.0,0.0,0.0,-4.3497,-4.2892,-4.2616,-4.3277,-4.3387,-4.3369,-4.3277,-4.3277,-4.3002,-4.2286,0.0,0.0,0.0,0.0,0.0,0.0,0.0,0.0,0.0,-3.7397,-3.7055,-3.6321,-3.6303,-3.6303,-3.6303,-3.5812,-3.5812,-3.6285,-3.5659,-3.5654,-3.6146,-3.4907,-3.4438,-3.4588,-3.3619,-3.3203,-3.3152,-3.2459,-3.2188,-3.2188,-3.2188,-3.2188,-3.2188,-3.2188,-3.2188,-3.2032,0.0,0.0,0.0,0.0,0.0,0.0,0.0,0.0,0.0,0.0,0.0,0.0,0.0,0.0,0.0,0.0,0.0,0.0,0.0,0.0,0.0,0.0,0.0,0.0,0.0,0.0,0.0,0.0,0.0,0.0,0.0,0.0,0.0,-3.1592,0.0,-3.253,0.0,-3.0073,-2.9527,-2.9347,-2.9347,-2.9347,-2.937,-2.9634,-2.9531,0.0,0.0,0.0,0.0,0.0,0.0,0.0,0.0,-3.0254,-3.0037,-2.9818,-2.9007,0.0,0.0,0.0,0.0,0.0,0.0,0.0,0.0,0.0,0.0,0.0,-4.3497,-4.3497,-4.3497,-4.3351,-4.3075,-4.2635,-4.2561,-4.2341,-4.1699,-4.1625,-4.1552,-4.1387,0.0,0.0,0.0,0.0,0.0,0.0,0.0,0.0,-3.6597,-3.656,-3.6468,-3.6303,-3.6303,-3.6303,-3.6303,-3.552,-3.552,0.0,-3.4534,-3.4291,-3.5284,-3.5227,-3.4535,-3.3306,-3.2161,-3.1664,-3.1664,-3.1495,-3.1427,-3.1427,-3.1427,-3.1427,-3.1427,-3.1427,-3.1427,-3.1251,0.0,0.0,0.0,0.0,0.0,0.0,0.0,0.0,0.0,0.0,0.0,0.0,0.0,0.0,0.0,0.0,0.0,0.0,0.0,0.0,0.0,0.0,0.0,0.0,0.0,0.0,0.0,0.0,0.0,0.0,0.0,0.0,0.0,-3.1216,0.0,-3.2047,-3.0748,-3.006,-2.9706,-2.9586,-2.9586,-2.9586,-2.9586,-2.9728,-2.9622,-2.9414,-2.9644,0.0,0.0,0.0,0.0,0.0,0.0,0.0,-3.0073,-2.9464,-2.8822,-2.8427,0.0,0.0,0.0,0.0,0.0,0.0,0.0,0.0,0.0,0.0,-4.2947,-4.3369,-4.3002,-4.2928,-4.2653,-4.1864,-4.1735,-4.1589,-4.1167,-4.1111,-4.0818,0.0,0.0,0.0,0.0,0.0,0.0,0.0,0.0,-3.656,-3.5734,-3.5312,-3.4926,-3.4541,-3.4541,-3.4339,-3.3954,-3.3698,-3.3716,-3.3935,-3.2653,-3.2415,-3.3067,-3.3381,-3.2807,-3.1559,-3.0561,-3.0142,-3.0159,-3.0531,-3.0666,-3.0717,-3.1055,-3.119,-3.119,-3.119,-3.097,-3.0583,0.0,0.0,0.0,0.0,0.0,0.0,0.0,0.0,0.0,0.0,0.0,0.0,0.0,0.0,0.0,0.0,0.0,0.0,0.0,0.0,0.0,0.0,0.0,0.0,0.0,0.0,0.0,0.0,0.0,0.0,0.0,0.0,0.0,0.0,0.0,0.0,-3.1127,-3.0338,-2.9989,-2.9989,-2.9989,-2.9989,-2.9989,-2.9989,-2.9706,-2.933,-2.9392,-2.9607,-2.9908,-2.9939,0.0,0.0,0.0,0.0,-3.012,-2.903,-2.8582,-2.8405,0.0,0.0,0.0,0.0,0.0,0.0,0.0,0.0,0.0,0.0,-4.2066,-4.2873,-4.2213,-4.2084,-4.1827,-4.1038,-4.0891,-4.0818,-4.0524,-4.0487,-3.9937,0.0,0.0,0.0,0.0,0.0,0.0,0.0,0.0,-3.544,-3.4422,-3.3752,-3.3073,-3.2412,-3.2394,-3.2063,-3.1403,-3.1738,-3.1738,-3.1403,-3.1056,-3.0856,-3.0772,-3.0945,-3.0658,-2.9966,-2.9282,-2.9011,-2.9025,-2.9651,-2.9922,-2.9973,-3.0581,-3.0818,-3.0818,-3.0818,-3.0429,-2.9914,0.0,0.0,0.0,0.0,0.0,0.0,0.0,0.0,0.0,0.0,0.0,0.0,0.0,0.0,0.0,0.0,0.0,0.0,0.0,0.0,0.0,0.0,0.0,0.0,0.0,0.0,0.0,0.0,0.0,0.0,0.0,0.0,0.0,0.0,0.0,0.0,0.0,-2.9512,-2.914,-2.914,-2.914,-2.914,-2.914,-2.914,-2.9131,-2.9089,-2.931,-2.9434,-2.9513,-2.9678,-2.9877,0.0,0.0,0.0,-2.998,-2.9631,-2.8875,0.0,0.0,0.0,0.0,0.0,0.0,0.0,0.0,0.0,0.0,0.0,-4.0799,-4.1405,-4.1295,-4.1277,-4.1001,-4.0194,-4.0065,-3.957,-3.8175,-3.7973,0.0,0.0,0.0,0.0,0.0,0.0,0.0,0.0,-3.3752,-3.3476,-3.1953,-3.177,-3.1659,-3.1549,-3.1549,-3.1513,-3.1384,-3.1444,-3.1444,-3.1384,-3.1334,-3.0957,-3.0272,-2.9674,-2.9488,-2.9644,-2.9208,-2.9011,-2.9028,-2.9093,-2.9127,-2.9144,-2.9282,-2.9279,-2.9279,-2.9279,-2.9211,-2.9016,0.0,0.0,0.0,0.0,0.0,0.0,0.0,0.0,0.0,0.0,0.0,0.0,0.0,0.0,0.0,0.0,0.0,0.0,0.0,0.0,0.0,0.0,0.0,0.0,0.0,0.0,0.0,0.0,0.0,0.0,0.0,-3.0572,-3.112,0.0,0.0,0.0,0.0,0.0,0.0,-2.8994,-2.8994,-2.8741,-2.8374,-2.881,-2.8723,-2.8415,-2.8968,-2.9267,-2.9394,-2.9494,-2.9661,-2.9845,-2.9969,0.0,0.0,0.0,-2.9379,0.0,0.0,0.0,0.0,0.0,0.0,0.0,0.0,0.0,0.0,-3.7716,-3.8157,-3.8689,-3.9588,-3.9386,-3.8817,-3.801,-3.7881,-3.7643,-3.6927,0.0,0.0,0.0,0.0,0.0,0.0,0.0,0.0,0.0,-3.2265,-3.2137,-3.1421,-3.0962,-3.0723,-3.0723,-3.0723,-3.0503,-3.0063,-3.0503,-3.0503,-3.0063,-3.0063,-2.9762,-2.9158,-2.8667,-2.8487,-2.8562,-2.798,-2.7706,-2.7723,-2.8163,-2.8332,-2.8383,-2.8805,-2.9011,-2.9011,-2.9011,-2.8704,-2.8275,0.0,0.0,0.0,0.0,0.0,0.0,0.0,0.0,0.0,0.0,0.0,0.0,0.0,0.0,0.0,0.0,0.0,0.0,0.0,0.0,0.0,0.0,0.0,0.0,0.0,0.0,0.0,0.0,0.0,0.0,-2.8136,-2.9739,-3.0808,0.0,-3.0558,0.0,0.0,0.0,0.0,0.0,0.0,0.0,0.0,0.0,-2.8026,-2.7603,-2.8411,-2.882,-2.9031,-2.9235,-2.9435,-2.9643,-2.9796,-2.9877,0.0,0.0,0.0,0.0,0.0,0.0,0.0,0.0,0.0,0.0,0.0,0.0,0.0,0.0,-3.5202,-3.5477,-3.689,-3.7165,-3.6927,-3.6101,-3.5973,-3.5826,0.0,0.0,0.0,0.0,0.0,0.0,0.0,0.0,0.0,0.0,-3.1091,-3.0999,-3.0797,-3.0228,-2.9898,-2.9898,-2.9696,-2.931,-2.8705,-2.909,-2.898,-2.8388,-2.8388,-2.8171,-2.7799,-2.7656,-2.7504,-2.7318,-2.6877,-2.6691,-2.6742,-2.73,-2.7537,-2.7588,-2.818,-2.8399,-2.8399,-2.8399,-2.7956,-2.7341,0.0,0.0,0.0,0.0,0.0,0.0,0.0,0.0,0.0,0.0,0.0,0.0,0.0,0.0,0.0,0.0,0.0,0.0,0.0,0.0,0.0,0.0,0.0,0.0,0.0,0.0,0.0,0.0,0.0,0.0,-2.8957,-2.9806,-3.0656,-3.1347,-3.0558,-2.9787,-2.9049,0.0,0.0,0.0,0.0,0.0,0.0,0.0,0.0,0.0,-2.7567,-2.7882,-2.7993,-2.8764,-2.92,-2.9433,-2.9414,-2.9551,-2.9678,0.0,0.0,0.0,0.0,0.0,0.0,0.0,0.0,0.0,0.0,0.0,0.0,0.0,-3.2192,-3.1898,-3.2761,-3.4816,-3.6083,-3.5192,-3.5064,0.0,0.0,0.0,0.0,0.0,0.0,0.0,0.0,0.0,0.0,0.0,-3.0265,-2.9934,-2.9159,-2.9085,-2.9049,-2.9049,-2.8319,-2.7897,-2.786,-2.7145,-2.6778,-2.6722,-2.6722,-2.6512,-2.6153,-2.657,-2.6556,-2.623,-2.6568,-2.6691,-2.6691,-2.6742,-2.6759,-2.6759,-2.6793,-2.681,-2.681,-2.681,-2.6502,-2.6026,0.0,0.0,0.0,0.0,0.0,0.0,0.0,0.0,0.0,0.0,0.0,0.0,0.0,0.0,0.0,0.0,0.0,0.0,0.0,0.0,0.0,0.0,0.0,0.0,0.0,0.0,0.0,0.0,0.0,-2.7157,-2.7512,-2.9347,-3.0081,-2.9879,-3.0099,-3.0044,-2.9751,-2.9237,0.0,0.0,0.0,0.0,0.0,0.0,0.0,-2.5933,-2.6741,-2.7365,-2.7842,-2.8136,-2.8756,-2.9412,-2.9412,-2.9177,-2.8774,-2.8017,-2.7651,0.0,0.0,0.0,0.0,0.0,0.0,0.0,0.0,0.0,-2.8962,-3.0057,-3.0485,-3.0723,-3.1017,-3.221,-3.3036,-3.2742,0.0,0.0,0.0,0.0,0.0,0.0,0.0,0.0,0.0,0.0,0.0,0.0,0.0,-2.931,-2.9012,-2.8994,-2.8778,-2.8246,-2.7952,-2.7548,-2.7034,-2.6741,-2.6612,-2.6612,-2.6385,-2.6191,-2.6074,-2.5791,-2.5854,-2.6147,-2.5544,-2.5812,-2.6691,-2.6691,-2.6691,-2.6691,-2.6691,-2.6691,-2.6657,-2.6367,-2.6139,-2.5888,0.0,0.0,0.0,0.0,0.0,0.0,0.0,0.0,0.0,0.0,0.0,0.0,0.0,0.0,0.0,0.0,0.0,0.0,0.0,0.0,0.0,0.0,0.0,0.0,0.0,0.0,0.0,0.0,0.0,0.0,0.0,0.0,-2.9512,-2.9012,-2.9567,-2.9806,0.0,0.0,0.0,-2.8902,0.0,0.0,-2.6979,0.0,0.0,-2.5897,-2.6704,-2.7163,-2.7402,-2.7402,-2.7862,-2.8507,-2.8767,-2.8593,-2.8016,-2.6749,0.0,0.0,0.0,0.0,0.0,0.0,0.0,0.0,0.0,0.0,-2.7218,-2.8044,-2.8631,-2.8998,-2.8998,-2.942,-3.0044,-3.087,0.0,0.0,0.0,0.0,0.0,0.0,0.0,0.0,0.0,0.0,0.0,0.0,0.0,0.0,-2.7876,-2.8106,-2.7761,-2.6695,-2.6659,-2.6277,-2.5455,-2.5455,-2.5455,-2.5455,-2.5239,-2.5129,-2.5123,-2.484,-2.4958,-2.5386,-2.476,-2.5353,-2.6674,-2.642,-2.6471,-2.6691,-2.6691,-2.6691,-2.6657,-2.6191,-2.5888,-2.5615,0.0,0.0,0.0,0.0,0.0,0.0,0.0,0.0,0.0,0.0,0.0,0.0,0.0,0.0,0.0,0.0,0.0,0.0,0.0,0.0,0.0,0.0,0.0,0.0,0.0,0.0,0.0,0.0,0.0,0.0,0.0,0.0,-2.8994,0.0,-2.8994,-2.8994,-2.8994,0.0,-2.8994,-2.8847,0.0,-2.709,-2.7677,0.0,0.0,-2.6631,-2.7402,-2.72,-2.6557,-2.6557,0.0,0.0,0.0,0.0,0.0,0.0,0.0,0.0,0.0,0.0,0.0,0.0,0.0,0.0,0.0,0.0,-2.5605,-2.6374,-2.6557,-2.6557,-2.6557,-2.6594,-2.7383,0.0,0.0,0.0,0.0,0.0,0.0,0.0,0.0,0.0,0.0,0.0,0.0,0.0,-2.6304,-2.6428,-2.562,-2.6322,-2.5994,-2.4453,-2.4382,-2.3992,-2.3206,-2.3189,-2.3189,-2.3189,-2.3189,-2.3189,-2.32,-2.3659,-2.388,-2.3922,-2.4283,-2.5253,-2.6573,-2.5862,-2.5998,-2.6657,-2.6657,-2.6674,-2.6657,-2.6156,-2.5652,-2.5144,0.0,0.0,0.0,0.0,0.0,0.0,0.0,0.0,0.0,0.0,0.0,0.0,0.0,0.0,0.0,0.0,0.0,0.0,0.0,0.0,0.0,0.0,0.0,0.0,0.0,0.0,0.0,0.0,0.0,0.0,0.0,0.0,0.0,0.0,-2.8994,-2.8994,-2.8994,-2.8994,0.0,-2.8902,-2.7879,-2.7255,0.0,0.0,0.0,0.0,-2.5126,-2.5419,-2.5713,-2.5713,-2.6591,-2.762,0.0,0.0,0.0,0.0,0.0,0.0,-2.4318,0.0,0.0,0.0,0.0,0.0,0.0,0.0,0.0,-2.4814,-2.5328,-2.5713,-2.5713,-2.6209,0.0,0.0,0.0,0.0,0.0,0.0,0.0,0.0,0.0,0.0,0.0,0.0,0.0,0.0,-2.5496,-2.5833,-2.5603,-2.5258,-2.486,-2.4399,-2.385,-2.3443,-2.3189,-2.3189,-2.3189,-2.3189,-2.2947,-2.2848,-2.2822,-2.275,-2.3028,-2.3505,-2.3112,-2.3748,-2.5067,-2.4881,-2.5236,-2.5913,-2.5913,-2.6234,-2.6624,-2.5762,-2.5335,-2.5003,0.0,0.0,0.0,0.0,0.0,0.0,0.0,0.0,0.0,0.0,0.0,0.0,0.0,0.0,0.0,0.0,0.0,0.0,0.0,0.0,0.0,0.0,0.0,0.0,0.0,0.0,0.0,0.0,0.0,0.0,0.0,0.0,0.0,0.0,0.0,0.0,0.0,0.0,0.0,0.0,-2.7769,0.0,0.0,-2.6209,-2.5603,0.0,0.0,0.0,-2.5786,-2.5126,-2.6055,0.0,0.0,0.0,0.0,0.0,0.0,0.0,0.0,0.0,0.0,0.0,0.0,0.0,-2.3976,-2.3996,-2.4016,0.0,-2.4557,-2.4887,-2.4887,0.0,0.0,0.0,0.0,0.0,0.0,0.0,0.0,0.0,0.0,0.0,0.0,-2.4102,-2.4034,-2.3545,-2.4234,-2.4679,-2.4679,-2.3955,-2.3511,-2.3511,-2.3076,-2.2824,-2.2824,-2.2824,-2.2824,-2.2824,-2.2616,-2.2537,-2.2527,-2.236,-2.2547,-2.2919,-2.2496,-2.2801,-2.3579,-2.3579,-2.4188,-2.5135,-2.5135,-2.5445,-2.5813,-2.5049,-2.4773,-2.4689,0.0,0.0,0.0,0.0,0.0,0.0,0.0,0.0,0.0,0.0,0.0,0.0,0.0,0.0,0.0,0.0,0.0,0.0,0.0,0.0,0.0,0.0,0.0,0.0,0.0,0.0,0.0,0.0,0.0,0.0,0.0,0.0,0.0,0.0,0.0,0.0,0.0,0.0,0.0,-2.8737,-2.731,-2.7108,0.0,0.0,-2.641,-2.6337,-2.6337,-2.6337,-2.6135,-2.4795,-2.5273,0.0,0.0,0.0,0.0,0.0,-2.4814,0.0,0.0,0.0,0.0,0.0,0.0,0.0,-2.361,-2.3692,-2.3795,-2.4113,-2.419,-2.419,-2.419,0.0,0.0,0.0,0.0,0.0,0.0,0.0,0.0,0.0,0.0,0.0,-2.3141,-2.2634,-2.231,-2.231,-2.2919,-2.3274,-2.3274,-2.2665,-2.231,-2.231,-2.231,-2.231,-2.231,-2.231,-2.231,-2.231,-2.231,-2.231,-2.231,-2.231,-2.2282,-2.2209,-2.2209,-2.2209,-2.2152,-2.2152,-2.3017,-2.4357,-2.4326,-2.4445,-2.4638,-2.4184,-2.4115,-2.4091,0.0,0.0,0.0,0.0,0.0,0.0,0.0,0.0,0.0,0.0,0.0,0.0,0.0,0.0,0.0,0.0,0.0,0.0,0.0,0.0,0.0,0.0,0.0,0.0,0.0,0.0,0.0,0.0,0.0,0.0,0.0,0.0,0.0,0.0,0.0,0.0,0.0,0.0,0.0,-2.8007,-2.7695,-2.7273,-2.6759,-2.5933,-2.5217,-2.4667,-2.4667,-2.4667,-2.4722,-2.5034,-2.5384,-2.5713,0.0,0.0,0.0,-2.5458,0.0,0.0,0.0,0.0,0.0,0.0,0.0,0.0,-2.361,-2.3692,-2.3795,0.0,-2.419,-2.419,-2.419,0.0,0.0,0.0,0.0,0.0,0.0,0.0,0.0,0.0,0.0,0.0,-2.2822,-2.249,-2.231,-2.231,-2.2446,-2.2513,-2.2513,-2.2395,-2.231,-2.231,-2.231,-2.231,-2.231,-2.231,-2.231,-2.231,-2.231,-2.231,-2.231,-2.231,-2.2106,-2.1718,-2.1718,-2.1538,-2.126,-2.126,-2.2186,-2.3583,-2.3195,-2.3455,-2.4032,-2.366,-2.3219,-2.2802,0.0,0.0,0.0,0.0,0.0,0.0,0.0,0.0,0.0,0.0,0.0,0.0,0.0,0.0,0.0,0.0,0.0,0.0,0.0,0.0,0.0,0.0,0.0,0.0,0.0,0.0,0.0,0.0,0.0,0.0,0.0,0.0,0.0,0.0,0.0,0.0,0.0,0.0,-2.8778,-2.8338,-2.753,0.0,-2.5915,-2.5107,-2.4538,-2.419,-2.419,-2.419,-2.4318,-2.5146,-2.5678,0.0,-2.5988,-2.5988,-2.5915,0.0,-2.4716,-2.3917,0.0,0.0,0.0,-2.2996,0.0,0.0,0.0,-2.3189,-2.3346,-2.3855,-2.3937,-2.3996,-2.417,0.0,-2.419,0.0,0.0,0.0,0.0,0.0,0.0,0.0,0.0,0.0,-2.2972,-2.2678,-2.2436,-2.231,-2.231,-2.231,-2.231,-2.231,-2.231,-2.231,-2.231,-2.231,-2.231,-2.231,-2.231,-2.231,-2.231,-2.218,-2.1957,-2.1957,-2.1705,-2.1306,-2.1306,-2.1181,-2.0991,-2.0991,-2.1471,-2.2172,-2.1937,-2.2167,-2.2572,-2.2405,-2.2224,-2.2132,0.0,0.0,0.0,0.0,0.0,0.0,0.0,0.0,0.0,0.0,0.0,0.0,0.0,0.0,0.0,0.0,0.0,0.0,0.0,0.0,0.0,0.0,0.0,-2.8264,0.0,0.0,0.0,0.0,0.0,0.0,0.0,0.0,0.0,0.0,0.0,0.0,0.0,0.0,0.0,-2.8407,0.0,-2.63,-2.577,-2.4795,-2.4428,-2.441,-2.4263,-2.419,-2.4318,-2.5146,-2.5823,-2.6319,-2.5952,-2.6098,0.0,0.0,0.0,0.0,0.0,0.0,0.0,0.0,0.0,-2.2388,0.0,0.0,0.0,-2.3477,0.0,0.0,0.0,0.0,0.0,0.0,0.0,0.0,0.0,0.0,0.0,0.0,0.0,0.0,0.0,-2.2947,-2.2573,-2.2321,-2.231,-2.231,-2.231,-2.231,-2.231,-2.231,-2.231,-2.231,-2.231,-2.231,-2.231,-2.231,-2.231,-2.2032,-2.1582,-2.1582,-2.1337,-2.0862,-2.0862,-2.0829,-2.0731,-2.0731,-2.0731,-2.078,-2.0829,-2.0962,-2.1115,-2.1162,-2.1242,-2.1425,0.0,0.0,0.0,0.0,0.0,0.0,0.0,0.0,0.0,0.0,0.0,0.0,0.0,0.0,0.0,0.0,0.0,0.0,-2.9916,0.0,0.0,0.0,0.0,0.0,-2.7952,0.0,0.0,0.0,0.0,0.0,0.0,0.0,0.0,0.0,-2.8209,0.0,0.0,0.0,-2.753,0.0,-2.6686,-2.6979,0.0,-2.5844,-2.5274,-2.5182,-2.4447,-2.419,-2.4318,0.0,-2.5458,-2.577,0.0,-2.6594,-2.5658,-2.6282,0.0,0.0,0.0,0.0,0.0,0.0,-2.25,0.0,-2.3014,0.0,-2.2822,-2.3165,0.0,0.0,0.0,0.0,0.0,0.0,0.0,0.0,-2.3254,0.0,0.0,0.0,0.0,0.0,0.0,-2.3069,-2.2573,-2.2321,-2.231,-2.231,-2.231,-2.231,-2.231,-2.231,-2.231,-2.231,-2.231,-2.231,-2.231,-2.231,-2.231,-2.2032,-2.1582,-2.1582,-2.1165,-2.0382,-2.0382,-2.0193,-1.9854,-1.9854,-1.9854,-1.9874,-2.0227,-2.0395,-2.0431,-2.0676,-2.04,-2.0094,0.0,0.0,0.0,0.0,0.0,0.0,0.0,0.0,0.0,0.0,0.0,0.0,0.0,0.0,0.0,0.0,0.0,-2.7915,-2.942,0.0,0.0,0.0,0.0,0.0,0.0,0.0,0.0,0.0,-2.8994,0.0,0.0,0.0,0.0,0.0,-2.7952,0.0,-2.7622,0.0,-2.7603,0.0,0.0,0.0,0.0,-2.5474,-2.4685,-2.4649,-2.4318,-2.419,-2.4245,0.0,-2.5309,0.0,0.0,0.0,0.0,-2.5511,0.0,0.0,0.0,0.0,0.0,0.0,0.0,0.0,-2.266,0.0,-2.2554,0.0,0.0,0.0,0.0,0.0,0.0,0.0,-2.3757,0.0,0.0,0.0,-2.419,0.0,0.0,0.0,0.0,0.0,0.0,0.0,-2.2388,-2.231,-2.231,-2.231,-2.231,-2.231,-2.231,-2.231,-2.231,-2.2032,-2.1899,-2.1899,-2.1645,-2.1306,-2.083,-2.083,-2.0516,-1.9929,-1.9929,-1.9839,-1.969,-1.969,-1.969,-1.9711,-1.9874,-1.9929,-1.9975,-2.0077,-1.9929,-1.9824,0.0,0.0,0.0,0.0,0.0,0.0,0.0,0.0,0.0,0.0,0.0,0.0,-2.8686,-2.9072,-2.9347,-2.9347,-2.8594,-2.8466,-2.9292,0.0,-2.786,0.0,0.0,0.0,0.0,0.0,0.0,0.0,0.0,0.0,0.0,0.0,0.0,0.0,0.0,-2.7475,-2.6961,0.0,-2.7328,-2.7126,-2.7126,-2.6955,-2.6527,-2.5087,-2.4392,-2.419,-2.419,-2.419,-2.4226,-2.4447,-2.5309,0.0,-2.5162,0.0,-2.6796,0.0,0.0,0.0,-2.4559,0.0,0.0,0.0,0.0,0.0,0.0,0.0,0.0,0.0,0.0,0.0,0.0,0.0,0.0,0.0,0.0,-2.4116,0.0,0.0,0.0,0.0,0.0,0.0,0.0,0.0,0.0,-2.2695,-2.2527,-2.2388,-2.231,-2.231,-2.2237,-2.2106,-2.2106,-2.2049,-2.1945,-2.1615,-2.143,-2.143,-2.115,-2.0764,-2.0314,-2.0314,-2.0089,-1.969,-1.969,-1.969,-1.969,-1.969,-1.969,-1.969,-1.969,-1.969,-1.969,-1.969,-1.969,-1.975,-2.5022,-2.4998,0.0,0.0,0.0,0.0,0.0,0.0,0.0,0.0,0.0,0.0,-2.7842,-2.9237,-3.0173,-3.0173,-2.9439,-2.931,-3.0118,0.0,-2.7108,0.0,0.0,-2.826,-2.6722,0.0,0.0,0.0,0.0,0.0,0.0,0.0,0.0,0.0,0.0,-2.7787,-2.7714,-2.6961,-2.619,-2.5495,-2.5495,-2.4819,-2.3934,0.0,-2.4869,-2.419,-2.419,0.0,0.0,-2.5109,-2.5403,0.0,0.0,0.0,0.0,0.0,0.0,0.0,0.0,0.0,0.0,-2.3224,0.0,0.0,0.0,0.0,-2.231,0.0,0.0,0.0,0.0,0.0,0.0,0.0,0.0,0.0,0.0,0.0,0.0,0.0,0.0,0.0,0.0,0.0,0.0,-2.2746,-2.2695,-2.2573,-2.2293,-2.231,-2.2106,-2.1658,-2.1612,-2.143,-2.1039,-2.1039,-2.1023,-2.1023,-2.1007,-2.0764,-2.0314,-2.0314,-2.0089,-1.969,-1.969,-1.969,-1.969,-1.969,-1.969,-1.969,-1.969,-1.969,-1.969,-1.969,-1.969,-1.969,0.0,0.0,0.0,0.0,0.0,0.0,0.0,-2.6428,0.0,0.0,-2.9986,0.0,-3.1964,-3.19,-3.1806,-3.1806,-3.0577,-3.0136,-3.0944,-2.9989,-2.8906,-2.7842,-2.9072,-2.9035,-2.742,0.0,0.0,0.0,0.0,0.0,0.0,0.0,0.0,0.0,0.0,-2.7493,0.0,0.0,0.0,0.0,0.0,-2.5017,-2.4406,0.0,-2.4112,-2.3876,-2.3876,-2.4016,0.0,-2.4502,-2.4962,-2.5366,-2.5089,-2.5566,-2.597,-2.4905,-2.4699,0.0,0.0,0.0,-2.388,-2.3963,0.0,0.0,0.0,0.0,0.0,0.0,0.0,0.0,0.0,0.0,0.0,0.0,0.0,0.0,0.0,0.0,0.0,0.0,0.0,0.0,0.0,0.0,0.0,-2.3021,-2.2669,-2.2415,-2.231,-2.231,-2.2077,-2.1612,-2.1582,-2.1399,-2.0991,-2.0682,-2.055,-2.0516,-2.0277,-2.005,-1.9909,-1.9909,-1.9854,-1.969,-1.969,-1.969,-1.969,-1.969,-1.969,-1.969,-1.969,-1.969,-1.969,-1.969,-1.969,-1.969,-2.5293,0.0,0.0,0.0,0.0,0.0,0.0,0.0,0.0,0.0,-3.1678,0.0,-3.4134,0.0,-3.3036,-3.3036,-3.2082,-3.1458,-3.1384,-3.0907,-3.0008,-2.8631,-2.9347,-2.9017,-2.7402,-2.8172,0.0,0.0,0.0,-2.8994,0.0,0.0,0.0,0.0,0.0,-2.7622,-2.6612,-2.6612,-2.597,0.0,0.0,-2.4741,0.0,0.0,-2.3873,-2.4071,0.0,-2.4016,-2.419,-2.419,-2.4538,-2.4869,-2.4355,-2.4905,-2.5548,-2.4502,-2.4557,-2.4961,-2.4961,-2.4575,0.0,-2.4167,-2.3766,0.0,-2.2947,0.0,-2.2873,0.0,0.0,0.0,0.0,0.0,0.0,0.0,0.0,0.0,0.0,-2.4094,0.0,0.0,0.0,0.0,0.0,0.0,-2.3045,-2.3021,-2.2669,-2.2398,0.0,0.0,-2.2003,-2.1399,-2.1399,-2.1118,-2.0532,-2.0227,-2.0089,-2.0089,-1.9803,-1.969,-1.969,-1.969,-1.969,-1.969,-1.969,-1.969,-1.969,-1.969,-1.969,-1.969,-1.969,-1.969,-1.969,-1.969,-1.969,-1.969,-2.5313,0.0,0.0,0.0,-2.5644,0.0,0.0,0.0,-3.1388,0.0,-3.2837,-3.3545,-3.4423,-3.4123,-3.3862,-3.3862,-3.3825,-3.3128,-3.1549,-3.1458,0.0,-2.7952,-2.8594,-2.8242,-2.6649,-2.7383,-2.7787,0.0,0.0,0.0,0.0,0.0,0.0,0.0,-2.8994,0.0,-2.6612,-2.6612,-2.5676,-2.419,-2.419,-2.4014,-2.3747,-2.3732,-2.4158,-2.4748,-2.4346,-2.419,-2.419,-2.419,-2.419,-2.419,-2.419,-2.419,-2.419,-2.419,-2.419,-2.419,-2.419,-2.419,-2.4113,-2.3795,0.0,0.0,0.0,0.0,-2.3189,0.0,0.0,0.0,0.0,0.0,0.0,0.0,0.0,0.0,0.0,0.0,0.0,0.0,0.0,0.0,0.0,-2.303,-2.3392,-2.2746,-2.2695,-2.2563,0.0,0.0,-2.1915,-2.1071,-2.0991,-2.0599,-1.9747,-1.9726,-1.969,-1.969,-1.969,-1.969,-1.969,-1.969,-1.969,-1.969,-1.969,-1.969,-1.969,-1.969,-1.969,-1.969,-1.969,-1.969,-1.969,-1.969,-1.969,-1.969,-2.5293,-2.5832,-2.6194,0.0,-2.6771,-2.7574,0.0,0.0,0.0,0.0,-3.467,-3.5497,-3.7171,-3.5769,-3.4679,-3.4679,-3.4156,0.0,0.0,0.0,0.0,-2.8815,-2.8906,-2.8242,-2.6649,-2.7383,-2.7787,-2.7787,0.0,0.0,-2.8994,0.0,0.0,0.0,0.0,0.0,-2.6612,-2.6612,-2.5676,-2.419,-2.419,-2.434,0.0,0.0,-2.4366,-2.4707,-2.4064,-2.3996,-2.419,-2.419,-2.419,-2.419,-2.419,-2.419,-2.419,-2.419,-2.419,-2.419,-2.419,-2.419,-2.4113,-2.3795,-2.3692,-2.3671,0.0,0.0,0.0,0.0,0.0,0.0,0.0,0.0,0.0,0.0,0.0,0.0,0.0,0.0,0.0,-2.254,0.0,-2.2718,-2.287,-2.3152,-2.3141,-2.2721,-2.2527,-2.236,-2.231,0.0,0.0,-2.146,-2.115,-2.0731,-2.0158,-1.9839,-1.969,-1.969,-1.969,-1.969,-1.969,-1.969,-1.969,-1.969,-1.969,-1.969,-1.969,-1.969,-1.969,-1.969,-1.969,-1.969,-1.969,-1.969,-1.969,-1.9639,-2.5794,-2.6563,0.0,-2.7481,0.0,0.0,-2.9178,-3.1206,0.0,-3.5055,-3.5287,0.0,-3.7807,-3.6133,-3.4797,-3.467,-3.3906,0.0,-3.2137,0.0,0.0,-2.9067,-2.8315,-2.7365,-2.6098,-2.6521,-2.6906,-2.7273,0.0,0.0,-2.8994,0.0,0.0,0.0,0.0,-2.8301,-2.709,-2.6374,-2.5548,-2.4685,-2.4337,-2.4348,0.0,-2.4296,-2.4328,-2.4493,-2.406,-2.4036,-2.419,-2.419,-2.419,-2.419,-2.419,-2.419,-2.419,-2.419,-2.419,-2.419,-2.419,-2.419,-2.4151,-2.3976,-2.3917,-2.3917,-2.3917,-2.3774,-2.3692,0.0,0.0,0.0,0.0,0.0,0.0,0.0,0.0,0.0,0.0,0.0,0.0,0.0,-2.2459,0.0,-2.2961,-2.2698,-2.2573,-2.2721,-2.248,-2.231,0.0,0.0,0.0,-2.1368,-2.1118,-2.0698,-2.0019,-1.9803,-1.969,-1.969,-1.969,-1.969,-1.969,-1.969,-1.969,-1.969,-1.969,-1.969,-1.969,-1.969,-1.969,-1.969,-1.969,-1.969,-1.969,-1.9442,-1.9479,-1.9603,-2.6641,0.0,0.0,0.0,0.0,0.0,0.0,-3.2045,0.0,-3.5315,0.0,-3.5639,-3.7032,-3.5495,-3.4233,-3.3952,-3.3276,-3.2381,-3.1231,-3.0483,-2.9687,-2.8768,-2.7276,-2.6117,-2.5421,-2.5403,-2.5786,-2.6612,-2.7402,-2.8209,0.0,0.0,0.0,0.0,0.0,0.0,0.0,-2.6046,-2.5348,-2.5182,-2.4483,-2.419,-2.419,-2.419,-2.419,-2.419,-2.419,-2.419,-2.419,-2.419,-2.419,-2.419,-2.419,-2.419,-2.419,-2.419,-2.419,-2.419,-2.419,-2.419,-2.419,-2.419,-2.419,-2.419,-2.419,-2.417,-2.4151,-2.419,-2.417,-2.4151,0.0,0.0,0.0,0.0,0.0,0.0,0.0,0.0,0.0,0.0,0.0,0.0,-2.278,-2.2181,-2.2094,-2.2738,-2.248,-2.231,0.0,0.0,0.0,-2.1086,-2.1039,-2.0646,-1.9918,0.0,-1.9735,-1.9824,-1.9735,-1.969,-1.969,-1.969,-1.969,-1.969,-1.969,-1.969,-1.969,-1.969,-1.969,-1.969,-1.969,-1.969,-1.9639,-1.9169,-1.9244,-1.953,-2.7602,0.0,0.0,0.0,0.0,-3.1686,-3.2308,-3.3916,-3.5161,-3.5468,-3.5273,-3.5219,-3.5505,-3.3752,-3.2542,-3.2464,-3.2332,0.0,0.0,0.0,0.0,-2.7342,-2.6202,-2.555,-2.5403,-2.5403,-2.5786,-2.6612,-2.7402,-2.8209,0.0,0.0,0.0,0.0,0.0,0.0,-2.6759,-2.5786,0.0,-2.4392,-2.4263,-2.419,-2.419,-2.419,-2.419,-2.419,-2.419,-2.419,-2.419,-2.419,-2.419,-2.419,-2.419,-2.419,-2.419,-2.419,-2.419,-2.419,-2.419,-2.419,-2.419,-2.419,-2.419,-2.419,-2.419,-2.3996,-2.3876,-2.4151,-2.3976,-2.3876,-2.4151,0.0,0.0,0.0,0.0,0.0,0.0,0.0,0.0,0.0,0.0,-2.2216,0.0,-2.2994,-2.2856,-2.2721,-2.248,-2.231,0.0,0.0,0.0,0.0,-2.1181,0.0,0.0,0.0,-1.9974,-2.0528,-1.9959,-1.969,-1.969,-1.969,-1.969,-1.969,-1.969,-1.969,-1.969,-1.969,-1.969,-1.969,-1.969,-1.969,-1.969,-1.9603,-1.9332,-1.8893,-2.8652,0.0,0.0,0.0,0.0,0.0,0.0,-3.3333,-3.4314,-3.4776,-3.4309,-3.3963,-3.3963,-3.3089,-3.2292,-3.1739,-3.1305,-3.0461,-2.9075,-2.8143,-2.7266,-2.6461,-2.557,-2.5038,-2.4949,-2.4931,-2.5484,-2.6612,-2.7089,-2.792,0.0,0.0,0.0,0.0,0.0,-2.7952,0.0,0.0,0.0,-2.4777,-2.4373,-2.419,-2.419,-2.419,-2.419,-2.419,-2.419,-2.419,-2.419,-2.419,-2.419,-2.419,-2.419,-2.419,-2.419,-2.419,-2.419,-2.419,-2.419,-2.419,-2.419,-2.419,-2.419,-2.419,-2.419,-2.4074,-2.3996,-2.417,-2.4074,-2.4016,-2.417,-2.4074,0.0,0.0,0.0,0.0,0.0,0.0,-2.266,0.0,0.0,0.0,0.0,0.0,0.0,0.0,0.0,-2.231,0.0,0.0,0.0,0.0,0.0,0.0,0.0,0.0,0.0,-2.0183,-1.9839,-1.969,-1.969,-1.969,-1.969,-1.969,-1.969,-1.969,-1.969,-1.969,-1.969,-1.969,-1.969,-1.953,-1.9244,-1.8968,-1.8535,-1.8027,0.0,-3.0343,0.0,0.0,-3.1152,-3.1727,-3.1727,-3.2261,-3.2949,-3.3814,-3.3179,-3.2641,-3.2641,-3.2314,-3.1744,-3.0906,-3.0109,-2.916,-2.8104,-2.6794,-2.5985,-2.5815,-2.5144,-2.4731,-2.4578,-2.4559,-2.5185,-2.6462,-2.6786,-2.7511,0.0,0.0,0.0,0.0,0.0,0.0,0.0,0.0,-2.5311,-2.509,-2.4447,-2.419,-2.419,-2.419,-2.419,-2.419,-2.419,-2.419,-2.419,-2.419,-2.419,-2.419,-2.419,-2.419,-2.419,-2.419,-2.419,-2.419,-2.419,-2.419,-2.419,-2.419,-2.419,-2.419,-2.419,-2.419,-2.419,-2.419,-2.419,-2.419,-2.419,-2.3996,0.0,0.0,0.0,0.0,0.0,0.0,-2.2772,0.0,0.0,0.0,-2.3692,0.0,0.0,0.0,0.0,-2.231,-2.231,-2.231,-2.1915,0.0,0.0,-2.0644,-1.9899,0.0,-1.975,0.0,-1.975,-1.969,-1.969,-1.969,-1.969,-1.969,-1.969,-1.969,-1.969,-1.969,-1.969,-1.969,-1.969,-1.9442,-1.9006,-1.8458,-1.7947,-1.7504,0.0,0.0,0.0,0.0,0.0,0.0,-3.1797,-3.181,-3.2102,-3.291,-3.2314,-3.1814,-3.1814,-3.039,-2.9429,-2.9321,-2.856,-2.7734,-2.6828,-2.6453,-2.5907,-2.5126,-2.4907,-2.479,-2.4775,-2.4775,-2.5179,-2.6054,-2.6817,-2.715,-2.712,0.0,0.0,0.0,0.0,0.0,0.0,-2.5458,-2.498,-2.43,-2.4226,-2.419,-2.419,-2.419,-2.419,-2.419,-2.419,-2.419,-2.419,-2.419,-2.419,-2.419,-2.419,-2.419,-2.419,-2.419,-2.419,-2.419,-2.419,-2.419,-2.419,-2.419,-2.419,-2.419,-2.419,-2.419,-2.419,-2.419,-2.419,-2.419,-2.419,-2.417,-2.4036,0.0,0.0,0.0,0.0,0.0,-2.3045,-2.2746,0.0,0.0,0.0,-2.3392,0.0,0.0,-2.2634,-2.231,-2.231,-2.231,-2.1915,-2.1039,0.0,-2.0879,-2.0617,-1.9989,-2.0004,-2.0617,-1.9989,-1.969,-1.969,-1.969,-1.969,-1.969,-1.969,-1.969,-1.969,-1.969,-1.969,-1.969,-1.969,-1.969,-1.9566,-1.9006,-1.8496,-1.7947,0.0,0.0,0.0,0.0,0.0,0.0,0.0,-3.0585,-3.0355,-3.0587,-3.0333,-3.014,-3.014,-2.9083,-2.8371,-2.8371,-2.7601,-2.6967,-2.6621,-2.603,-2.5538,-2.5192,-2.5138,-2.5037,-2.493,-2.493,-2.5281,0.0,0.0,-2.7547,-2.7825,-2.864,0.0,0.0,0.0,-2.6009,-2.5384,-2.4869,-2.4483,-2.419,-2.419,-2.419,-2.419,-2.419,-2.419,-2.419,-2.419,-2.419,-2.419,-2.419,-2.419,-2.419,-2.419,-2.419,-2.419,-2.419,-2.419,-2.419,-2.419,-2.419,-2.419,-2.419,-2.419,-2.419,-2.419,-2.419,-2.419,-2.419,-2.419,-2.419,-2.419,-2.419,-2.4094,0.0,0.0,0.0,0.0,0.0,0.0,-2.3323,0.0,-2.3917,0.0,0.0,0.0,0.0,0.0,-2.218,-2.1899,-2.1899,-2.146,-2.0616,0.0,-2.0435,-2.0094,-1.9824,-1.9824,-2.0094,-1.9824,-1.969,-1.969,-1.969,-1.969,-1.969,-1.969,-1.969,-1.969,-1.969,-1.969,-1.969,-1.969,-1.9332,-1.8688,-1.8496,-1.7867,-1.7118,-3.1249,0.0,-3.1053,0.0,-3.0453,-3.0267,-3.0212,-2.9272,-2.8625,-2.8772,-2.8367,-2.8222,-2.869,-2.8005,-2.7525,-2.7525,-2.6717,-2.6217,-2.6217,-2.563,-2.5303,-2.5303,-2.5303,0.0,-2.5088,-2.5088,-2.5316,-2.5801,-2.6804,-2.7331,-2.7415,0.0,0.0,0.0,-2.5741,-2.5274,-2.5017,-2.4428,-2.419,-2.419,-2.419,-2.419,-2.419,-2.419,-2.419,-2.419,-2.419,-2.419,-2.419,-2.419,-2.419,-2.419,-2.419,-2.419,-2.419,-2.419,-2.419,-2.419,-2.419,-2.419,-2.419,-2.419,-2.419,-2.419,-2.419,-2.419,-2.419,-2.419,-2.419,-2.419,-2.419,-2.419,-2.4113,-2.3896,0.0,0.0,0.0,-2.3649,0.0,-2.3714,-2.3917,-2.3976,-2.3714,-2.3323,0.0,0.0,0.0,0.0,-2.1628,-2.1582,0.0,0.0,0.0,0.0,0.0,-1.969,-1.969,-1.969,-1.969,-1.969,-1.969,-1.969,-1.969,-1.969,-1.969,-1.969,-1.969,-1.969,-1.969,-1.969,-1.969,-1.9132,-1.8341,-1.8185,-1.7504,-1.671,-3.2163,-3.2085,-3.1914,-3.1055,-3.0128,-2.95,-2.95,-2.7994,-2.7146,-2.7995,-2.6607,-2.6146,-2.7748,-2.714,-2.6621,-2.6621,-2.5832,-2.5322,-2.5322,-2.5303,-2.5303,0.0,0.0,-2.5303,-2.5303,-2.5303,-2.5303,-2.5303,0.0,0.0,-2.5056,0.0,-2.5725,-2.5707,-2.5483,-2.4962,-2.4208,-2.419,-2.419,-2.419,-2.419,-2.419,-2.419,-2.419,-2.419,-2.419,-2.419,-2.419,-2.419,-2.419,-2.419,-2.419,-2.419,-2.419,-2.419,-2.419,-2.419,-2.419,-2.419,-2.419,-2.419,-2.419,-2.419,-2.419,-2.419,-2.419,-2.419,-2.419,-2.419,-2.419,-2.419,-2.419,-2.419,-2.419,0.0,0.0,0.0,-2.3996,0.0,-2.3735,-2.3692,-2.3692,-2.3692,-2.3093,0.0,0.0,0.0,0.0,0.0,0.0,0.0,-2.0348,-2.0314,0.0,-1.9711,-1.969,-1.969,-1.969,-1.969,-1.969,-1.969,-1.969,-1.969,-1.969,-1.969,-1.969,-1.969,-1.969,-1.969,-1.969,-1.969,-1.9369,-1.8817,-1.8302,-1.7747,-1.7188,-3.1152,-3.1153,-3.1125,-3.0937,-3.0644,-3.0248,-2.9603,-2.8557,-2.7688,-2.7279,-2.626,-2.5753,-2.6204,-2.5979,-2.5751,0.0,-2.5457,-2.5303,0.0,-2.5303,-2.5303,-2.5303,-2.5303,-2.5303,-2.5303,-2.5303,-2.5303,-2.5303,0.0,0.0,0.0,-2.6097,-2.5797,-2.5215,-2.5061,-2.4769,-2.4409,-2.4561,-2.4444,-2.4209,-2.4339,-2.4321,-2.419,-2.419,-2.419,-2.419,-2.419,-2.419,-2.4228,-2.4357,-2.4321,-2.4228,-2.4357,-2.4321,-2.419,-2.419,-2.419,-2.419,-2.419,-2.419,-2.419,-2.419,-2.419,-2.419,-2.419,-2.419,-2.419,-2.419,-2.419,-2.419,-2.419,-2.419,-2.419,-2.419,-2.419,0.0,-2.4054,0.0,-2.417,-2.4036,-2.3837,-2.361,-2.3392,-2.2972,0.0,0.0,0.0,0.0,0.0,0.0,0.0,0.0,-1.9909,0.0,-1.969,-1.969,-1.969,-1.969,-1.969,-1.969,-1.969,-1.969,-1.969,-1.969,-1.969,-1.969,-1.969,-1.969,-1.969,-1.9639,-1.9281,-1.8817,-1.8302,-1.7747,-1.7229,-1.671,-3.0617,-3.0673,-3.0721,-3.0814,-3.0605,-3.0214,-2.964,-2.8552,-2.7595,-2.6955,-2.6152,-2.5607,-2.5547,-2.5493,0.0,-2.5357,-2.5339,-2.5321,-2.5313,-2.5303,-2.5303,-2.5303,-2.5303,-2.5303,-2.5303,-2.5303,0.0,-2.5303,-2.5851,-2.612,-2.611,-2.5922,-2.5526,-2.4979,-2.4869,-2.4731,-2.4623,-2.4746,-2.4654,-2.4445,-2.4559,-2.4545,-2.4428,-2.4428,-2.4428,-2.4428,-2.4428,-2.4428,-2.4444,-2.4559,-2.4528,-2.4444,-2.4559,-2.4478,-2.4303,-2.4228,-2.419,-2.419,-2.419,-2.419,-2.419,-2.419,-2.419,-2.419,-2.419,-2.419,-2.419,-2.419,-2.419,-2.419,-2.419,-2.419,-2.419,-2.419,-2.419,-2.419,-2.419,0.0,-2.4151,0.0,0.0,0.0,0.0,-2.2738,-2.2473,0.0,0.0,0.0,0.0,0.0,0.0,-1.9711,-1.969,0.0,-1.969,-1.969,-1.969,-1.969,-1.969,-1.969,-1.969,-1.969,-1.969,-1.969,-1.969,-1.969,-1.969,-1.969,-1.969,-1.9639,-1.9132,-1.8574,-1.8027,-1.7504,-1.6951,-1.6522,-3.0498,-3.0606,-3.0687,0.0,-3.0129,0.0,-2.9609,-2.8164,-2.707,-2.7012,-2.623,-2.5682,-2.5607,-2.5605,-2.5554,-2.5428,0.0,0.0,0.0,-2.5303,-2.5293,-2.5303,-2.5303,-2.5303,-2.5303,-2.5303,-2.5303,-2.5303,-2.5303,-2.5303,-2.5303,-2.5099,-2.5022,-2.501,-2.4896,-2.4832,-2.4799,-2.4832,-2.4818,-2.4804,-2.4818,-2.4818,-2.4804,-2.4804,-2.4804,-2.4804,-2.4804,-2.4804,-2.4804,-2.4818,-2.4818,-2.4804,-2.4818,-2.467,-2.4461,-2.4266,-2.4209,-2.419,-2.419,-2.419,-2.419,-2.419,-2.419,-2.419,-2.419,-2.419,-2.419,-2.419,-2.419,-2.419,-2.419,-2.419,-2.419,-2.419,-2.419,-2.419,-2.419,0.0,-2.4054,0.0,0.0,0.0,0.0,-2.2463,-2.231,0.0,0.0,0.0,0.0,0.0,-2.0089,-1.9711,-1.969,-1.969,-1.969,-1.969,-1.969,-1.969,-1.969,-1.969,-1.9639,-1.9639,-1.9639,-1.9639,-1.9639,-1.969,-1.969,-1.969,-1.969,-1.9639,-1.908,-1.8535,-1.8027,-1.7463,-1.6909,-1.6509,0.0,0.0,-3.0561,-3.0603,-3.0524,-3.0238,-2.9613,-2.8649,-2.7754,-2.709,-2.623,-2.5683,-2.5683,-2.5682,-2.5637,-2.5558,-2.5517,-2.5453,-2.5387,-2.5387,-2.5354,-2.5293,-2.5303,-2.5303,-2.5303,-2.5303,-2.5303,-2.5303,-2.5303,-2.5303,-2.5303,-2.5253,-2.5224,-2.5224,-2.5212,-2.5096,-2.4962,-2.5126,-2.5024,-2.4818,-2.4917,-2.4891,-2.4804,-2.4804,-2.4804,-2.4804,-2.4804,-2.4804,-2.4818,-2.493,-2.4877,-2.4832,-2.493,-2.4752,-2.4495,-2.4444,-2.4321,-2.419,-2.419,-2.419,-2.419,-2.419,-2.419,-2.419,-2.419,-2.419,-2.419,-2.419,-2.419,-2.419,-2.419,-2.419,-2.419,-2.419,-2.419,-2.419,-2.419,-2.3976,0.0,0.0,-2.3165,-2.2797,-2.2721,-2.2463,-2.231,0.0,0.0,0.0,0.0,-2.0277,-1.9818,-1.969,-1.969,-1.969,-1.969,-1.969,-1.969,-1.969,-1.969,-1.9479,-1.9095,-1.9095,-1.9095,-1.9095,-1.9095,-1.9332,-1.969,-1.969,-1.969,-1.9603,-1.865,-1.8224,-1.7987,-1.7034,-1.6595,-1.6459,-3.0451,-3.0482,-3.0516,-3.0559,-3.0617,-3.0505,-3.0072,-2.9352,-2.8548,-2.7669,-2.6815,-2.6133,-2.5742,-2.5703,-2.5683,-2.5658,-2.5573,-2.5526,-2.5453,-2.5447,-2.5408,-2.5357,-2.5348,-2.5321,-2.5303,-2.5303,-2.5303,-2.5303,-2.5303,-2.5303,-2.5303,-2.5303,-2.5303,-2.5303,-2.5303,-2.5253,-2.5152,-2.5253,-2.5182,-2.5024,-2.5107,-2.5096,-2.5031,-2.5031,-2.5031,-2.5031,-2.5031,-2.5031,-2.5037,-2.5118,-2.5084,-2.5037,-2.5118,-2.4956,-2.4737,-2.4737,-2.4476,-2.419,-2.419,-2.419,-2.419,-2.419,-2.419,-2.419,-2.419,-2.419,-2.419,-2.419,-2.419,-2.419,-2.419,-2.419,-2.419,-2.419,-2.419,-2.4151,-2.3996,-2.3816,0.0,-2.3277,-2.2923,-2.266,-2.2527,-2.2388,-2.231,-2.231,-2.1493,0.0,-2.1422,-2.0615,-2.0004,-1.969,-1.969,-1.969,-1.969,-1.969,-1.969,-1.969,-1.9442,-1.9169,-1.8893,-1.865,-1.8535,-1.8535,-1.8535,-1.8688,-1.8968,-1.8968,-1.8968,-1.8893,-1.8066,-1.7747,-1.7626,-1.6795,-1.6522,-1.6434,-3.0398,-3.0451,-3.0472,-3.0472,-3.0545,-3.0587,-3.0587,-2.9849,-2.9026,-2.831,-2.7375,-2.6504,-2.5781,-2.5703,-2.5703,-2.5703,-2.5658,-2.5595,-2.5526,-2.5526,-2.5493,-2.5427,-2.5406,-2.5379,-2.5322,-2.5313,-2.5303,-2.5303,-2.5303,-2.5303,-2.5303,-2.5303,-2.5303,-2.5303,-2.5303,-2.5303,-2.5303,-2.5303,-2.5303,-2.5303,-2.5303,-2.5303,-2.5303,-2.5303,-2.5303,-2.5303,-2.5303,-2.5303,-2.5303,-2.5303,-2.5303,-2.5303,-2.5303,-2.5163,-2.501,-2.501,-2.4659,-2.4284,-2.4247,-2.4228,-2.419,-2.419,-2.419,-2.419,-2.419,-2.419,-2.419,-2.419,-2.419,-2.419,-2.419,-2.419,-2.419,-2.419,-2.419,-2.4074,-2.3753,0.0,-2.3392,-2.2772,-2.2643,-2.2563,-2.2321,-2.231,-2.231,-2.231,-2.1493,-2.1263,-2.1821,-2.1029,-2.0288,-1.9705,-1.9794,-1.9794,-1.969,-1.9603,-1.9566,-1.9566,-1.9132,-1.8817,-1.865,-1.8263,-1.8066,-1.7987,-1.7987,-1.8066,-1.8224,-1.8224,-1.8263,-1.8302,-1.7666,-1.7435,-1.734,-1.6621,-1.6396,-1.6308,-3.0398,-3.0402,-3.0425,-3.0425,-3.0463,-3.0524,-3.0524,-2.9266,-2.8286,-2.8207,-2.6813,-2.5792,-2.5703,-2.5703,-2.5703,-2.5703,-2.5683,-2.5659,-2.5595,-2.5573,-2.5554,-2.5498,-2.5428,-2.5406,-2.5383,-2.533,-2.5303,-2.5303,-2.5303,-2.5303,-2.5303,-2.5303,-2.5303,-2.5303,-2.5303,-2.5303,-2.5303,-2.5303,-2.5303,-2.5303,-2.5303,-2.5303,-2.5303,-2.5303,-2.5303,-2.5303,-2.5303,-2.5303,-2.5303,-2.5303,-2.5303,-2.5303,-2.5303,-2.5163,-2.501,-2.501,-2.4864,-2.467,-2.4495,-2.4339,-2.419,-2.419,-2.419,-2.419,-2.419,-2.419,-2.419,-2.419,-2.419,-2.419,-2.419,-2.419,-2.419,-2.419,-2.419,-2.4074,-2.3753,0.0,-2.3141,-2.2746,-2.25,-2.2349,-2.231,-2.231,-2.231,-2.231,-2.1493,-2.1055,-2.1151,-2.0343,-1.9794,-1.969,-2.0243,-2.0273,-1.9726,-1.9244,-1.9006,-1.9006,-1.893,-1.8419,-1.7544,-1.7947,-1.7867,-1.7435,-1.7435,-1.7947,-1.8779,-1.8779,-1.9043,-1.9369,-1.838,-1.7987,-1.7799,-1.634,-1.5819,-1.568,-3.0398,-3.0398,-3.0398,-3.0398,-3.0428,-3.0451,-3.0451,-2.9453,-2.8547,-2.8132,-2.7011,-2.6094,-2.5694,-2.5657,-2.566,-2.5703,-2.5703,-2.5683,-2.5659,-2.5659,-2.5611,-2.5558,-2.5511,-2.5484,-2.5446,-2.5421,-2.5413,-2.5413,-2.536,-2.5354,-2.5354,-2.5322,-2.5303,-2.5303,-2.5303,-2.5303,-2.5303,-2.5303,-2.5303,-2.5303,-2.5303,-2.5303,-2.5303,-2.5303,-2.5303,-2.5303,-2.5303,-2.5303,-2.5303,-2.5303,-2.5303,-2.5303,-2.5303,-2.5243,-2.5163,-2.5163,-2.4904,-2.4607,-2.4528,-2.4339,-2.419,-2.419,-2.419,-2.419,-2.419,-2.419,-2.419,-2.419,-2.419,-2.419,-2.419,-2.419,-2.419,-2.419,-2.419,0.0,0.0,-2.33,-2.3014,-2.2554,-2.2388,-2.231,-2.231,-2.231,-2.2209,-2.1928,-2.1354,-2.1069,-2.1151,-2.0563,-2.0243,-2.0243,-2.0183,-2.0004,-1.969,-1.9442,-1.9332,-1.9332,-1.8727,-1.8224,-1.7706,-1.7394,-1.7118,-1.6879,-1.6879,-1.7146,-1.7626,-1.7626,-1.7747,-1.7906,-1.7117,-1.681,-1.6704,-1.5642,-1.5254,-1.518,-3.0398,-3.0398,-3.0398,-3.0398,-3.0398,-3.0398,-3.0398,-2.9544,-2.8692,-2.8081,-2.7116,-2.6257,-2.5642,-2.559,-2.5603,-2.5662,-2.5682,-2.5683,-2.5703,-2.5703,-2.5682,-2.5631,-2.5605,-2.5564,-2.5493,-2.5493,-2.5493,-2.5493,-2.5453,-2.5421,-2.5421,-2.5379,-2.5339,-2.5312,-2.5312,-2.5313,-2.5303,-2.5303,-2.5303,-2.5303,-2.5303,-2.5303,-2.5303,-2.5303,-2.5303,-2.5303,-2.5303,-2.5303,-2.5303,-2.5303,-2.5303,-2.5303,-2.5303,-2.5303,-2.5303,-2.5303,-2.4987,-2.4604,-2.4575,-2.4409,-2.4266,-2.4266,-2.4228,-2.419,-2.419,-2.419,-2.419,-2.419,-2.419,-2.419,-2.419,-2.419,-2.419,-2.419,0.0,0.0,0.0,-2.3189,-2.2982,-2.2377,-2.231,-2.231,-2.231,-2.231,-2.2135,-2.1794,-2.1385,-2.115,-2.1249,-2.0828,-2.058,-2.0483,-1.9959,-1.969,-1.969,-1.9566,-1.953,-1.9479,-1.8688,-1.8185,-1.7907,-1.7188,-1.6752,-1.6522,-1.6522,-1.6552,-1.668,-1.668,-1.6752,-1.6815,-1.614,-1.5883,-1.5807,-1.5005,-1.4714,-1.4639,-3.0355,-3.0398,-3.0398,-3.0398,-3.0398,-3.0398,-3.0398,-2.9036,-2.801,-2.7995,-2.6548,-2.5506,-2.5508,-2.5517,-2.552,-2.5603,-2.5605,-2.5634,-2.5703,-2.5703,-2.5703,-2.5683,-2.5634,-2.5564,-2.5493,-2.5493,-2.5493,-2.5493,-2.5508,-2.5484,-2.5484,-2.5498,-2.5459,-2.5379,-2.5379,-2.5363,-2.5303,-2.5303,-2.5303,-2.5303,-2.5303,-2.5303,-2.5303,-2.5303,-2.5303,-2.5303,-2.5303,-2.5303,-2.5303,-2.5303,-2.5303,-2.5303,-2.5303,-2.5303,-2.5303,-2.5303,-2.5141,-2.4937,-2.4814,-2.4623,-2.4478,-2.4478,-2.4339,-2.419,-2.419,-2.419,-2.419,-2.419,-2.419,-2.419,-2.419,-2.419,-2.419,-2.419,0.0,0.0,-2.3282,-2.3189,-2.2982,-2.2377,-2.231,-2.231,-2.231,-2.231,-2.2282,-2.2237,-2.184,-2.1401,-2.1038,-2.0595,-2.0166,-1.9801,-1.972,-1.969,-1.969,-1.9207,-1.8968,-1.8968,-1.8893,-1.8341,-1.7394,-1.7787,-1.7422,-1.6522,-1.6522,-1.6795,-1.7229,-1.7229,-1.7544,-1.7879,-1.6823,-1.6454,-1.6283,-1.4713,-1.4148,-1.4072,-3.0136,-3.015,-3.0209,-3.0367,-3.0267,-3.0036,-2.9648,-2.8621,-2.7719,-2.72,-2.6072,-2.5363,-2.5434,-2.5441,-2.5451,-2.5539,-2.559,-2.5605,-2.5634,-2.5682,-2.5703,-2.5703,-2.5682,-2.5658,-2.5611,-2.5611,-2.5611,-2.5611,-2.5573,-2.5561,-2.5561,-2.5526,-2.5498,-2.5451,-2.5451,-2.5453,-2.5421,-2.5421,-2.5421,-2.5421,-2.5421,-2.5421,-2.5421,-2.5421,-2.5406,-2.5371,-2.5371,-2.5339,-2.5303,-2.5303,-2.5303,-2.5303,-2.5303,-2.5303,-2.5303,-2.5303,-2.5253,-2.5163,-2.5126,-2.4814,-2.4495,-2.4495,-2.4339,-2.419,-2.419,-2.419,-2.419,-2.419,-2.419,-2.419,-2.419,-2.419,-2.419,-2.419,0.0,-2.4036,-2.3566,-2.3346,-2.3038,-2.2616,-2.2398,-2.231,-2.231,-2.231,-2.218,-2.1899,-2.1688,-2.143,-2.1023,-2.055,-2.0124,-1.9711,-1.969,-1.969,-1.969,-1.9479,-1.9406,-1.9406,-1.8727,-1.8185,-1.7787,-1.7312,-1.6879,-1.6522,-1.6522,-1.6637,-1.6795,-1.6795,-1.6909,-1.7014,-1.5944,-1.5518,-1.5338,-1.402,-1.3546,-1.3509,-2.9893,-2.9908,-2.9954,-3.0142,-3.0075,-2.9789,-2.9104,-2.8387,-2.7582,-2.6717,-2.5851,-2.5322,-2.5352,-2.5371,-2.5391,-2.5471,-2.5517,-2.5551,-2.5564,-2.5634,-2.5683,-2.5703,-2.5703,-2.5703,-2.5703,-2.5703,-2.5703,-2.5703,-2.5659,-2.5634,-2.5633,-2.5573,-2.5554,-2.5539,-2.5539,-2.5526,-2.5493,-2.5493,-2.5493,-2.5493,-2.5493,-2.5493,-2.5493,-2.5493,-2.5463,-2.5434,-2.5434,-2.5394,-2.5363,-2.5363,-2.5357,-2.533,-2.533,-2.5322,-2.5303,-2.5303,-2.5303,-2.5303,-2.5303,-2.5,-2.4651,-2.4607,-2.4444,-2.4266,-2.4209,-2.419,-2.419,-2.419,-2.419,-2.419,-2.419,-2.419,-2.419,-2.419,-2.419,-2.4074,-2.3753,-2.3414,-2.3069,-2.2746,-2.2463,-2.231,-2.231,-2.231,-2.218,-2.1823,-2.1823,-2.1568,-2.1039,-2.0431,-2.0,-1.9726,-1.969,-1.969,-1.969,-1.969,-1.969,-1.969,-1.8779,-1.8263,-1.8066,-1.7146,-1.668,-1.6522,-1.6522,-1.6522,-1.6522,-1.6522,-1.6522,-1.6409,-1.5304,-1.4916,-1.4777,-1.3599,-1.3198,-1.3198,-2.9661,-2.9696,-2.9696,-2.9696,-2.9861,-2.9713,-2.8907,-2.8286,-2.7582,-2.6697,-2.5851,-2.5303,-2.5303,-2.5303,-2.534,-2.5391,-2.5406,-2.5428,-2.5508,-2.5561,-2.5633,-2.5703,-2.5703,-2.5703,-2.5703,-2.5703,-2.5703,-2.5703,-2.5703,-2.5703,-2.5703,-2.5703,-2.5661,-2.5601,-2.5601,-2.5561,-2.5493,-2.5493,-2.5493,-2.5493,-2.5493,-2.5493,-2.5493,-2.5493,-2.5493,-2.5493,-2.5493,-2.5493,-2.5493,-2.5493,-2.5459,-2.5398,-2.5394,-2.5354,-2.5303,-2.5303,-2.5303,-2.5303,-2.5303,-2.5152,-2.4974,-2.4828,-2.4654,-2.4444,-2.4266,-2.419,-2.419,-2.419,-2.419,-2.419,-2.419,-2.419,-2.419,-2.419,-2.419,-2.4074,-2.3753,-2.3414,-2.3069,-2.2746,-2.2463,-2.231,-2.231,-2.231,-2.231,-2.231,-2.231,-2.1915,-2.1039,-2.0174,-1.969,-1.969,-1.969,-1.969,-1.969,-1.969,-1.969,-1.969,-1.9169,-1.8612,-1.8106,-1.7544,-1.6993,-1.6522,-1.6522,-1.6522,-1.6522,-1.6522,-1.6522,-1.6409,-1.5304,-1.4916,-1.4777,-1.3611,-1.321,-1.321,-2.9493,-2.9474,-2.9514,-2.9678,-2.9135,-2.8491,-2.7975,-2.7249,-2.6531,-2.5773,-2.5457,-2.5303,-2.5303,-2.5303,-2.5303,-2.534,-2.5379,-2.5428,-2.5508,-2.5526,-2.5558,-2.5633,-2.5662,-2.5703,-2.5703,-2.5703,-2.5703,-2.5703,-2.5703,-2.5703,-2.5703,-2.5703,-2.5683,-2.5662,-2.5662,-2.566,-2.5636,-2.5636,-2.5636,-2.5636,-2.5636,-2.5636,-2.5636,-2.5636,-2.5607,-2.5564,-2.5564,-2.5543,-2.5493,-2.5493,-2.5498,-2.5477,-2.5482,-2.5421,-2.5371,-2.5371,-2.5339,-2.5303,-2.5303,-2.5264,-2.5182,-2.4993,-2.4823,-2.47,-2.4639,-2.4512,-2.441,-2.441,-2.4303,-2.419,-2.419,-2.419,-2.419,-2.419,-2.419,-2.4074,-2.3753,-2.3414,-2.3069,-2.2746,-2.2463,-2.231,-2.231,-2.231,-2.231,-2.231,-2.2003,-2.1568,-2.1039,-2.0431,-2.0,-1.9726,-1.969,-1.969,-1.969,-1.969,-1.969,-1.969,-1.9169,-1.8817,-1.8612,-1.7706,-1.7188,-1.7034,-1.668,-1.6522,-1.6522,-1.6522,-1.6522,-1.6446,-1.5731,-1.5442,-1.5316,-1.4249,-1.3846,-1.3783,-2.9246,-2.9246,-2.927,-2.9397,-2.8968,-2.8353,-2.7521,-2.7029,-2.6421,-2.5417,-2.5303,-2.5303,-2.5303,-2.5303,-2.5303,-2.5303,-2.5339,-2.5383,-2.5465,-2.5471,-2.5484,-2.5558,-2.5601,-2.5657,-2.5703,-2.5703,-2.5703,-2.5703,-2.5703,-2.5703,-2.5703,-2.5703,-2.5703,-2.5703,-2.5703,-2.5703,-2.5703,-2.5703,-2.5703,-2.5703,-2.5703,-2.5703,-2.5703,-2.5703,-2.5662,-2.5636,-2.5636,-2.5607,-2.557,-2.557,-2.5561,-2.552,-2.5517,-2.5482,-2.5441,-2.5441,-2.5391,-2.5348,-2.5348,-2.5331,-2.5274,-2.5152,-2.4993,-2.4869,-2.4818,-2.4639,-2.4495,-2.4495,-2.4339,-2.419,-2.419,-2.419,-2.43,-2.4612,-2.441,-2.4223,-2.4374,-2.3697,-2.3117,-2.2923,-2.2527,-2.231,-2.231,-2.231,-2.231,-2.231,-2.1869,-2.1491,-2.1244,-2.0813,-2.0398,-1.9929,-1.9929,-1.9874,-1.969,-1.969,-1.969,-1.969,-1.9169,-1.8893,-1.8855,-1.8027,-1.7626,-1.7585,-1.7271,-1.6993,-1.6837,-1.6837,-1.668,-1.6459,-1.5906,-1.5693,-1.5567,-1.4488,-1.4085,-1.4009,-2.8994,-2.8994,-2.8994,-2.8994,-2.9148,-2.8818,-2.7484,-2.7331,-2.688,-2.555,-2.5331,-2.5303,-2.5303,-2.5303,-2.5303,-2.5303,-2.5303,-2.534,-2.5391,-2.5398,-2.5421,-2.5498,-2.5484,-2.5554,-2.5683,-2.5683,-2.5683,-2.5683,-2.5683,-2.5703,-2.5683,-2.5703,-2.5703,-2.5703,-2.5703,-2.5703,-2.5703,-2.5703,-2.5703,-2.5703,-2.5703,-2.5703,-2.5703,-2.5703,-2.5703,-2.5703,-2.5703,-2.5703,-2.5703,-2.5703,-2.566,-2.5601,-2.5543,-2.5503,-2.5517,-2.5517,-2.5465,-2.5394,-2.5394,-2.5346,-2.5303,-2.5303,-2.5163,-2.4986,-2.4869,-2.4685,-2.4528,-2.4528,-2.4394,-2.43,-2.43,-2.43,-2.4538,-2.5293,-2.4722,-2.4447,-2.5142,-2.4082,-2.3212,-2.3165,-2.2686,-2.2355,-2.2395,-2.2412,-2.2412,-2.2412,-2.1903,-2.1582,-2.1582,-2.1181,-2.0748,-2.0314,-2.028,-2.0054,-1.9711,-1.969,-1.969,-1.969,-1.9207,-1.8968,-1.8968,-1.838,-1.8106,-1.8106,-1.7987,-1.7666,-1.7229,-1.7229,-1.6925,-1.6396,-1.5944,-1.5706,-1.5492,-1.4525,-1.4123,-1.4009,-2.8994,-2.8994,-2.8994,-2.8994,-2.8529,-2.8088,-2.7922,-2.7015,-2.6271,-2.6104,-2.5633,-2.5303,-2.5303,-2.5303,-2.5303,-2.5303,-2.5303,-2.5322,-2.5331,-2.5312,-2.5346,-2.5415,-2.5415,-2.5465,-2.5547,-2.5598,-2.5601,-2.5547,-2.5658,-2.5662,-2.5611,-2.5682,-2.5703,-2.5703,-2.5703,-2.5703,-2.5703,-2.5703,-2.5703,-2.5703,-2.5703,-2.5703,-2.5703,-2.5703,-2.5703,-2.5703,-2.5703,-2.5703,-2.5703,-2.5703,-2.5683,-2.5682,-2.566,-2.5629,-2.557,-2.557,-2.5484,-2.5406,-2.5413,-2.5346,-2.5303,-2.5303,-2.5264,-2.5243,-2.5212,-2.4949,-2.4731,-2.4731,-2.4946,-2.5146,-2.5146,-2.5146,-2.5201,-2.5384,-2.4722,-2.4186,-2.4073,-2.3801,-2.3392,-2.2873,-2.2686,-2.275,-2.3134,-2.3156,-2.3156,-2.3156,-2.2185,-2.1582,-2.1582,-2.0878,-2.0416,-2.0314,-2.0,-1.9782,-1.969,-1.969,-1.969,-1.969,-1.9566,-1.953,-1.9479,-1.8535,-1.8106,-1.8066,-1.7188,-1.6795,-1.668,-1.668,-1.6342,-1.5906,-1.622,-1.5806,-1.5067,-1.4815,-1.4462,-1.4009,-2.9067,-2.9329,-2.9457,-2.9067,-2.8668,-2.8316,-2.8123,-2.7157,-2.639,-2.6255,-2.5612,-2.5184,-2.5303,-2.5303,-2.5303,-2.5303,-2.5303,-2.5303,-2.5303,-2.5303,-2.5322,-2.5346,-2.5346,-2.5371,-2.5394,-2.5477,-2.5493,-2.5493,-2.5564,-2.5595,-2.5554,-2.5595,-2.5603,-2.5603,-2.5603,-2.5603,-2.5605,-2.5636,-2.5659,-2.5659,-2.5683,-2.5703,-2.5703,-2.5703,-2.5703,-2.5703,-2.5703,-2.5703,-2.5703,-2.5703,-2.5703,-2.5703,-2.5703,-2.5682,-2.5658,-2.5658,-2.5587,-2.5493,-2.5465,-2.5406,-2.5348,-2.5303,-2.5303,-2.5303,-2.5303,-2.5084,-2.4891,-2.4891,-2.502,-2.5076,-2.4986,-2.4968,-2.506,-2.5349,-2.4722,-2.4279,-2.4468,-2.4052,-2.3522,-2.2996,-2.2797,-2.2754,-2.2863,-2.2885,-2.2885,-2.2885,-2.2279,-2.1928,-2.1928,-2.1507,-2.1134,-2.0927,-2.0532,-2.0208,-2.0,-1.9782,-1.969,-1.969,-1.969,-1.969,-1.969,-1.9132,-1.8855,-1.8817,-1.8263,-1.7867,-1.7626,-1.7626,-1.705,-1.6097,-1.6393,-1.5834,-1.4878,-1.4614,-1.4173,-1.3622,-2.9122,-2.9549,-2.9787,-2.9104,-2.8994,-2.8828,-2.8322,-2.7604,-2.6932,-2.6446,-2.5685,-2.5229,-2.5293,-2.5303,-2.5303,-2.5303,-2.5303,-2.5303,-2.5303,-2.5303,-2.5303,-2.5303,-2.5303,-2.5303,-2.5303,-2.5354,-2.5401,-2.5471,-2.5498,-2.5484,-2.5473,-2.5484,-2.5493,-2.5493,-2.5493,-2.5493,-2.5493,-2.5558,-2.5573,-2.5576,-2.5481,-2.5545,-2.5622,-2.5349,-2.5428,-2.5663,-2.5527,-2.5566,-2.5683,-2.5703,-2.5683,-2.5662,-2.5683,-2.5683,-2.5683,-2.5703,-2.5659,-2.5595,-2.5539,-2.5477,-2.5394,-2.533,-2.5322,-2.5351,-2.5486,-2.5248,-2.5049,-2.5201,-2.5213,-2.516,-2.4987,-2.492,-2.5039,-2.5391,-2.4761,-2.4428,-2.5109,-2.4377,-2.3671,-2.3323,-2.307,-2.2832,-2.2592,-2.2525,-2.2496,-2.2496,-2.2378,-2.231,-2.231,-2.2209,-2.2003,-2.1612,-2.1213,-2.0829,-2.0416,-2.0104,-1.9909,-1.9909,-1.9854,-1.9782,-1.969,-1.9603,-1.9566,-1.9566,-1.9369,-1.9043,-1.8598,-1.8422,-1.7518,-1.6231,-1.6231,-1.5556,-1.4576,-1.411,-1.3622,-1.3198,-2.9012,-2.9085,-2.9122,-2.9012,-2.8994,-2.898,-2.8874,-2.8336,-2.7737,-2.7137,-2.6484,-2.5855,-2.5351,-2.5303,-2.5303,-2.5303,-2.5303,-2.5303,-2.5303,-2.5303,-2.5303,-2.5303,-2.5303,-2.5303,-2.5303,-2.5303,-2.5322,-2.534,-2.5447,-2.5477,-2.5401,-2.5463,-2.5493,-2.5493,-2.5493,-2.5493,-2.5493,-2.5517,-2.5503,-2.5444,-2.4775,-2.4916,-2.536,-2.3929,-2.43,-2.5529,-2.483,-2.5024,-2.5611,-2.5683,-2.5611,-2.5551,-2.5661,-2.566,-2.5611,-2.5683,-2.5659,-2.5601,-2.5595,-2.5543,-2.5477,-2.5406,-2.5383,-2.558,-2.6275,-2.5688,-2.522,-2.5983,-2.6508,-2.6868,-2.6852,-2.6686,-2.6376,-2.5764,-2.4838,-2.4245,-2.4337,-2.4244,-2.4016,-2.3671,-2.3678,-2.3725,-2.3688,-2.3426,-2.3241,-2.3241,-2.2665,-2.231,-2.231,-2.1928,-2.1658,-2.1582,-2.1213,-2.0959,-2.0894,-2.0862,-2.0829,-2.0829,-2.0416,-2.0035,-1.969,-1.9207,-1.9006,-1.8968,-1.8027,-1.7585,-1.7423,-1.6502,-1.5747,-1.5133,-1.5133,-1.4424,-1.3411,-1.3336,-1.3261,-1.3198,-2.9085,-2.9365,-2.9549,-2.9067,-2.8994,-2.8994,-2.8994,-2.839,-2.7709,-2.7119,-2.6381,-2.5691,-2.5082,-2.5031,-2.5031,-2.5031,-2.5031,-2.5049,-2.513,-2.5122,-2.5173,-2.5303,-2.5303,-2.5303,-2.5303,-2.5303,-2.5303,-2.5303,-2.5363,-2.536,-2.5348,-2.536,-2.5383,-2.5383,-2.5383,-2.5383,-2.5391,-2.5421,-2.5447,-2.5428,-2.5109,-2.5182,-2.5415,-2.4681,-2.4869,-2.5508,-2.5141,-2.5239,-2.5551,-2.557,-2.5551,-2.5503,-2.5564,-2.5598,-2.5603,-2.5634,-2.5644,-2.5658,-2.5605,-2.557,-2.5543,-2.5477,-2.5428,-2.5495,-2.5846,-2.5524,-2.5412,-2.6293,-2.6675,-2.6676,-2.6075,-2.5827,-2.556,-2.5108,-2.4561,-2.419,-2.419,-2.419,-2.3996,-2.3482,-2.3312,-2.317,-2.3021,-2.2869,-2.2784,-2.2784,-2.2496,-2.231,-2.231,-2.2106,-2.2003,-2.2003,-2.1568,-2.1337,-2.1337,-2.1118,-2.0991,-2.0991,-2.0797,-2.0449,-2.0035,-1.9573,-1.9369,-1.9332,-1.8855,-1.865,-1.8598,-1.7816,-1.6813,-1.5768,-1.5447,-1.4479,-1.3198,-1.3198,-1.3198,-1.3198]},{"header":{"parameterUnit":"m.s-1","parameterCategory":1,"la1":30.6,"la2":28.766,"lo1":-90.7593,"lo2":-88.6598,"dx":0.0162,"dy":0.0183,"nx":116,"ny":114,"refTime":"2023-02-13T06:00:00:Z","depth":0,"parameterNumber":3,"parameterNumberName":"V-component_of_WINDS"},"data":[0.0,0.0,0.0,0.0,0.0,0.0,0.0,0.0,0.0,0.0,0.0,0.0,0.0,0.0,0.0,0.0,0.0,0.0,0.0,0.0,0.0,0.0,0.0,0.0,0.0,0.0,0.0,0.0,0.0,0.0,0.0,0.0,0.0,0.0,0.0,0.0,0.0,0.0,0.0,0.0,0.0,0.0,0.0,0.0,0.0,0.0,0.0,0.0,0.0,0.0,0.0,0.0,0.0,0.0,0.0,0.0,0.0,0.0,0.0,0.0,0.0,0.0,0.0,0.0,0.0,0.0,0.0,0.0,0.0,0.0,0.0,0.0,0.0,0.0,0.0,0.0,0.0,0.0,0.0,0.0,0.0,0.0,0.0,0.0,0.0,0.0,0.0,0.0,0.0,0.0,0.0,0.0,0.0,0.0,0.0,0.0,0.0,0.0,0.0,0.0,0.0,0.0,0.0,0.0,0.0,0.0,0.0,0.0,0.0,0.0,0.0,0.0,0.0,0.0,0.0,0.0,0.0,0.0,0.0,0.0,0.0,0.0,0.0,0.0,0.0,0.0,0.0,0.0,0.0,0.0,0.0,0.0,0.0,0.0,0.0,0.0,0.0,0.0,0.0,0.0,0.0,0.0,0.0,0.0,0.0,0.0,0.0,0.0,0.0,0.0,0.0,0.0,0.0,0.0,0.0,0.0,0.0,0.0,0.0,0.0,0.0,0.0,0.0,0.0,0.0,0.0,0.0,0.0,0.0,0.0,0.0,0.0,0.0,0.0,0.0,0.0,0.0,0.0,0.0,0.0,0.0,0.0,0.0,0.0,0.0,0.0,0.0,0.0,0.0,0.0,0.0,0.0,0.0,0.0,0.0,0.0,0.0,0.0,0.0,0.0,0.0,0.0,0.0,0.0,0.0,0.0,0.0,0.0,0.0,0.0,0.0,0.0,0.0,0.0,0.0,0.0,0.0,0.0,0.0,0.0,0.0,0.0,0.0,0.0,0.0,0.0,0.0,0.0,0.0,0.0,0.0,0.0,0.0,0.0,0.0,0.0,0.0,0.0,0.0,0.0,0.0,0.0,0.0,0.0,0.0,0.0,0.0,0.0,0.0,0.0,0.0,0.0,0.0,0.0,0.0,0.0,0.0,0.0,0.0,0.0,0.0,0.0,0.0,0.0,0.0,0.0,0.0,0.0,0.0,0.0,0.0,0.0,0.0,0.0,0.0,0.0,0.0,0.0,0.0,0.0,0.0,0.0,0.0,0.0,0.0,0.0,0.0,0.0,0.0,0.0,0.0,0.0,0.0,0.0,0.0,0.0,0.0,0.0,0.0,0.0,0.0,0.0,0.0,0.0,0.0,0.0,0.0,0.0,0.0,0.0,0.0,0.0,0.0,0.0,0.0,0.0,0.0,0.0,0.0,0.0,0.0,0.0,0.0,0.0,0.0,0.0,0.0,0.0,0.0,0.0,0.0,0.0,0.0,0.0,0.0,0.0,0.0,0.0,0.0,0.0,0.0,0.0,0.0,0.0,0.0,0.0,0.0,0.0,0.0,0.0,0.0,0.0,0.0,0.0,0.0,0.0,0.0,0.0,0.0,0.0,0.0,0.0,0.0,0.0,0.0,0.0,0.0,0.0,0.0,0.0,0.0,0.0,0.0,0.0,0.0,0.0,0.0,0.0,0.0,0.0,0.0,0.0,0.0,0.0,0.0,0.0,0.0,0.0,0.0,0.0,0.0,0.0,0.0,0.0,0.0,0.0,0.0,0.0,0.0,0.0,0.0,0.0,0.0,0.0,0.0,0.0,0.0,0.0,0.0,0.0,0.0,0.0,0.0,0.0,0.0,0.0,0.0,0.0,0.0,0.0,0.0,0.0,0.0,0.0,0.0,0.0,0.0,0.0,0.0,0.0,0.0,0.0,0.0,0.0,0.0,0.0,0.0,0.0,0.0,0.0,0.0,0.0,0.0,0.0,0.0,0.0,0.0,0.0,0.0,0.0,0.0,0.0,0.0,0.0,0.0,0.0,0.0,0.0,0.0,0.0,0.0,0.0,0.0,0.0,0.0,0.0,0.0,0.0,0.0,0.0,0.0,0.0,0.0,0.0,0.0,0.0,0.0,0.0,0.0,0.0,0.0,0.0,0.0,0.0,0.0,0.0,0.0,0.0,0.0,0.0,0.0,0.0,0.0,0.0,0.0,0.0,0.0,0.0,0.0,0.0,0.0,0.0,0.0,0.0,0.0,0.0,0.0,0.0,0.0,0.0,0.0,0.0,0.0,0.0,0.0,0.0,0.0,0.0,0.0,0.0,0.0,0.0,0.0,0.0,0.0,0.0,0.0,0.0,0.0,0.0,0.0,0.0,0.0,0.0,0.0,0.0,0.0,0.0,0.0,0.0,0.0,0.0,0.0,0.0,0.0,0.0,0.0,0.0,0.0,0.0,0.0,0.0,0.0,0.0,0.0,0.0,0.0,0.0,0.0,0.0,0.0,0.0,0.0,0.0,0.0,0.0,0.0,0.0,0.0,0.0,0.0,0.0,0.0,0.0,0.0,0.0,0.0,0.0,0.0,0.0,0.0,0.0,0.0,0.0,0.0,0.0,0.0,0.0,0.0,0.0,0.0,0.0,0.0,0.0,0.0,0.0,0.0,0.0,0.0,0.0,0.0,0.0,0.0,0.0,0.0,0.0,0.0,0.0,0.0,0.0,0.0,0.0,0.0,0.0,0.0,0.0,0.0,0.0,0.0,0.0,0.0,0.0,0.0,0.0,0.0,0.0,0.0,0.0,0.0,0.0,0.0,0.0,0.0,0.0,0.0,0.0,0.0,0.0,0.0,0.0,0.0,0.0,0.0,0.0,0.0,0.0,0.0,0.0,0.0,0.0,0.0,0.0,0.0,0.0,0.0,0.0,0.0,0.0,0.0,0.0,0.0,0.0,0.0,0.0,0.0,0.0,0.0,0.0,0.0,0.0,0.0,0.0,0.0,0.0,0.0,0.0,0.0,0.0,0.0,0.0,0.0,0.0,0.0,0.0,0.0,0.0,0.0,0.0,0.0,0.0,0.0,0.0,0.0,0.0,0.0,0.0,0.0,0.0,0.0,0.0,0.0,0.0,0.0,0.0,0.0,0.0,0.0,0.0,0.0,0.0,0.0,0.0,0.0,0.0,0.0,0.0,0.0,0.0,0.0,0.0,0.0,0.0,0.0,0.0,0.0,0.0,0.0,0.0,0.0,0.0,0.0,0.0,0.0,0.0,0.0,0.0,0.0,0.0,0.0,0.0,0.0,0.0,0.0,0.0,0.0,0.0,0.0,0.0,0.0,0.0,0.0,0.0,0.0,0.0,0.0,0.0,0.0,0.0,0.0,0.0,0.0,0.0,0.0,0.0,0.0,0.0,0.0,0.0,0.0,0.0,0.0,0.0,0.0,0.0,0.0,0.0,0.0,0.0,0.0,0.0,0.0,0.0,0.0,0.0,0.0,0.0,0.0,0.0,0.0,0.0,0.0,0.0,0.0,0.0,0.0,0.0,0.0,0.0,0.0,0.0,0.0,0.0,0.0,0.0,0.0,0.0,0.0,0.0,0.0,0.0,0.0,0.0,0.0,0.0,0.0,0.0,0.0,0.0,0.0,0.0,0.0,0.0,0.0,0.0,0.0,0.0,0.0,0.0,0.0,0.0,0.0,0.0,0.0,0.0,0.0,0.0,0.0,0.0,0.0,0.0,0.0,0.0,0.0,0.0,0.0,0.0,0.0,0.0,0.0,0.0,0.0,0.0,0.0,0.0,0.0,0.0,0.0,0.0,0.0,0.0,0.0,0.0,0.0,0.0,0.0,0.0,0.0,0.0,0.0,0.0,0.0,0.0,0.0,0.0,0.0,0.0,0.0,0.0,0.0,0.0,0.0,0.0,0.0,0.0,0.0,0.0,0.0,0.0,0.0,0.0,0.0,0.0,0.0,0.0,0.0,0.0,0.0,0.0,0.0,0.0,0.0,0.0,0.0,0.0,0.0,0.0,0.0,0.0,0.0,0.0,0.0,0.0,0.0,0.0,0.0,0.0,0.0,0.0,0.0,0.0,0.0,0.0,0.0,0.0,0.0,0.0,0.0,0.0,0.0,0.0,0.0,0.0,0.0,0.0,0.0,0.0,0.0,0.0,0.0,0.0,0.0,0.0,0.0,0.0,0.0,0.0,0.0,0.0,0.0,0.0,0.0,0.0,0.0,0.0,0.0,0.0,0.0,0.0,0.0,0.0,0.0,0.0,0.0,0.0,0.0,0.0,0.0,0.0,0.0,0.0,0.0,0.0,0.0,0.0,0.0,0.0,0.0,0.0,0.0,0.0,0.0,0.0,0.0,0.0,0.0,0.0,0.0,0.0,0.0,0.0,0.0,0.0,0.0,0.0,0.0,0.0,0.0,0.0,0.0,0.0,0.0,0.0,0.0,0.0,0.0,0.0,0.0,0.0,0.0,0.0,0.0,0.0,0.0,0.0,0.0,0.0,0.0,0.0,0.0,0.0,0.0,0.0,0.0,0.0,0.0,0.0,0.0,0.0,0.0,0.0,0.0,0.0,0.0,0.0,0.0,0.0,0.0,0.0,0.0,0.0,0.0,0.0,0.0,0.0,0.0,0.0,0.0,0.0,0.0,0.0,0.0,0.0,0.0,0.0,0.0,0.0,0.0,0.0,0.0,0.0,0.0,0.0,0.0,0.0,0.0,0.0,0.0,0.0,0.0,0.0,0.0,0.0,0.0,0.0,0.0,0.0,0.0,0.0,0.0,0.0,0.0,0.0,0.0,0.0,0.0,0.0,0.0,0.0,0.0,0.0,0.0,0.0,0.0,0.0,0.0,0.0,0.0,0.0,0.0,0.0,0.0,0.0,0.0,0.0,0.0,0.0,0.0,0.0,0.0,0.0,0.0,0.0,0.0,0.0,0.0,0.0,0.0,0.0,0.0,0.0,0.0,0.0,0.0,0.0,0.0,0.0,0.0,0.0,0.0,0.0,0.0,0.0,0.0,0.0,0.0,0.0,0.0,0.0,0.0,0.0,0.0,0.0,0.0,0.0,0.0,0.0,0.0,0.0,0.0,0.0,0.0,0.0,0.0,0.0,0.0,0.0,0.0,0.0,0.0,0.0,0.0,0.0,0.0,0.0,0.0,0.0,0.0,0.0,0.0,0.0,0.0,0.0,0.0,0.0,0.0,0.0,0.0,0.0,0.0,0.0,0.0,0.0,0.0,0.0,0.0,0.0,0.0,0.0,0.0,0.0,0.0,0.0,0.0,0.0,0.0,0.0,0.0,0.0,0.0,0.0,0.0,0.0,0.0,0.0,0.0,0.0,0.0,0.0,0.0,0.0,0.0,0.0,0.0,0.0,0.0,0.0,0.0,0.0,0.0,0.0,0.0,0.0,0.0,0.0,0.0,0.0,0.0,0.0,0.0,0.0,0.0,0.0,0.0,0.0,0.0,0.0,0.0,0.0,0.0,0.0,0.0,0.0,0.0,0.0,0.0,0.0,0.0,0.0,0.0,0.0,0.0,0.0,0.0,0.0,0.0,0.0,0.0,0.0,0.0,0.0,0.0,0.0,0.0,0.0,0.0,0.0,0.0,0.0,0.0,0.0,0.0,0.0,0.0,0.0,0.0,0.0,0.0,0.0,0.0,0.0,0.0,0.0,0.0,0.0,0.0,0.0,0.0,0.0,0.0,0.0,0.0,0.0,0.0,0.0,0.0,0.0,0.0,0.0,0.0,0.0,0.0,0.0,0.0,0.0,0.0,0.0,0.0,0.0,0.0,0.0,0.0,0.0,0.0,0.0,0.0,0.0,0.0,0.0,0.0,0.0,0.0,0.0,0.0,0.0,0.0,0.0,0.0,0.0,0.0,0.0,0.0,0.0,0.0,0.0,0.0,0.0,0.0,0.0,0.0,0.0,0.0,0.0,0.0,0.0,0.0,0.0,0.0,0.0,0.0,0.0,0.0,0.0,0.0,0.0,0.0,0.0,0.0,0.0,0.0,0.0,0.0,0.0,0.0,0.0,0.0,0.0,0.0,0.0,0.0,0.0,0.0,0.0,0.0,0.0,0.0,0.0,0.0,0.0,0.0,0.0,-1.3077,0.0,0.0,0.0,0.0,0.0,0.0,0.0,0.0,0.0,0.0,0.0,0.0,0.0,0.0,0.0,0.0,0.0,0.0,0.0,0.0,0.0,0.0,0.0,0.0,0.0,0.0,0.0,0.0,0.0,0.0,0.0,0.0,0.0,0.0,0.0,0.0,0.0,0.0,0.0,0.0,0.0,0.0,0.0,0.0,0.0,0.0,0.0,0.0,0.0,0.0,0.0,0.0,0.0,0.0,0.0,0.0,0.0,0.0,0.0,0.0,0.0,0.0,0.0,0.0,0.0,0.0,0.0,0.0,0.0,0.0,0.0,0.0,0.0,0.0,0.0,0.0,0.0,0.0,0.0,0.0,0.0,0.0,0.0,0.0,0.0,0.0,0.0,0.0,0.0,0.0,0.0,0.0,0.0,0.0,0.0,0.0,0.0,0.0,0.0,0.0,0.0,0.0,0.0,0.0,0.0,0.0,0.0,0.0,0.0,0.0,0.0,0.0,0.0,0.0,0.0,0.0,-1.3256,0.0,0.0,0.0,0.0,0.0,0.0,0.0,0.0,0.0,0.0,0.0,0.0,0.0,0.0,0.0,0.0,0.0,0.0,0.0,0.0,0.0,0.0,0.0,0.0,0.0,0.0,0.0,0.0,0.0,0.0,0.0,0.0,0.0,0.0,0.0,0.0,0.0,0.0,0.0,0.0,0.0,0.0,0.0,0.0,0.0,0.0,0.0,0.0,0.0,0.0,0.0,0.0,0.0,0.0,0.0,0.0,0.0,0.0,0.0,0.0,0.0,0.0,0.0,0.0,0.0,0.0,0.0,0.0,0.0,0.0,0.0,0.0,0.0,0.0,0.0,0.0,0.0,0.0,0.0,0.0,0.0,0.0,0.0,0.0,0.0,0.0,0.0,0.0,0.0,0.0,0.0,0.0,0.0,0.0,0.0,0.0,0.0,0.0,0.0,0.0,0.0,0.0,0.0,0.0,0.0,0.0,0.0,0.0,-1.1403,-1.256,-1.462,-1.462,-1.5498,-1.6883,-1.4717,-1.3775,-1.3795,-1.3446,0.0,0.0,0.0,0.0,0.0,0.0,0.0,0.0,0.0,0.0,0.0,0.0,0.0,0.0,0.0,0.0,0.0,0.0,0.0,0.0,0.0,0.0,0.0,0.0,0.0,0.0,0.0,0.0,0.0,0.0,0.0,0.0,0.0,0.0,0.0,0.0,0.0,0.0,0.0,0.0,0.0,0.0,0.0,0.0,0.0,0.0,0.0,0.0,0.0,0.0,0.0,0.0,0.0,0.0,0.0,0.0,0.0,0.0,0.0,0.0,0.0,0.0,0.0,0.0,0.0,0.0,0.0,0.0,0.0,0.0,0.0,0.0,0.0,0.0,0.0,0.0,0.0,0.0,0.0,0.0,0.0,0.0,0.0,0.0,0.0,0.0,-0.4025,-0.4419,0.0,0.0,0.0,0.0,0.0,0.0,0.0,0.0,0.0,0.0,0.0,0.0,0.0,-1.1196,-1.1196,-1.2265,-1.2705,-1.2593,-1.3046,-1.366,-1.4453,-1.4453,-1.4818,-1.5543,-1.6104,0.0,-1.5107,-1.4305,0.0,0.0,0.0,0.0,0.0,0.0,0.0,0.0,0.0,0.0,0.0,0.0,0.0,0.0,0.0,0.0,0.0,0.0,0.0,0.0,0.0,0.0,0.0,0.0,0.0,0.0,0.0,0.0,0.0,0.0,0.0,0.0,0.0,0.0,0.0,0.0,0.0,0.0,0.0,0.0,0.0,0.0,0.0,0.0,0.0,0.0,0.0,0.0,0.0,0.0,0.0,0.0,0.0,0.0,0.0,0.0,0.0,0.0,0.0,0.0,0.0,0.0,0.0,0.0,0.0,0.0,0.0,0.0,0.0,0.0,0.0,0.0,0.0,0.0,0.0,0.0,0.0,0.0,0.0,0.0,0.0,0.0,0.0,0.0,0.0,-0.3457,-0.4487,-0.4522,-0.4613,-0.4718,0.0,0.0,0.0,0.0,0.0,0.0,0.0,0.0,0.0,-1.1096,-1.1797,-1.2251,-1.2425,-1.3113,-1.3554,-1.3748,-1.4008,-1.4642,-1.5656,-1.5471,-1.6186,-1.7526,-1.7649,-1.7585,-1.751,-1.6416,-1.5518,-1.4834,0.0,0.0,0.0,0.0,-1.4228,-1.4336,0.0,0.0,0.0,0.0,0.0,0.0,0.0,0.0,0.0,0.0,0.0,0.0,0.0,0.0,0.0,0.0,0.0,0.0,0.0,0.0,0.0,0.0,0.0,0.0,0.0,0.0,0.0,0.0,0.0,0.0,0.0,0.0,0.0,0.0,0.0,0.0,0.0,0.0,0.0,0.0,0.0,0.0,0.0,0.0,0.0,0.0,0.0,0.0,0.0,0.0,0.0,0.0,0.0,0.0,0.0,0.0,0.0,0.0,0.0,0.0,0.0,0.0,0.0,0.0,0.0,0.0,0.0,0.0,0.0,0.0,0.0,0.0,0.0,0.0,0.0,0.0,0.0,-0.3589,-0.4694,-0.4538,-0.4857,-0.506,0.0,0.0,0.0,0.0,0.0,0.0,-0.8477,-1.0407,-1.1721,-1.2318,-1.2893,-1.3313,-1.354,-1.3908,-1.4309,-1.4743,-1.4816,-1.5404,-1.6393,-1.6154,-1.6812,-1.823,-1.8253,-1.8392,-1.8573,-1.7745,-1.6807,-1.5889,-1.5674,-1.5459,-1.5264,-1.5156,-1.5107,-1.5298,0.0,0.0,0.0,0.0,0.0,0.0,0.0,0.0,0.0,0.0,0.0,0.0,0.0,0.0,0.0,0.0,0.0,0.0,0.0,0.0,0.0,0.0,0.0,0.0,0.0,0.0,0.0,0.0,0.0,0.0,0.0,0.0,0.0,0.0,0.0,0.0,0.0,0.0,0.0,0.0,0.0,0.0,0.0,0.0,0.0,0.0,0.0,0.0,0.0,0.0,0.0,0.0,0.0,0.0,0.0,0.0,0.0,0.0,0.0,0.0,0.0,0.0,0.0,0.0,0.0,0.0,0.0,0.0,0.0,0.0,0.0,0.0,0.0,0.0,0.0,0.0,0.0,0.0,0.0,-0.4697,-0.5199,0.0,0.0,0.0,0.0,-0.5555,-0.6814,-0.8147,-0.9365,-1.0885,-1.2286,-1.3473,-1.4122,-1.4436,-1.4456,-1.5023,-1.5324,-1.5357,-1.5631,-1.5772,-1.588,-1.5859,-1.5643,-1.5287,-1.7321,-1.7647,-1.6865,-1.7222,-1.7344,-1.7197,-1.6357,-1.6279,-1.6582,-1.6152,-1.6056,-1.6168,0.0,0.0,0.0,0.0,0.0,0.0,0.0,0.0,0.0,0.0,0.0,0.0,0.0,0.0,0.0,0.0,0.0,0.0,0.0,0.0,0.0,0.0,0.0,0.0,0.0,0.0,0.0,0.0,0.0,0.0,0.0,0.0,0.0,0.0,0.0,0.0,0.0,0.0,0.0,0.0,0.0,0.0,0.0,0.0,0.0,0.0,0.0,0.0,0.0,0.0,0.0,0.0,0.0,0.0,0.0,0.0,0.0,0.0,0.0,0.0,0.0,0.0,0.0,0.0,0.0,0.0,0.0,0.0,0.0,0.0,0.0,0.0,0.0,0.0,0.0,0.0,0.0,0.0,0.0,-0.5525,-0.583,0.0,-0.6132,-0.6067,-0.6101,-0.6291,-0.7315,-0.8711,-1.028,-1.1606,-1.3051,-1.4674,-1.4977,-1.517,-1.5357,-1.5571,-1.5671,-1.5678,-1.5778,-1.5732,-1.5545,-1.5357,-1.5397,-1.5763,-1.7067,-1.7826,-1.8189,-1.8767,-1.8857,-1.8525,-1.7656,-1.7412,-1.75,-1.707,-1.6914,-1.7179,0.0,0.0,0.0,0.0,0.0,0.0,0.0,0.0,0.0,0.0,0.0,0.0,0.0,0.0,0.0,0.0,0.0,0.0,0.0,0.0,0.0,0.0,0.0,0.0,0.0,0.0,0.0,0.0,0.0,0.0,0.0,0.0,0.0,0.0,0.0,0.0,0.0,0.0,0.0,0.0,0.0,0.0,0.7569,0.0,0.0,0.0,0.0,0.0,0.0,0.0,0.0,0.0,0.0,0.0,0.0,0.0,0.0,0.0,0.0,0.0,0.0,0.0,0.0,0.0,0.0,0.0,0.0,0.0,0.0,0.0,0.0,0.0,0.0,0.0,0.0,0.0,0.0,0.0,-0.5482,-0.6066,-0.6447,-0.6675,-0.677,-0.6692,-0.6719,-0.6912,-0.7617,-0.8986,-1.1013,-1.1881,-1.3371,-1.5438,-1.5538,-1.5631,-1.5825,-1.5832,-1.5832,-1.5832,-1.5832,-1.5732,-1.5538,-1.5344,-1.5473,-1.5836,-1.7051,-1.7893,-1.8532,-1.9697,-1.9971,-1.9639,-1.8779,-1.8437,-1.8408,-1.8125,-1.793,-1.8081,0.0,0.0,0.0,0.0,0.0,0.0,0.0,0.0,0.0,0.0,0.0,0.0,0.0,0.0,0.0,0.0,0.0,0.0,0.0,0.0,0.0,0.0,0.0,0.0,0.0,0.0,0.0,0.0,0.0,0.0,0.0,0.0,0.0,0.0,0.0,0.0,0.0,0.0,0.0,0.0,0.0,0.0,0.7888,0.0,0.0,0.0,0.0,0.0,0.0,0.0,0.0,0.0,0.0,0.0,0.0,0.0,0.0,0.0,0.0,0.0,0.0,0.0,0.0,0.0,0.0,0.0,0.0,0.0,0.0,0.0,0.0,0.0,0.0,0.0,0.0,0.0,-0.2896,-0.4141,-0.5278,-0.6425,-0.7021,-0.7268,-0.699,-0.7221,-0.7387,-0.7394,-0.7655,-0.896,-1.1522,-1.1732,-1.3011,-1.5635,-1.573,-1.573,-1.5832,-1.5832,-1.5832,-1.5832,-1.5832,-1.5825,-1.5812,-1.5805,-1.5491,-1.5136,-1.7272,-1.7826,-1.7513,-1.9678,-2.0566,-2.0478,-1.9639,-1.9307,-1.9307,-1.9287,-1.9014,-1.8844,0.0,0.0,0.0,0.0,0.0,0.0,0.0,0.0,0.0,0.0,0.0,0.0,0.0,0.0,0.0,0.0,0.0,0.0,0.0,0.0,0.0,0.0,0.0,0.0,0.0,0.0,0.0,0.0,0.0,0.0,0.0,0.0,0.0,0.0,0.0,0.0,0.0,0.0,0.0,0.0,0.0,0.0,0.8745,0.0,0.0,0.0,0.0,0.0,0.0,0.0,0.0,0.0,0.0,0.0,0.0,0.0,0.0,0.0,0.0,0.0,0.0,0.0,0.0,0.0,0.0,0.0,0.0,0.0,0.0,0.0,0.0,0.0,0.0,0.0,0.0,-0.1055,-0.3154,-0.4279,-0.5532,-0.7068,-0.7434,-0.759,-0.7719,-0.7706,-0.7736,-0.7848,-0.7929,-0.8659,-1.0405,-1.0453,-1.1745,-1.4364,-1.4459,-1.4854,-1.5825,-1.5832,-1.5832,-1.5832,-1.5832,-1.5718,-1.5504,-1.5297,-1.5117,-1.5116,-1.6776,-1.759,-1.7796,-1.9799,-2.0566,-2.0508,-1.9951,-1.9746,-1.9707,-1.9404,-1.9423,-1.9644,0.0,0.0,0.0,0.0,0.0,0.0,0.0,0.0,0.0,0.0,0.0,0.0,0.0,0.0,0.0,0.0,0.0,0.0,0.0,0.0,0.0,0.0,0.0,0.0,0.0,0.0,0.0,0.0,0.0,0.0,0.0,0.0,0.0,0.0,0.0,0.0,0.0,0.0,0.0,0.0,0.0,0.0,0.9893,0.9132,0.9178,0.9542,0.8781,0.8759,0.9039,0.8196,0.0,0.0,0.0,0.0,0.0,0.0,0.0,0.0,0.0,0.0,0.0,0.0,0.0,0.0,0.0,0.0,0.0,0.0,0.0,0.0,0.0,0.0,0.0,0.0,-0.0473,-0.1504,-0.3484,-0.4222,-0.5324,-0.7541,-0.7784,-0.7851,-0.8024,-0.796,-0.7943,-0.8031,-0.8038,-0.8656,-1.0004,-1.0529,-1.1497,-1.3149,-1.413,-1.4752,-1.5045,-1.5534,-1.5832,-1.5832,-1.5832,-1.5745,-1.5571,-1.5277,-1.5144,-1.5291,-1.7025,-1.7746,-1.7962,-2.023,-2.1006,0.0,0.0,0.0,0.0,0.0,-1.9948,-2.0555,0.0,0.0,0.0,0.0,0.0,0.0,0.0,0.0,0.0,0.0,0.0,0.0,0.0,0.0,0.0,0.0,0.0,0.0,0.0,0.0,0.0,0.0,0.0,0.0,0.0,0.0,0.0,0.0,0.0,0.0,0.0,0.0,0.0,0.0,0.0,0.0,0.0,0.0,0.0,0.0,0.0,0.0,1.1082,1.0528,1.0795,1.1369,1.0555,1.0264,1.0141,0.9539,0.0,0.0,0.0,0.0,0.0,0.0,0.0,0.0,0.0,0.0,0.0,0.0,0.0,0.0,0.0,0.0,0.0,0.0,0.0,0.0,0.0,0.0,0.0,0.0,-0.1128,-0.2471,-0.3813,-0.4124,-0.5236,-0.771,-0.8038,-0.8045,-0.8065,-0.8052,-0.8055,-0.8085,-0.8075,-0.8625,-0.9985,0.0,0.0,0.0,0.0,-1.4981,-1.4166,-1.5242,-1.5832,-1.5832,-1.5832,-1.5832,-1.5818,-1.5531,-1.5398,-1.5463,-1.7492,-1.8201,-1.8054,-2.0726,-2.1582,-2.1191,-2.0791,-2.0605,-2.0508,-2.0078,-2.0416,-2.1136,0.0,0.0,0.0,0.0,0.0,0.0,0.0,0.0,0.0,0.0,0.0,0.0,0.0,0.0,0.0,0.0,0.0,0.0,0.0,0.0,0.0,0.0,0.0,0.0,0.0,0.0,0.0,0.0,0.0,0.0,0.0,0.0,0.0,0.0,0.0,0.0,0.0,0.0,0.0,0.0,0.0,0.0,1.2011,1.1663,1.1637,1.173,1.1316,1.1633,1.2164,1.1512,1.1041,1.0601,0.9953,0.0,0.0,0.0,0.0,0.0,0.0,0.0,0.0,0.0,0.0,0.0,0.0,0.0,0.0,0.0,0.0,0.0,0.0,0.0,0.0,0.0,-0.1098,-0.2492,-0.3937,-0.5181,-0.638,-0.7846,-0.8038,-0.8089,-0.8214,-0.8113,-0.814,-0.8377,-0.8292,-0.8388,-0.8841,-0.9027,-1.008,-1.2169,-1.2621,-1.3693,-1.5439,-1.5635,-1.5832,-1.5832,0.0,0.0,-1.5818,-1.5531,-1.5398,-1.5456,-1.7156,-1.8025,-1.8471,-2.0447,-2.1309,-2.1221,-2.1143,-2.0889,-2.0508,-2.0078,-1.9987,-2.0356,0.0,0.0,0.0,0.0,0.0,0.0,0.0,0.0,0.0,0.0,0.0,0.0,0.0,0.0,0.0,0.0,0.0,0.0,0.0,0.0,0.0,0.0,0.0,0.0,0.0,0.0,0.0,0.0,0.0,0.0,0.0,0.0,0.0,0.0,0.0,0.0,0.0,0.0,0.0,0.0,0.0,0.0,1.3146,1.2705,1.2632,1.2719,1.2425,1.2605,1.2906,1.2533,1.187,1.1358,1.1184,1.0214,0.9026,0.0,0.0,0.0,0.0,0.0,0.0,0.0,0.0,0.0,0.0,0.0,0.0,0.0,0.0,0.1949,0.0,0.0,-0.0177,-0.0931,-0.2227,-0.3604,-0.5037,-0.6448,-0.761,-0.8166,-0.8262,-0.8292,-0.837,-0.8306,-0.8323,-0.8472,-0.8418,-0.8442,-0.8587,-0.9688,-1.0608,-1.1318,-1.3012,-1.4304,-1.4854,-1.5439,-1.5832,-1.5832,-1.5832,-1.5832,-1.5818,-1.5531,-1.5478,-1.5678,-1.7609,-1.8523,-1.8758,-2.0922,-2.1875,-2.1875,-2.1875,-2.1338,-2.0537,-2.0322,-2.0529,-2.1148,0.0,0.0,0.0,0.0,0.0,0.0,0.0,0.0,0.0,0.0,0.0,0.0,0.0,0.0,0.0,0.0,0.0,0.0,0.0,0.0,0.0,0.0,0.0,0.0,0.0,0.0,0.0,0.0,0.0,0.0,0.0,0.0,0.0,0.0,0.0,0.0,0.0,0.0,0.0,0.0,0.0,0.0,1.4115,1.3581,1.3487,1.3519,1.3313,1.3133,1.2999,1.2746,1.2041,1.1366,1.1808,1.1249,1.0448,1.0332,1.0334,0.0,0.0,0.0,0.0,0.0,0.0,0.0,0.0,0.0,0.5163,0.3501,0.3054,0.2472,0.061,0.0091,-0.0473,-0.1761,-0.3225,-0.4631,-0.6112,-0.7541,-0.8462,-0.852,-0.8499,-0.8492,-0.8523,-0.8499,-0.8506,-0.8567,-0.8543,-0.8683,-0.9022,-1.085,-1.1628,-1.1102,-1.397,-1.5102,-1.4268,-1.5337,-1.5832,-1.5832,-1.5832,-1.5832,-1.5818,-1.5585,-1.5578,-1.5826,-1.8104,-1.9137,-1.9306,-2.1701,-2.2588,-2.251,-2.251,-2.1816,-2.082,-2.082,-2.1433,-2.2315,0.0,0.0,0.0,0.0,0.0,0.0,0.0,0.0,0.0,0.0,0.0,0.0,0.0,0.0,0.0,0.0,0.0,0.0,0.0,0.0,0.0,0.0,0.0,0.0,0.0,0.0,0.0,0.0,0.0,0.0,0.0,0.0,0.0,0.0,0.0,0.0,0.0,0.0,0.0,0.0,0.0,0.0,1.4436,1.4115,1.3841,1.3519,1.3313,1.2859,1.2398,1.2365,1.2251,1.2144,1.2265,1.1979,1.1627,1.1076,0.0,0.9576,0.8446,0.71,0.6058,0.6201,0.5759,0.5542,0.0,0.0,0.6029,0.4875,0.4043,0.2995,0.1465,0.0474,-0.0393,-0.18,-0.3116,-0.4583,-0.6208,-0.7525,-0.8391,-0.8655,-0.8564,-0.8533,-0.8672,-0.856,-0.8594,-0.8866,-0.876,-0.9223,-1.0408,-1.0686,-1.1765,-1.3624,-1.4057,-1.471,-1.554,-1.573,-1.5832,-1.5832,-1.5832,-1.5832,-1.5832,-1.5798,-1.5658,-1.5623,-1.8002,-1.9667,-2.0656,-2.237,-2.2852,-2.251,-2.251,-2.2197,-2.1738,-2.1738,-2.21,-2.2801,0.0,0.0,0.0,0.0,0.0,0.0,0.0,0.0,0.0,0.0,0.0,0.0,0.0,0.0,0.0,0.0,0.0,0.0,0.0,0.0,0.0,0.0,0.0,0.0,0.0,0.0,0.0,0.0,0.0,0.0,0.0,0.0,0.0,0.0,0.0,0.0,0.0,0.0,0.0,0.0,0.0,0.0,1.4215,1.3754,1.3173,1.2536,1.2196,1.1916,0.0,0.0,1.0962,1.15,1.1237,1.1312,1.1243,1.0655,1.0468,0.0,0.8714,0.7613,0.675,0.0,0.6096,0.624,0.6614,0.6783,0.6337,0.4527,0.3926,0.3064,0.0971,0.0197,-0.07,0.0,-0.375,-0.4924,-0.7191,-0.8063,-0.8438,-0.8564,-0.852,-0.854,-0.8696,-0.8652,-0.8987,-0.9869,-1.0012,-1.0576,-1.1617,-1.2432,-1.3314,-1.408,-1.4716,-1.5364,-1.5832,-1.5832,-1.5832,-1.5832,-1.5832,-1.5832,-1.5832,-1.5832,-1.6135,-1.6843,-1.8557,-1.9984,-2.1155,-2.2513,-2.3037,-2.2881,-2.2881,-2.2773,-2.2559,-2.207,-2.2613,-2.3656,0.0,0.0,0.0,0.0,0.0,0.0,0.0,0.0,0.0,0.0,0.0,0.0,0.0,0.0,0.0,0.0,0.0,0.0,0.0,0.0,0.0,0.0,0.0,0.0,0.0,0.0,0.0,0.0,0.0,0.0,0.0,0.0,0.0,0.0,0.0,0.0,0.0,0.0,0.0,0.0,0.0,0.0,1.3895,1.3213,1.2405,1.158,1.106,1.0735,0.0,0.0,0.9479,1.029,1.0097,1.0441,1.0788,1.0361,1.0296,1.0072,0.8827,0.0,0.0,0.6552,0.6593,0.6844,0.6929,0.6874,0.6193,0.4117,0.3497,0.2653,0.04,0.0,-0.09,-0.3589,-0.405,-0.5131,-0.7952,-0.8323,-0.8377,-0.8418,-0.8387,-0.8522,-0.9093,-0.9147,-0.9701,-1.1072,-1.13,-1.1866,-1.2837,-1.3836,-1.4424,-1.4564,-1.5351,-1.5832,-1.5832,-1.5832,-1.5832,-1.5832,-1.5832,-1.5832,-1.5832,-1.5832,-1.648,-1.7785,-1.8956,-2.0215,-2.1382,-2.2589,-2.3135,-2.3135,-2.3135,-2.3135,-2.3066,-2.2461,-2.3215,-2.4591,0.0,0.0,0.0,0.0,0.0,0.0,0.0,0.0,0.0,0.0,0.0,0.0,0.0,0.0,0.0,0.0,0.0,0.0,0.0,0.0,0.0,0.0,0.0,0.0,0.0,0.0,0.0,0.0,0.0,0.0,0.0,0.0,0.0,0.0,0.0,0.0,0.0,0.0,0.0,0.0,0.0,0.0,1.3561,1.2665,1.1784,1.0949,1.0213,0.0,0.0,0.0,0.8054,0.8687,0.8949,0.9775,0.0,1.0618,0.9653,0.0,0.0,0.0,0.6883,0.7597,0.7406,0.7207,0.7506,0.6628,0.5482,0.4292,0.2967,0.1664,0.0295,0.0,-0.0883,-0.3523,-0.3973,-0.5054,-0.7939,-0.8143,-0.8109,-0.8258,-0.8143,-0.8603,0.0,-1.024,-1.0863,-1.2206,-1.2314,-1.2827,-1.3992,-1.408,-1.4655,-1.575,-1.5737,-1.5832,-1.5832,-1.5832,-1.5832,-1.5832,-1.5832,-1.5832,-1.5832,-1.5832,-1.648,-1.7785,-1.8956,-2.0215,-2.1382,-2.2589,-2.3135,-2.3135,-2.3135,-2.3135,-2.3135,-2.3105,-2.4136,-2.5596,0.0,0.0,0.0,0.0,0.0,0.0,0.0,0.0,0.0,0.0,0.0,0.0,0.0,0.0,0.0,0.0,0.0,0.0,0.0,0.0,0.0,0.0,0.0,0.0,0.0,0.0,0.0,0.0,0.0,0.0,0.0,0.0,0.0,0.0,0.0,0.0,0.0,0.0,0.0,0.0,0.0,0.0,1.1683,1.0773,0.9728,0.8544,0.0,0.0,0.0,0.0,0.0,0.0,0.7402,0.0,0.0,0.9741,0.0,0.0,0.0,0.0,0.7546,0.7545,0.7545,0.7641,0.7845,0.7456,0.6529,0.4456,0.3582,0.2571,0.0364,0.0,-0.0849,-0.3574,-0.4002,-0.4929,-0.7701,-0.816,-0.8174,-0.8123,-0.8948,0.0,0.0,0.0,0.0,-1.339,-1.374,-1.4259,-1.5216,-1.5466,-1.5635,-1.5838,-1.5832,-1.5832,-1.5832,-1.5832,-1.5832,-1.5832,-1.5832,-1.5832,-1.5832,-1.5832,-1.648,-1.7785,-1.8956,-2.0215,-2.1382,-2.2589,-2.3135,-2.3135,-2.3135,-2.3135,-2.3135,-2.3135,-2.3957,-2.5088,0.0,0.0,0.0,0.0,0.0,0.0,0.0,0.0,0.0,0.0,0.0,0.0,0.0,0.0,0.0,0.0,0.0,0.0,0.0,0.0,0.0,0.0,0.0,0.0,0.0,0.0,0.0,0.0,0.0,0.0,0.0,0.0,0.0,0.0,0.0,0.0,0.0,0.0,0.0,0.0,0.0,0.0,0.9851,0.9046,0.8171,0.0,0.0,0.0,0.0,0.0,0.0,0.0,0.0,0.0,0.0,0.0,0.0,0.0,0.0,0.8143,0.7794,0.7778,0.7834,0.797,0.796,0.7446,0.6423,0.439,0.3417,0.243,0.0341,0.0,-0.0888,-0.3506,-0.3933,-0.4867,-0.7608,-0.8079,-0.813,-0.8191,-0.9435,-1.0746,0.0,0.0,0.0,-1.4533,-1.4973,-1.5331,-1.5757,-1.6112,-1.6139,-1.5838,-1.5832,-1.5832,-1.5832,-1.5832,-1.5832,-1.5832,-1.5832,-1.5832,-1.5832,-1.5832,-1.6756,-1.8411,-1.9131,-2.0395,-2.2031,-2.2775,-2.3135,-2.3135,-2.3135,-2.3135,-2.3135,-2.3135,-2.3551,-2.431,0.0,0.0,0.0,0.0,0.0,0.0,0.0,0.0,0.0,0.0,0.0,0.0,0.0,0.0,0.0,0.0,0.0,0.0,0.0,0.0,0.0,0.0,0.0,0.0,0.0,0.0,0.0,0.0,0.0,0.0,0.0,0.0,0.0,0.0,0.0,0.0,0.0,0.0,0.0,0.0,0.0,0.0,0.8185,0.7612,0.0,0.0,0.0,0.0,0.0,0.0,0.0,0.0,0.0,0.0,0.0,0.0,0.0,0.8411,0.8272,0.7825,0.7563,0.813,0.8272,0.8187,0.7872,0.6715,0.5322,0.4028,0.2657,0.1322,0.0,0.0,-0.0823,-0.3428,-0.3796,-0.4802,-0.7668,-0.794,-0.8011,0.0,0.0,0.0,0.0,0.0,0.0,-1.5797,0.0,-1.6152,-1.5865,-1.6119,-1.6139,-1.5838,-1.5832,-1.5832,-1.5832,-1.5832,-1.5832,-1.5832,-1.5832,-1.5832,-1.5832,-1.5832,-1.7117,-1.9497,-1.9497,-2.0854,-2.3135,-2.3135,-2.3135,-2.3135,-2.3135,-2.3125,-2.3105,-2.3105,-2.3096,-2.3258,0.0,0.0,0.0,0.0,0.0,0.0,0.0,0.0,0.0,0.0,0.0,0.0,0.0,0.0,0.0,0.0,0.0,0.0,0.0,0.0,0.0,0.0,0.0,0.0,0.0,0.0,0.0,0.0,0.0,0.0,0.0,0.0,0.0,0.0,0.0,0.0,0.0,0.0,0.0,0.0,0.0,0.0,0.6597,0.0,0.0,0.0,0.0,0.0,0.0,0.0,0.0,0.0,0.0,0.0,1.0536,0.0,0.0,0.9503,0.8874,0.8497,0.8211,0.8258,0.8272,0.8163,0.7746,0.7168,0.6128,0.4114,0.3153,0.2186,0.0,0.0,0.0,-0.3519,-0.404,0.0,-0.7864,-0.8367,0.0,-1.0028,0.0,-1.3005,-1.4163,-1.5586,0.0,0.0,-1.6353,-1.6239,-1.6166,-1.6233,-1.6139,-1.5838,-1.5832,-1.5832,-1.5832,-1.5832,-1.5832,-1.5832,-1.5832,-1.5832,-1.5832,-1.5832,-1.7117,-1.9497,-1.9497,-2.0854,-2.3135,-2.3135,-2.3135,-2.3135,-2.3135,-2.2949,-2.2676,-2.2676,-2.2471,-2.2296,0.0,0.0,0.0,0.0,0.0,0.0,0.0,0.0,0.0,0.0,0.0,0.0,0.0,0.0,0.0,0.0,0.0,0.0,0.0,0.0,0.0,0.0,0.0,0.0,0.0,0.0,0.0,0.0,0.0,0.0,0.0,0.0,0.0,0.0,0.0,0.0,0.0,0.0,0.0,0.0,0.0,0.0,0.0,0.0,0.0,0.0,0.0,0.0,0.0,0.0,0.0,0.7461,0.7931,0.891,0.9884,0.9566,0.0,0.9427,0.8821,0.8628,0.8462,0.8384,0.8265,0.8018,0.7438,0.6851,0.5811,0.368,0.2856,0.0,0.0333,-0.0354,0.0,0.0,0.0,0.0,-0.7998,-0.8414,-0.8895,0.0,-1.199,0.0,-1.4366,-1.633,-1.7475,0.0,-1.6894,-1.66,-1.6473,-1.6466,-1.6326,-1.6032,-1.5899,-1.5832,-1.5832,-1.5832,-1.5832,-1.5832,-1.5832,-1.5832,-1.5825,-1.6386,-1.7669,-1.9497,0.0,-2.14,-2.3135,-2.3135,-2.3135,-2.3135,-2.3135,-2.2881,-2.251,-2.251,-2.2246,-2.2063,0.0,0.0,0.0,0.0,0.0,0.0,0.0,0.0,0.0,0.0,0.0,0.0,0.0,0.0,0.0,0.0,0.0,0.0,0.0,0.0,0.0,0.0,0.0,0.0,0.0,0.0,0.0,0.0,0.0,0.0,0.0,0.0,0.0,0.0,0.0,0.0,0.0,0.0,0.0,0.0,0.0,0.0,0.0,0.0,0.0,0.0,0.0,0.0,0.0,0.0,0.6528,0.7344,0.7227,0.7983,0.8792,0.8438,0.871,0.8936,0.8642,0.8496,0.8506,0.8486,0.8241,0.7717,0.689,0.5987,0.4849,0.3096,0.0,0.1086,0.0,-0.1012,-0.2244,-0.3764,0.0,-0.6198,-0.8073,-0.8333,-0.8659,-0.9423,-1.1935,-1.3753,-1.4122,-1.6594,-1.813,-1.8056,-1.7562,-1.7121,-1.678,-1.6767,-1.6613,-1.6286,-1.6019,-1.5872,-1.5832,-1.5832,-1.5832,-1.5832,-1.5832,-1.592,-1.6109,-1.7225,-1.8411,-1.9761,-2.0845,0.0,-2.3135,-2.3135,-2.3135,-2.3135,-2.3135,-2.2852,-2.2432,-2.2432,-2.2129,-2.1977,0.0,0.0,0.0,0.0,0.0,0.0,0.0,0.0,0.0,0.0,0.0,0.0,0.0,0.0,0.0,0.0,0.0,0.0,0.0,0.0,0.0,0.0,0.0,0.0,0.0,0.0,0.0,0.0,0.0,0.0,0.0,0.0,0.0,0.0,0.0,0.0,0.0,0.0,0.0,0.0,0.0,0.0,0.0,0.0,0.0,0.0,0.0,0.0,0.0,0.0,0.6355,0.7662,0.8613,0.951,1.0138,0.9444,0.955,0.9589,0.8727,0.8574,0.8638,0.8513,0.8163,0.7462,0.6129,0.5385,0.0,0.0,0.1018,0.0,-0.0899,-0.1885,-0.3054,-0.4824,-0.5349,-0.6239,-0.823,-0.8662,-0.9336,0.0,-1.2866,-1.4619,-1.5642,-1.7503,0.0,0.0,-1.7949,-1.7649,-1.7101,-1.7074,-1.6827,-1.6293,-1.6219,-1.6079,-1.5832,-1.5832,-1.5832,-1.5832,-1.5832,-1.6386,-1.7412,-1.7598,-1.8864,-2.1025,-2.1203,0.0,-2.3135,-2.3135,-2.3135,-2.3135,-2.3135,-2.2676,-2.1992,-2.1992,-2.1484,-2.0928,0.0,0.0,0.0,0.0,0.0,0.0,0.0,0.0,0.0,0.0,0.0,0.0,0.0,0.0,0.0,0.0,0.0,0.0,0.0,0.0,0.0,0.0,0.0,0.0,0.0,0.0,0.0,0.0,0.0,0.0,0.0,0.0,0.0,0.0,0.0,0.0,0.0,0.0,0.0,0.0,0.0,0.0,0.0,0.0,0.0,0.0,0.0,0.0,0.0,0.0,0.5812,0.6811,0.7737,0.8529,0.9015,0.8802,0.8937,0.9127,0.8769,0.8598,0.8464,0.7648,0.712,0.6291,0.4711,0.0,0.0,0.0,-0.0444,-0.154,-0.1928,-0.2924,0.0,-0.4944,-0.5759,-0.6644,-0.7928,-0.8397,-0.8942,-1.0103,-1.2735,-1.4619,0.0,-1.7526,-1.8744,-1.831,-1.8136,-1.7849,-1.7402,-1.7235,-1.6881,-1.6293,-1.6273,-1.6126,-1.5832,-1.5832,-1.5832,-1.5832,-1.5832,-1.6109,-1.6763,-1.7412,-1.868,-2.0395,-2.1025,0.0,-2.3135,-2.3135,-2.3135,-2.3135,-2.3135,-2.2754,-2.2207,-2.2207,-2.166,-2.1135,0.0,0.0,0.0,0.0,0.0,0.0,0.0,0.0,0.0,0.0,0.0,0.0,0.0,0.0,0.0,0.0,0.0,0.0,0.0,0.0,0.0,0.0,0.0,0.0,0.0,0.0,0.0,0.0,0.0,0.0,0.0,0.0,0.0,0.0,0.0,0.0,0.0,0.0,0.0,0.0,0.0,0.0,0.0,0.0,0.0,0.0,0.0,0.0,0.0,0.0,0.4789,0.5266,0.5949,0.6599,0.7169,0.7096,0.7311,0.7617,0.7754,0.7608,0.7314,0.6255,0.5623,0.4924,0.3218,0.1546,0.0,0.0,-0.1799,-0.2975,-0.301,0.0,-0.4812,0.0,-0.6009,-0.6922,-0.7702,-0.8102,-0.8628,0.0,-1.251,0.0,-1.5053,-1.7499,0.0,-1.8604,-1.825,-1.7909,-1.7602,-1.7368,-1.6974,-1.6386,-1.6366,-1.6192,-1.5832,-1.5832,-1.5832,-1.5832,-1.5832,-1.592,-1.6292,-1.7498,-1.8772,-1.9943,-2.1114,0.0,0.0,-2.3135,-2.3135,-2.3135,-2.3135,-2.2881,-2.25,-2.2412,-2.1894,-2.1451,0.0,0.0,0.0,0.0,0.0,0.0,0.0,0.0,0.0,0.0,0.0,0.0,0.0,0.0,0.0,0.0,0.0,0.0,0.0,0.0,0.0,0.0,0.0,0.0,0.0,0.0,0.0,0.0,0.0,0.0,0.0,0.0,0.0,0.0,0.0,0.0,0.0,0.0,0.0,0.0,0.0,0.0,0.0,0.0,0.0,0.0,0.0,0.0,0.0,0.0,0.0,0.3218,0.3572,0.4552,0.5484,0.4602,0.0,0.0,0.4656,0.4565,0.4561,0.4455,0.4103,0.352,0.2386,0.0,0.0,0.0,0.0,-0.3921,-0.4049,0.0,0.0,0.0,0.0,-0.68,-0.7685,-0.8187,-0.9161,-1.109,0.0,0.0,-1.6586,-1.8377,-1.9205,-1.8905,-1.8364,-1.7909,-1.7602,-1.7555,-1.7275,-1.6687,-1.6667,-1.6393,-1.5832,-1.5832,-1.5832,-1.5832,-1.5832,-1.6386,-1.7591,-1.8772,-2.0034,-2.1203,-2.2403,0.0,0.0,-2.3135,-2.3135,-2.3135,-2.3135,-2.2881,-2.2471,-2.209,-2.1641,-2.1402,0.0,0.0,0.0,0.0,0.0,0.0,0.0,0.0,0.0,0.0,0.0,0.0,0.0,0.0,0.0,0.0,0.0,0.0,0.0,0.0,0.0,0.0,0.0,0.0,0.0,0.0,0.0,0.0,0.0,0.0,0.0,0.0,0.0,0.0,0.0,0.0,0.0,0.0,0.0,0.0,0.0,0.0,0.0,0.0,0.0,0.0,0.0,0.0,0.0,0.0,0.0,0.0,0.2145,0.245,0.0,0.0,0.404,0.4155,0.4177,0.4243,0.386,0.2188,0.1819,0.1299,-0.075,0.0,0.0,0.0,0.0,-0.4866,-0.4992,-0.5329,0.0,0.0,0.0,0.0,-0.7041,-0.7448,-0.8488,-1.0619,-1.2654,0.0,0.0,0.0,-1.8718,-1.8417,-1.8163,-1.7896,-1.7595,-1.7415,-1.7134,-1.672,-1.6533,-1.6246,-1.5832,-1.5832,-1.5832,-1.5832,-1.5832,-1.648,-1.7692,-1.8234,-1.9488,-2.1293,-2.1845,0.0,0.0,-2.3135,-2.3135,-2.3135,-2.3135,-2.3037,-2.2871,-2.2705,-2.2217,-2.1917,0.0,0.0,0.0,0.0,0.0,0.0,0.0,0.0,0.0,0.0,0.0,0.0,0.0,0.0,0.0,0.0,0.0,0.0,0.0,0.0,0.0,0.0,0.0,0.0,0.0,0.0,0.0,0.0,0.0,0.0,0.0,0.0,0.0,0.0,0.0,0.0,0.0,0.0,0.0,0.0,0.0,0.0,0.0,0.0,0.0,0.0,0.0,0.0,0.0,0.0,0.0,0.0,0.0,0.0,0.0,0.0,0.2832,0.2992,0.2932,0.2715,0.1944,0.0102,-0.0471,-0.0943,0.0,0.0,0.0,0.0,0.0,-0.541,-0.5562,-0.5589,-0.5688,0.0,0.0,-0.6132,-0.6688,-0.7277,-0.8539,-1.0681,0.0,-1.4595,0.0,-1.7817,-1.8437,-1.8317,-1.813,-1.7936,-1.7729,-1.7361,-1.7014,-1.6714,-1.6426,-1.6126,-1.5832,-1.5832,-1.5832,-1.5832,-1.5832,-1.648,-1.7684,-1.8048,-1.9131,-2.0845,-2.148,0.0,0.0,-2.296,-2.3135,-2.3135,-2.3135,-2.3066,-2.2939,-2.2812,-2.2314,-2.1987,0.0,0.0,0.0,0.0,0.0,0.0,0.0,0.0,0.0,0.0,0.0,0.0,0.0,0.0,0.0,0.0,0.0,0.0,0.0,0.0,0.0,0.0,0.0,0.0,0.0,0.0,0.0,0.0,0.0,0.0,0.0,0.0,0.0,0.0,0.0,0.0,0.0,0.0,0.0,0.0,0.0,0.0,0.0,0.0,0.0,0.0,0.0,0.0,0.0,0.0,0.0,0.0,0.0,0.0,0.0,0.0,0.0078,0.0,0.0,-0.0882,-0.1913,-0.1812,-0.2526,-0.3252,0.0,0.0,0.0,0.0,0.0,-0.541,-0.5562,-0.5589,-0.5688,-0.5983,-0.6159,0.0,-0.6865,-0.8136,-0.9815,0.0,0.0,-1.5276,-1.743,-1.8136,-1.8611,-1.8891,-1.8377,0.0,-1.8043,-1.7475,-1.7014,-1.6714,-1.6426,-1.6126,-1.5832,-1.5832,-1.5832,-1.5832,-1.5832,-1.648,-1.7777,-1.8956,-1.9488,-1.9679,0.0,0.0,0.0,-2.2589,-2.3135,-2.3135,-2.3135,-2.2881,-2.2471,-2.2051,-2.1621,-2.1411,0.0,0.0,0.0,0.0,0.0,0.0,0.0,0.0,0.0,0.0,0.0,0.0,0.0,0.0,0.0,0.0,0.0,0.0,0.0,0.0,0.0,0.0,0.0,0.0,0.0,0.0,0.0,0.0,0.0,0.0,0.0,0.0,0.0,0.0,0.0,0.0,0.0,0.0,0.0,0.0,0.0,0.0,0.0,0.0,0.0,0.0,0.0,0.0,0.0,0.0,0.0,0.0,0.0,0.0,0.0,0.0,0.0,0.0,-0.0648,-0.1098,-0.174,-0.3079,-0.3441,-0.3753,-0.4731,0.0,0.0,0.0,0.0,0.0,-0.5562,-0.5504,-0.5599,-0.6105,-0.6139,0.0,0.0,0.0,0.0,-1.3307,-1.5809,-1.7443,0.0,0.0,-1.8444,-1.833,-1.815,-1.7956,-1.7742,-1.7168,-1.68,-1.6707,-1.6426,-1.6126,-1.5832,-1.5832,-1.5832,-1.5832,-1.5832,-1.6936,-1.8956,-1.8503,-1.9596,0.0,0.0,0.0,0.0,-2.295,-2.3135,-2.3135,-2.3135,-2.2881,-2.249,-2.2363,-2.1855,-2.1441,0.0,0.0,0.0,0.0,0.0,0.0,0.0,0.0,0.0,0.0,0.0,0.0,0.0,0.0,0.0,0.0,0.0,0.0,0.0,0.0,0.0,0.0,0.0,0.0,0.0,0.0,0.0,0.0,0.0,0.0,0.0,0.0,0.0,0.0,0.0,0.0,0.0,0.0,0.0,0.0,0.0,0.0,-0.4519,0.0,0.0,0.0,0.0,0.0,0.0,0.0,0.0,0.0,0.0,0.0,0.0,0.0,0.0,0.0,0.0,-0.1675,-0.2595,-0.3789,-0.4254,0.0,0.0,0.0,0.0,0.0,0.0,0.0,-0.5488,-0.5471,-0.5589,-0.6017,-0.635,-0.7034,0.0,0.0,0.0,-1.4694,0.0,0.0,0.0,-1.815,-1.8123,-1.805,-1.7943,-1.7736,-1.7435,-1.7074,-1.6767,-1.6553,-1.6259,-1.6019,-1.5832,-1.5832,-1.5832,-1.5832,-1.6292,-1.7311,-1.8772,-1.8503,-1.9596,0.0,0.0,0.0,0.0,-2.295,-2.3135,-2.3125,-2.2959,-2.2646,-2.2256,-2.209,-2.1592,-2.1283,0.0,0.0,0.0,0.0,0.0,0.0,0.0,0.0,0.0,0.0,0.0,0.0,0.0,0.0,0.0,0.0,0.0,0.0,0.0,0.0,0.0,0.0,0.0,0.0,0.0,0.0,0.0,0.0,-0.2246,-0.2718,-0.2726,0.0,0.0,0.0,0.0,0.0,0.0,-0.3065,-0.379,0.0,0.0,-0.4519,0.0,0.0,0.0,0.0,0.0,0.0,0.0,0.0,0.0,0.0,0.0,0.0,0.0,0.0,0.0,0.0,0.0,0.0,0.0,0.0,0.0,0.0,0.0,0.0,0.0,0.0,0.0,0.0,0.0,-0.5501,-0.5647,-0.582,-0.6838,-0.7863,0.0,-1.1262,0.0,0.0,-1.6887,0.0,-1.7562,-1.7582,-1.7702,-1.7989,-1.7722,-1.7435,-1.7161,-1.7108,-1.6834,-1.6293,-1.5985,-1.5832,-1.5832,-1.5832,-1.5832,-1.5825,-1.7037,-1.7598,-1.7684,-1.8772,-1.9397,0.0,0.0,0.0,0.0,-2.2639,-2.3096,-2.3057,-2.2627,-2.2227,-2.1836,-2.1396,-2.0947,-2.0867,0.0,0.0,0.0,0.0,0.0,0.0,0.0,0.0,0.0,0.0,0.0,0.0,0.0,0.0,0.0,0.0,0.0,0.0,0.0,0.0,0.0,0.0,0.0,0.0,0.0,0.0,0.0,-0.2229,-0.2539,-0.2827,-0.3023,-0.3042,0.0,0.0,0.0,0.0,-0.3065,-0.3901,-0.4349,0.0,-0.4519,-0.4519,0.0,0.0,0.0,0.0,-0.4519,-0.4502,0.0,0.0,0.0,0.0,0.0,0.0,0.0,0.0,-0.2998,0.0,0.0,0.0,0.0,0.0,0.0,0.0,0.0,0.0,0.0,0.0,0.0,0.0,0.0,0.0,-0.5749,-0.6237,-0.7274,-0.8608,-1.0169,-1.3677,0.0,-1.7208,-1.7809,-1.8016,-1.7622,-1.7582,-1.7609,-1.7689,-1.7422,-1.7221,-1.7154,-1.672,-1.6413,-1.6279,-1.5985,-1.5832,-1.5832,-1.5832,-1.5832,-1.5832,-1.6109,-1.6763,-1.7692,-1.6936,-1.8203,0.0,0.0,0.0,-2.2208,-2.2485,-2.2656,-2.2617,-2.2197,-2.1973,-2.1836,-2.1396,-2.0947,-2.0867,0.0,0.0,0.0,0.0,0.0,0.0,0.0,0.0,0.0,0.0,0.0,0.0,0.0,0.0,0.0,0.0,0.0,0.0,0.0,0.0,0.0,0.0,0.0,0.0,0.0,0.0,0.0,0.0,0.0,-0.4102,0.0,0.0,0.0,0.0,0.0,0.0,-0.3345,-0.4181,-0.4519,-0.4519,-0.4519,0.0,0.0,0.0,0.0,0.0,-0.4597,-0.4619,0.0,-0.4942,-0.5016,-0.4964,0.0,0.0,0.0,0.0,-0.4019,0.0,0.0,0.0,0.0,0.0,0.0,0.0,0.0,0.0,0.0,0.0,0.0,0.0,0.0,0.0,0.0,0.0,-0.8225,0.0,0.0,0.0,-1.7054,-1.7348,-1.7796,-1.7943,0.0,-1.7582,-1.7528,-1.7395,-1.7241,-1.7034,-1.676,-1.6446,-1.6213,-1.6072,-1.5912,-1.5832,-1.5832,-1.5832,-1.5832,-1.5832,-1.6386,-1.6763,-1.685,-1.7304,-1.8572,0.0,0.0,0.0,-2.251,-2.251,-2.2402,-2.2178,-2.1758,-2.1592,-2.1533,-2.1094,-2.1075,-2.1451,0.0,0.0,0.0,0.0,0.0,0.0,0.0,0.0,0.0,0.0,0.0,0.0,0.0,0.0,0.0,0.0,0.0,0.0,0.0,0.0,0.0,0.0,0.0,0.0,0.0,0.0,0.0,0.0,0.0,0.0,0.0,0.0,0.0,0.0,0.0,0.0,-0.3511,-0.4236,-0.4519,-0.4519,-0.4519,0.0,0.0,0.0,0.0,0.0,0.0,0.0,0.0,-0.5047,-0.5145,-0.5182,-0.5291,0.0,0.0,0.0,0.0,0.0,0.0,0.0,0.0,0.0,0.0,0.0,0.0,0.0,0.0,0.0,0.0,0.0,0.0,0.0,0.0,0.0,0.0,0.0,-1.5081,-1.6313,-1.6914,-1.7121,-1.7448,0.0,-1.7522,-1.7515,-1.7415,-1.7271,-1.7068,-1.68,-1.6299,-1.6226,-1.6086,-1.5838,-1.5832,-1.5832,-1.5832,-1.5832,-1.5832,-1.5825,-1.685,-1.6943,-1.6204,-1.8311,-1.9405,-1.9852,0.0,0.0,-2.2412,-2.2344,-2.2109,-2.1748,-2.1309,-2.1172,-2.1182,-2.0732,-2.1078,-2.1962,0.0,0.0,0.0,0.0,0.0,0.0,0.0,0.0,0.0,0.0,0.0,0.0,0.0,0.0,0.0,0.0,0.0,0.0,0.0,0.0,0.0,0.0,0.0,0.0,0.0,0.0,0.0,0.0,0.0,0.0,-0.6407,-0.6536,-0.6156,0.0,0.0,-0.4525,-0.4349,-0.446,-0.4519,-0.4519,-0.4519,0.0,0.0,0.0,0.0,0.0,0.0,0.0,0.0,-0.5114,-0.5216,-0.5308,-0.5199,0.0,0.0,0.0,0.0,0.0,0.0,0.0,0.0,0.0,0.0,0.0,0.0,0.0,0.0,0.0,0.0,0.0,0.0,0.0,-0.7902,0.0,0.0,-1.4019,0.0,0.0,-1.7375,-1.7174,0.0,-1.7776,-1.7268,-1.7215,-1.7194,-1.7154,-1.6687,-1.6366,-1.6279,-1.6032,-1.5879,-1.5832,-1.5832,-1.5832,-1.5832,-1.5832,-1.5832,-1.5832,-1.6015,-1.6574,-1.7412,-1.7777,-1.9131,-2.1007,0.0,-2.1209,-2.1953,-2.1582,-2.1396,-2.1289,-2.084,-2.0898,-2.1182,-2.0732,-2.0712,-2.1088,0.0,0.0,0.0,0.0,0.0,0.0,0.0,0.0,0.0,0.0,0.0,0.0,0.0,0.0,0.0,0.0,0.0,0.0,0.0,0.0,0.0,0.0,0.0,0.0,0.0,0.0,0.0,0.0,0.0,-0.6474,-0.6824,-0.641,-0.5908,-0.5404,0.0,-0.4584,-0.4519,-0.4519,-0.4519,-0.4519,0.0,0.0,0.0,0.0,0.0,0.0,0.0,0.0,0.0,0.0,-0.5128,-0.5138,-0.5226,0.0,0.0,0.0,0.0,0.0,0.0,0.0,0.0,0.0,0.0,0.0,0.0,0.0,0.0,0.0,0.0,0.0,0.0,0.0,-0.9776,-1.1377,0.0,-1.5293,-1.65,-1.6941,-1.7121,0.0,0.0,-1.7275,-1.7161,-1.7007,-1.6847,-1.6687,0.0,0.0,-1.6039,-1.5905,-1.5832,-1.5832,-1.5832,-1.5832,-1.5832,-1.5671,-1.5671,-1.5832,-1.648,-1.7131,-1.7777,-1.8846,-1.9915,-2.0959,0.0,-2.1406,-2.1523,-2.1318,-2.1094,-2.085,-2.0644,-2.0693,-2.0997,-2.1828,-2.2199,-2.2489,0.0,0.0,0.0,0.0,0.0,0.0,0.0,0.0,0.0,0.0,0.0,0.0,0.0,0.0,0.0,0.0,0.0,0.0,0.0,0.0,0.0,0.0,0.0,0.0,0.0,0.0,0.0,-0.6366,-0.6627,-0.6851,-0.7021,-0.6264,-0.5694,0.0,0.0,-0.4551,-0.457,-0.457,-0.4591,-0.4565,0.0,0.0,0.0,0.0,0.0,0.0,0.0,0.0,0.0,0.0,0.0,0.0,0.0,0.0,0.0,0.0,0.0,-0.5435,-0.5406,0.0,0.0,0.0,0.0,0.0,0.0,0.0,0.0,0.0,0.0,0.0,0.0,-1.0568,0.0,-1.3958,-1.5311,-1.6239,-1.6827,-1.6907,-1.6967,-1.7134,-1.6947,-1.6874,-1.7034,-1.678,-1.6513,-1.6293,0.0,0.0,-1.5838,-1.5832,-1.5798,-1.5732,-1.5732,-1.5698,-1.5625,-1.5404,-1.5478,-1.5825,-1.7051,-1.7787,-1.8218,-1.9918,-2.0889,-2.1139,-2.1527,-2.1543,-2.123,-2.1123,-2.0879,-2.0566,-2.0566,-2.0566,-2.0789,-2.2264,-2.3073,-2.3745,0.0,0.0,0.0,0.0,0.0,0.0,0.0,0.0,0.0,0.0,0.0,0.0,0.0,0.0,0.0,0.0,0.0,0.0,0.0,0.0,0.0,0.0,0.0,0.0,0.0,-0.5701,-0.5935,-0.6668,-0.6831,-0.6851,-0.6725,-0.6386,-0.584,-0.5138,0.0,-0.4806,-0.4674,-0.4674,-0.4755,-0.4874,-0.4731,0.0,0.0,0.0,0.0,0.0,0.0,0.0,0.0,0.0,0.0,0.0,0.0,0.0,0.0,0.0,0.0,-0.5459,-0.5535,-0.7125,0.0,0.0,0.0,0.0,0.0,0.0,0.0,0.0,0.0,0.0,0.0,-1.1792,-1.345,-1.5356,-1.6175,-1.6847,-1.7435,0.0,-1.7428,-1.7181,-1.7134,-1.7014,-1.676,-1.6473,-1.6293,0.0,0.0,0.0,-1.5832,-1.5832,-1.5705,-1.5438,-1.5431,-1.5297,-1.503,-1.501,-1.5277,-1.5825,-1.6805,-1.7985,-1.9389,-2.0272,-2.1339,-2.2291,-2.1559,-2.126,-2.1201,-2.0781,-2.0596,-2.0566,-2.0566,-2.0566,-2.0644,-2.0789,-2.1973,-2.3514,0.0,0.0,0.0,0.0,0.0,0.0,0.0,0.0,0.0,0.0,0.0,0.0,0.0,0.0,0.0,0.0,0.0,0.0,0.0,0.0,0.0,0.0,0.0,-0.5182,-0.5745,-0.6006,-0.6369,-0.6844,-0.6902,-0.6803,-0.6549,-0.6067,0.0,0.0,0.0,-0.4887,-0.4833,-0.4833,-0.4867,-0.4914,-0.4857,-0.4833,0.0,0.0,0.0,0.0,0.0,0.0,0.0,0.0,0.0,0.0,0.0,0.0,0.0,0.0,0.0,0.0,-0.6156,-0.7528,0.0,0.0,0.0,0.0,0.0,0.0,0.0,0.0,0.0,0.0,0.0,0.0,-1.4559,-1.5624,-1.6319,-1.678,-1.7007,-1.7194,-1.7208,-1.6907,-1.6714,-1.656,-1.6446,-1.6172,0.0,0.0,0.0,0.0,-1.5571,-1.5558,-1.5431,-1.5137,-1.5124,-1.5077,-1.4963,-1.5455,-1.5913,-1.6342,-1.6743,-1.7977,-1.9852,-1.9987,-2.0588,-2.168,-2.1084,-2.082,-2.081,-2.0635,-2.0566,-2.0566,-2.0566,-2.0566,-2.0634,-2.1221,-2.2328,-2.3588,0.0,0.0,0.0,0.0,0.0,0.0,0.0,0.0,0.0,0.0,0.0,0.0,0.0,0.0,0.0,0.0,0.0,0.0,0.0,0.0,0.0,0.0,0.0,-0.5084,-0.5437,-0.5979,-0.6434,-0.6783,-0.6783,-0.6607,-0.6251,0.0,0.0,0.0,0.0,0.0,0.0,-0.5271,-0.5381,-0.5483,-0.5373,-0.5352,0.0,0.0,0.0,0.0,0.0,0.0,0.0,0.0,0.0,0.0,0.0,0.0,0.0,0.0,0.0,0.0,-0.6527,-0.7774,0.0,0.0,0.0,0.0,0.0,0.0,0.0,0.0,0.0,0.0,0.0,0.0,0.0,0.0,-1.6246,-1.66,-1.6693,-1.6881,-1.6901,-1.6607,-1.6393,-1.6239,-1.6146,0.0,0.0,0.0,0.0,0.0,0.0,-1.5257,-1.5124,-1.4836,-1.4823,-1.4783,-1.4689,-1.5233,-1.5733,-1.6282,-1.603,-1.7157,-1.951,-1.9549,-1.9961,-2.07,-2.0595,-2.0566,-2.0566,-2.0566,-2.0478,-2.0361,-2.0361,-2.0361,-2.0438,-2.1085,-2.1966,-2.2999,0.0,0.0,0.0,0.0,0.0,0.0,0.0,0.0,0.0,0.0,0.0,0.0,0.0,0.0,0.0,0.0,0.0,0.0,0.0,0.0,0.0,0.0,0.0,-0.4982,-0.5125,-0.5566,-0.6013,-0.6464,-0.6464,-0.6237,-0.5796,0.0,0.0,0.0,0.0,0.0,0.0,0.0,-0.6553,-0.6702,-0.6523,-0.6387,-0.6325,0.0,0.0,0.0,0.0,0.0,0.0,0.0,0.0,0.0,0.0,0.0,0.0,0.0,0.0,-0.6719,-0.6719,0.0,0.0,0.0,0.0,0.0,0.0,0.0,0.0,0.0,0.0,0.0,0.0,0.0,0.0,-1.5732,-1.6079,-1.6373,-1.666,-1.67,-1.6593,-1.6299,-1.6273,-1.6152,-1.5852,0.0,0.0,0.0,0.0,0.0,0.0,-1.4963,-1.4823,-1.4522,-1.4516,-1.4382,-1.4088,-1.4088,-1.465,-1.5703,-1.465,-1.5638,-1.839,-1.9208,-1.9616,-1.9589,-2.033,-2.0557,-2.0557,-2.0557,-2.0303,-1.9902,-1.9902,-1.9902,-1.9902,-1.9902,-2.0565,-2.1564,0.0,0.0,0.0,0.0,0.0,0.0,0.0,0.0,0.0,0.0,0.0,0.0,0.0,0.0,0.0,0.0,0.0,0.0,0.0,0.0,0.0,0.0,0.0,0.0,0.0,0.0,-0.5552,-0.6,-0.5901,-0.5728,0.0,0.0,0.0,-0.6348,0.0,0.0,0.0,0.0,-0.6992,-0.7627,-0.7569,-0.754,-0.7416,0.0,0.0,0.0,0.0,0.0,0.0,0.0,0.0,0.0,0.0,0.0,0.0,0.0,-0.6009,-0.685,-0.7437,0.0,0.0,0.0,0.0,0.0,0.0,0.0,0.0,0.0,0.0,0.0,0.0,0.0,0.0,-1.5498,-1.5945,-1.6233,-1.6106,-1.6273,-1.6293,-1.5999,-1.5965,-1.5845,0.0,0.0,0.0,0.0,0.0,0.0,0.0,-1.4656,-1.4516,-1.4222,-1.4215,-1.4175,-1.4088,-1.4682,-1.5242,-1.5688,-1.5617,-1.6309,-1.7656,-1.7868,-1.8247,-1.8704,-1.9688,-1.9941,-1.9668,-1.9668,-1.959,-1.9473,-1.9473,-1.9473,-1.9473,-1.9473,-2.0111,-2.1097,0.0,0.0,0.0,0.0,0.0,0.0,0.0,0.0,0.0,0.0,0.0,0.0,0.0,0.0,0.0,0.0,0.0,0.0,0.0,0.0,0.0,0.0,0.0,0.0,0.0,-0.504,-0.5298,0.0,0.0,0.0,0.0,0.0,0.0,-0.7242,0.0,-0.8197,0.0,0.0,-0.8225,-0.869,-0.869,-0.869,-0.8559,0.0,0.0,0.0,0.0,0.0,0.0,0.0,0.0,0.0,0.0,0.0,0.0,0.0,-0.6355,-0.7269,0.0,0.0,0.0,0.0,0.0,0.0,0.0,0.0,0.0,0.0,0.0,0.0,0.0,-1.5478,0.0,-1.5545,-1.5865,-1.6032,-1.5852,-1.5985,-1.5985,-1.5691,-1.5658,0.0,0.0,0.0,0.0,0.0,0.0,0.0,0.0,-1.4175,-1.4041,-1.3748,-1.3741,-1.3741,-1.3741,-1.4576,-1.4889,-1.4681,-1.5295,-1.5623,-1.5725,-1.6905,-1.7493,-1.7567,-1.9042,-1.9521,-1.9277,-1.9102,-1.9023,-1.9023,-1.9023,-1.9023,-1.9023,-1.9023,-1.9372,-2.0131,0.0,0.0,0.0,0.0,0.0,0.0,0.0,0.0,0.0,0.0,0.0,0.0,0.0,0.0,0.0,0.0,0.0,0.0,0.0,0.0,0.0,0.0,0.0,0.0,0.0,0.0,0.0,0.0,0.0,0.0,0.0,0.0,-0.7991,-0.8223,0.0,-0.9536,0.0,-0.9582,-0.9687,-0.9753,-0.9753,-0.9753,-0.9681,-0.8797,0.0,0.0,0.0,0.0,0.0,0.0,0.0,0.0,0.0,0.0,0.0,0.0,-0.6889,0.0,0.0,0.0,0.0,0.0,0.0,0.0,0.0,0.0,0.0,0.0,0.0,0.0,-1.5832,-1.5611,-1.5511,-1.5752,-1.5792,-1.5785,-1.5752,-1.5752,-1.5651,-1.5391,0.0,0.0,0.0,0.0,0.0,0.0,0.0,0.0,0.0,-1.3519,-1.3487,-1.322,-1.3213,-1.3213,-1.3213,-1.4016,-1.4016,-1.3206,-1.4137,-1.4044,-1.3245,-1.6092,-1.6983,-1.6405,-1.8349,-1.917,-1.9141,-1.874,-1.8584,-1.8584,-1.8584,-1.8584,-1.8584,-1.8584,-1.8584,-1.8774,0.0,0.0,0.0,0.0,0.0,0.0,0.0,0.0,0.0,0.0,0.0,0.0,0.0,0.0,0.0,0.0,0.0,0.0,0.0,0.0,0.0,0.0,0.0,0.0,0.0,0.0,0.0,0.0,0.0,0.0,0.0,0.0,0.0,-0.9358,0.0,-1.0491,0.0,-0.9771,-0.9808,-1.0392,-1.0392,-1.0392,-1.0328,-0.9415,-0.8958,0.0,0.0,0.0,0.0,0.0,0.0,0.0,0.0,-0.5881,-0.6453,-0.6542,-0.7502,0.0,0.0,0.0,0.0,0.0,0.0,0.0,0.0,0.0,0.0,0.0,-1.5832,-1.5832,-1.5832,-1.5778,-1.5678,-1.5518,-1.5491,-1.5411,-1.5177,-1.515,-1.5124,-1.5064,0.0,0.0,0.0,0.0,0.0,0.0,0.0,0.0,-1.332,-1.3307,-1.3273,-1.3213,-1.3213,-1.3213,-1.3213,-1.3192,-1.3192,0.0,-1.369,-1.3508,-1.2929,-1.4682,-1.6012,-1.7062,-1.7919,-1.8281,-1.8281,-1.8184,-1.8144,-1.8144,-1.8144,-1.8144,-1.8144,-1.8144,-1.8144,-1.8408,0.0,0.0,0.0,0.0,0.0,0.0,0.0,0.0,0.0,0.0,0.0,0.0,0.0,0.0,0.0,0.0,0.0,0.0,0.0,0.0,0.0,0.0,0.0,0.0,0.0,0.0,0.0,0.0,0.0,0.0,0.0,0.0,0.0,-0.9917,0.0,-1.1191,-1.1115,-1.0424,-1.0374,-1.0768,-1.0768,-1.0768,-1.0768,-1.0309,-0.9768,-0.9204,-0.8291,0.0,0.0,0.0,0.0,0.0,0.0,0.0,-0.6187,-0.687,-0.7588,-0.8421,0.0,0.0,0.0,0.0,0.0,0.0,0.0,0.0,0.0,0.0,-1.5631,-1.5785,-1.5651,-1.5625,-1.5524,-1.5237,-1.519,-1.5137,-1.4983,-1.4963,-1.4856,0.0,0.0,0.0,0.0,0.0,0.0,0.0,0.0,-1.3307,-1.3006,-1.2852,-1.2712,-1.2572,-1.2572,-1.2498,-1.2358,-1.2767,-1.2774,-1.2351,-1.3027,-1.3097,-1.2776,-1.4084,-1.5648,-1.7314,-1.7378,-1.7402,-1.7412,-1.7627,-1.7705,-1.7734,-1.793,-1.8008,-1.8008,-1.8008,-1.7881,-1.7925,0.0,0.0,0.0,0.0,0.0,0.0,0.0,0.0,0.0,0.0,0.0,0.0,0.0,0.0,0.0,0.0,0.0,0.0,0.0,0.0,0.0,0.0,0.0,0.0,0.0,0.0,0.0,0.0,0.0,0.0,0.0,0.0,0.0,0.0,0.0,0.0,-1.1329,-1.1042,-1.0915,-1.0915,-1.0915,-1.0915,-1.0915,-1.0915,-1.0374,-0.953,-0.9338,-0.835,-0.7111,-0.6981,0.0,0.0,0.0,0.0,-0.5855,-0.7171,-0.7658,-0.8078,0.0,0.0,0.0,0.0,0.0,0.0,0.0,0.0,0.0,0.0,-1.5311,-1.5605,-1.5364,-1.5317,-1.5224,-1.4937,-1.4883,-1.4856,-1.475,-1.4736,-1.4536,0.0,0.0,0.0,0.0,0.0,0.0,0.0,0.0,-1.2899,-1.2614,-1.2285,-1.2037,-1.1797,-1.179,-1.167,-1.143,-1.2422,-1.2422,-1.143,-1.2233,-1.2781,-1.2983,-1.3858,-1.5286,-1.7041,-1.6821,-1.6665,-1.6758,-1.7119,-1.7275,-1.7305,-1.7656,-1.7793,-1.7793,-1.7793,-1.7568,-1.7445,0.0,0.0,0.0,0.0,0.0,0.0,0.0,0.0,0.0,0.0,0.0,0.0,0.0,0.0,0.0,0.0,0.0,0.0,0.0,0.0,0.0,0.0,0.0,0.0,0.0,0.0,0.0,0.0,0.0,0.0,0.0,0.0,0.0,0.0,0.0,0.0,0.0,-1.0742,-1.0678,-1.0678,-1.0678,-1.0678,-1.0678,-1.0678,-1.0531,-1.0301,-0.9594,-0.9139,-0.8812,-0.8091,-0.7242,0.0,0.0,0.0,-0.6715,-0.7663,-0.828,0.0,0.0,0.0,0.0,0.0,0.0,0.0,0.0,0.0,0.0,0.0,-1.485,-1.507,-1.503,-1.5023,-1.4923,-1.4629,-1.4583,-1.4402,-1.3895,-1.3821,0.0,0.0,0.0,0.0,0.0,0.0,0.0,0.0,-1.2285,-1.2184,-1.163,-1.1563,-1.1523,-1.1483,-1.1483,-1.147,-1.1423,-1.16,-1.16,-1.1423,-1.156,-1.2429,-1.3876,-1.368,-1.4303,-1.5596,-1.6357,-1.6665,-1.6675,-1.6797,-1.6816,-1.6826,-1.6821,-1.6904,-1.6904,-1.6904,-1.6865,-1.7007,0.0,0.0,0.0,0.0,0.0,0.0,0.0,0.0,0.0,0.0,0.0,0.0,0.0,0.0,0.0,0.0,0.0,0.0,0.0,0.0,0.0,0.0,0.0,0.0,0.0,0.0,0.0,0.0,0.0,0.0,0.0,-0.9493,-0.9962,0.0,0.0,0.0,0.0,0.0,0.0,-1.0624,-1.0624,-1.0461,-1.0327,-1.0557,-1.0454,-1.0272,-1.0116,-0.9722,-0.9268,-0.8877,-0.8156,-0.7372,-0.685,0.0,0.0,0.0,-0.8148,0.0,0.0,0.0,0.0,0.0,0.0,0.0,0.0,0.0,0.0,-1.3728,-1.3888,-1.4082,-1.4409,-1.4335,-1.4128,-1.3834,-1.3788,-1.3701,-1.344,0.0,0.0,0.0,0.0,0.0,0.0,0.0,0.0,0.0,-1.1744,-1.1697,-1.1436,-1.1269,-1.1182,-1.1182,-1.1182,-1.1102,-1.0942,-1.1102,-1.1102,-1.0942,-1.0942,-1.1574,-1.283,-1.3064,-1.4126,-1.5751,-1.5911,-1.5996,-1.6006,-1.626,-1.6357,-1.6387,-1.6631,-1.6665,-1.6665,-1.6665,-1.6572,-1.6572,0.0,0.0,0.0,0.0,0.0,0.0,0.0,0.0,0.0,0.0,0.0,0.0,0.0,0.0,0.0,0.0,0.0,0.0,0.0,0.0,0.0,0.0,0.0,0.0,0.0,0.0,0.0,0.0,0.0,0.0,-1.0241,-1.0095,-1.0533,0.0,-1.1122,0.0,0.0,0.0,0.0,0.0,0.0,0.0,0.0,0.0,-1.02,-1.0047,-1.0341,-1.0065,-0.9503,-0.957,-0.9069,-0.8221,-0.7567,-0.7242,0.0,0.0,0.0,0.0,0.0,0.0,0.0,0.0,0.0,0.0,0.0,0.0,0.0,0.0,-1.2812,-1.2913,-1.3427,-1.3527,-1.344,-1.314,-1.3093,-1.3039,0.0,0.0,0.0,0.0,0.0,0.0,0.0,0.0,0.0,0.0,-1.1316,-1.1283,-1.1209,-1.1002,-1.0882,-1.0882,-1.0808,-1.0668,-1.0448,-1.0588,-1.0548,-1.0403,-1.0403,-1.0814,-1.1586,-1.2458,-1.3863,-1.5534,-1.5439,-1.541,-1.5439,-1.5762,-1.5898,-1.5928,-1.6269,-1.6396,-1.6396,-1.6396,-1.6304,-1.6347,0.0,0.0,0.0,0.0,0.0,0.0,0.0,0.0,0.0,0.0,0.0,0.0,0.0,0.0,0.0,0.0,0.0,0.0,0.0,0.0,0.0,0.0,0.0,0.0,0.0,0.0,0.0,0.0,0.0,0.0,-1.0611,-1.0848,-1.1082,-1.141,-1.1122,-1.0842,-1.0645,0.0,0.0,0.0,0.0,0.0,0.0,0.0,0.0,0.0,-1.0033,-1.008,-1.0119,-1.0398,-0.9983,-0.921,-0.9204,-0.8613,-0.8091,0.0,0.0,0.0,0.0,0.0,0.0,0.0,0.0,0.0,0.0,0.0,0.0,0.0,-1.1717,-1.161,-1.1924,-1.2672,-1.3133,-1.2896,-1.2849,0.0,0.0,0.0,0.0,0.0,0.0,0.0,0.0,0.0,0.0,0.0,-1.1015,-1.0895,-1.0685,-1.0658,-1.0645,-1.0645,-1.0307,-1.0154,-1.014,-0.988,-0.9746,-0.9726,-0.9726,-1.0177,-1.0967,-1.2109,-1.3096,-1.3947,-1.4955,-1.541,-1.541,-1.5439,-1.5449,-1.5449,-1.5469,-1.5478,-1.5478,-1.5478,-1.5924,-1.6581,0.0,0.0,0.0,0.0,0.0,0.0,0.0,0.0,0.0,0.0,0.0,0.0,0.0,0.0,0.0,0.0,0.0,0.0,0.0,0.0,0.0,0.0,0.0,0.0,0.0,0.0,0.0,0.0,0.0,-0.8824,-1.0013,-1.0681,-1.0949,-1.0875,-1.0955,-1.0935,-1.0828,-1.0641,0.0,0.0,0.0,0.0,0.0,0.0,0.0,-0.9439,-0.9733,-0.996,-1.0134,-1.0241,-0.9831,-0.9274,-0.9274,-0.8573,-0.7845,-0.8499,-0.9319,0.0,0.0,0.0,0.0,0.0,0.0,0.0,0.0,0.0,-1.0541,-1.1014,-1.1096,-1.1182,-1.1289,-1.1724,-1.2024,-1.1917,0.0,0.0,0.0,0.0,0.0,0.0,0.0,0.0,0.0,0.0,0.0,0.0,0.0,-1.0668,-1.0631,-1.0624,-1.0474,-1.0281,-1.0174,-1.0027,-0.984,-0.9733,-0.9686,-0.9686,-1.0128,-1.0515,-1.08,-1.2164,-1.3102,-1.3684,-1.4305,-1.4902,-1.541,-1.541,-1.541,-1.541,-1.541,-1.541,-1.5468,-1.5921,-1.6255,-1.6652,0.0,0.0,0.0,0.0,0.0,0.0,0.0,0.0,0.0,0.0,0.0,0.0,0.0,0.0,0.0,0.0,0.0,0.0,0.0,0.0,0.0,0.0,0.0,0.0,0.0,0.0,0.0,0.0,0.0,0.0,0.0,0.0,-1.0742,-1.0631,-1.0762,-1.0848,0.0,0.0,0.0,-1.0591,0.0,0.0,-0.982,0.0,0.0,-0.9426,-0.9719,-0.9886,-0.9973,-0.9973,-0.973,-0.9469,-0.9556,-0.9015,-0.8432,-0.8627,0.0,0.0,0.0,0.0,0.0,0.0,0.0,0.0,0.0,0.0,-0.9907,-1.0207,-1.0421,-1.0555,-1.0555,-1.0708,-1.0935,-1.1236,0.0,0.0,0.0,0.0,0.0,0.0,0.0,0.0,0.0,0.0,0.0,0.0,0.0,0.0,-1.0981,-1.1142,-1.1005,-1.0515,-1.0501,-1.0351,-1.0091,-1.0091,-1.0091,-1.0091,-1.0519,-1.0731,-1.0794,-1.2115,-1.2923,-1.3286,-1.3867,-1.4564,-1.54,-1.5254,-1.5283,-1.541,-1.541,-1.541,-1.5468,-1.6208,-1.6652,-1.7034,0.0,0.0,0.0,0.0,0.0,0.0,0.0,0.0,0.0,0.0,0.0,0.0,0.0,0.0,0.0,0.0,0.0,0.0,0.0,0.0,0.0,0.0,0.0,0.0,0.0,0.0,0.0,0.0,0.0,0.0,0.0,0.0,-1.0624,0.0,-1.0624,-1.0624,-1.0624,0.0,-1.0624,-1.0571,0.0,-0.986,-1.0074,0.0,0.0,-0.9693,-0.9973,-0.99,-0.9666,-0.9666,0.0,0.0,0.0,0.0,0.0,0.0,0.0,0.0,0.0,0.0,0.0,0.0,0.0,0.0,0.0,0.0,-0.9256,-0.9599,-0.9666,-0.9666,-0.9666,-0.9679,-0.9967,0.0,0.0,0.0,0.0,0.0,0.0,0.0,0.0,0.0,0.0,0.0,0.0,0.0,-1.2126,-1.2184,-1.1743,-1.2135,-1.2052,-1.1338,-1.1305,-1.1124,-1.0821,-1.0813,-1.0813,-1.0813,-1.0813,-1.0813,-1.088,-1.199,-1.2498,-1.2586,-1.3599,-1.458,-1.5342,-1.4932,-1.501,-1.5391,-1.5391,-1.54,-1.5468,-1.6265,-1.6978,-1.7688,0.0,0.0,0.0,0.0,0.0,0.0,0.0,0.0,0.0,0.0,0.0,0.0,0.0,0.0,0.0,0.0,0.0,0.0,0.0,0.0,0.0,0.0,0.0,0.0,0.0,0.0,0.0,0.0,0.0,0.0,0.0,0.0,0.0,0.0,-1.0624,-1.0624,-1.0624,-1.0624,0.0,-1.0591,-1.0147,-0.992,0.0,0.0,0.0,0.0,-0.9145,-0.9252,-0.9359,-0.9359,-0.9221,-0.9041,0.0,0.0,0.0,0.0,0.0,0.0,-0.8851,0.0,0.0,0.0,0.0,0.0,0.0,0.0,0.0,-0.9031,-0.9218,-0.9359,-0.9359,-0.9539,0.0,0.0,0.0,0.0,0.0,0.0,0.0,0.0,0.0,0.0,0.0,0.0,0.0,0.0,-1.1686,-1.1841,-1.1735,-1.1644,-1.1526,-1.1313,-1.1058,-1.0869,-1.0813,-1.0813,-1.0813,-1.0813,-1.1316,-1.1516,-1.1566,-1.2417,-1.2962,-1.3231,-1.321,-1.3711,-1.4473,-1.4365,-1.457,-1.4961,-1.4961,-1.5146,-1.5526,-1.681,-1.7413,-1.7752,0.0,0.0,0.0,0.0,0.0,0.0,0.0,0.0,0.0,0.0,0.0,0.0,0.0,0.0,0.0,0.0,0.0,0.0,0.0,0.0,0.0,0.0,0.0,0.0,0.0,0.0,0.0,0.0,0.0,0.0,0.0,0.0,0.0,0.0,0.0,0.0,0.0,0.0,0.0,0.0,-1.0107,0.0,0.0,-0.9539,-0.9319,0.0,0.0,0.0,-0.9385,-0.9145,-0.9099,0.0,0.0,0.0,0.0,0.0,0.0,0.0,0.0,0.0,0.0,0.0,0.0,0.0,-0.9263,-0.9211,-0.9159,0.0,-0.8938,-0.9058,-0.9058,0.0,0.0,0.0,0.0,0.0,0.0,0.0,0.0,0.0,0.0,0.0,0.0,-1.1756,-1.2114,-1.1997,-1.2281,-1.2439,-1.2439,-1.214,-1.1979,-1.1979,-1.1758,-1.1692,-1.1692,-1.1692,-1.1692,-1.1692,-1.2089,-1.2236,-1.2295,-1.2715,-1.3018,-1.3232,-1.2988,-1.3164,-1.3613,-1.3613,-1.3965,-1.4512,-1.4512,-1.4988,-1.5741,-1.6896,-1.7671,-1.8186,0.0,0.0,0.0,0.0,0.0,0.0,0.0,0.0,0.0,0.0,0.0,0.0,0.0,0.0,0.0,0.0,0.0,0.0,0.0,0.0,0.0,0.0,0.0,0.0,0.0,0.0,0.0,0.0,0.0,0.0,0.0,0.0,0.0,0.0,0.0,0.0,0.0,0.0,0.0,-1.053,-0.994,-0.9866,0.0,0.0,-0.9613,-0.9586,-0.9586,-0.9586,-0.9512,-0.9025,-0.9198,0.0,0.0,0.0,0.0,0.0,-0.9031,0.0,0.0,0.0,0.0,0.0,0.0,0.0,-0.9961,-0.9814,-0.9614,-0.8956,-0.8804,-0.8804,-0.8804,0.0,0.0,0.0,0.0,0.0,0.0,0.0,0.0,0.0,0.0,0.0,-1.0914,-1.2098,-1.2881,-1.2881,-1.3232,-1.3437,-1.3437,-1.3086,-1.2881,-1.2881,-1.2881,-1.2881,-1.2881,-1.2881,-1.2881,-1.2881,-1.2881,-1.2881,-1.2881,-1.2881,-1.2929,-1.3017,-1.3017,-1.3017,-1.3113,-1.3113,-1.3491,-1.4062,-1.4116,-1.4834,-1.5924,-1.6777,-1.7682,-1.8653,0.0,0.0,0.0,0.0,0.0,0.0,0.0,0.0,0.0,0.0,0.0,0.0,0.0,0.0,0.0,0.0,0.0,0.0,0.0,0.0,0.0,0.0,0.0,0.0,0.0,0.0,0.0,0.0,0.0,0.0,0.0,0.0,0.0,0.0,0.0,0.0,0.0,0.0,0.0,-1.0194,-1.008,-0.9927,-0.974,-0.9439,-0.9178,-0.8978,-0.8978,-0.8978,-0.8998,-0.9112,-0.9176,-0.9359,0.0,0.0,0.0,-0.9203,0.0,0.0,0.0,0.0,0.0,0.0,0.0,0.0,-0.9961,-0.9814,-0.9614,0.0,-0.8804,-0.8804,-0.8804,0.0,0.0,0.0,0.0,0.0,0.0,0.0,0.0,0.0,0.0,0.0,-1.1566,-1.2403,-1.2881,-1.2881,-1.2959,-1.2998,-1.2998,-1.293,-1.2881,-1.2881,-1.2881,-1.2881,-1.2881,-1.2881,-1.2881,-1.2881,-1.2881,-1.2881,-1.2881,-1.2881,-1.3152,-1.3637,-1.3637,-1.392,-1.434,-1.434,-1.4066,-1.3684,-1.4145,-1.4727,-1.5458,-1.7111,-1.7576,-1.7575,0.0,0.0,0.0,0.0,0.0,0.0,0.0,0.0,0.0,0.0,0.0,0.0,0.0,0.0,0.0,0.0,0.0,0.0,0.0,0.0,0.0,0.0,0.0,0.0,0.0,0.0,0.0,0.0,0.0,0.0,0.0,0.0,0.0,0.0,0.0,0.0,0.0,0.0,-1.0474,-1.0314,-1.002,0.0,-0.9432,-0.9138,-0.8931,-0.8804,-0.8804,-0.8804,-0.8851,-0.909,-0.9283,0.0,-0.9459,-0.9459,-0.9432,0.0,-0.9241,-0.9361,0.0,0.0,0.0,-1.1216,0.0,0.0,0.0,-1.0813,-1.0517,-0.9517,-0.9309,-0.9211,-0.8857,0.0,-0.8804,0.0,0.0,0.0,0.0,0.0,0.0,0.0,0.0,0.0,-1.1266,-1.1931,-1.2501,-1.2881,-1.2881,-1.2881,-1.2881,-1.2881,-1.2881,-1.2881,-1.2881,-1.2881,-1.2881,-1.2881,-1.2881,-1.2881,-1.2881,-1.3065,-1.3324,-1.3324,-1.3695,-1.4236,-1.4236,-1.4422,-1.4698,-1.4698,-1.4482,-1.4125,-1.4451,-1.5022,-1.5879,-1.6807,-1.7364,-1.7763,0.0,0.0,0.0,0.0,0.0,0.0,0.0,0.0,0.0,0.0,0.0,0.0,0.0,0.0,0.0,0.0,0.0,0.0,0.0,0.0,0.0,0.0,0.0,-1.0287,0.0,0.0,0.0,0.0,0.0,0.0,0.0,0.0,0.0,0.0,0.0,0.0,0.0,0.0,0.0,-1.0409,0.0,-0.9573,-0.9316,-0.9025,-0.8891,-0.8884,-0.8831,-0.8804,-0.8851,-0.909,-0.9399,-0.9579,-0.9446,-0.9499,0.0,0.0,0.0,0.0,0.0,0.0,0.0,0.0,0.0,-1.2666,0.0,0.0,0.0,-1.0269,0.0,0.0,0.0,0.0,0.0,0.0,0.0,0.0,0.0,0.0,0.0,0.0,0.0,0.0,0.0,-1.1316,-1.2129,-1.2822,-1.2881,-1.2881,-1.2881,-1.2881,-1.2881,-1.2881,-1.2881,-1.2881,-1.2881,-1.2881,-1.2881,-1.2881,-1.2881,-1.3238,-1.3815,-1.3815,-1.419,-1.488,-1.488,-1.4926,-1.5062,-1.5062,-1.5062,-1.5028,-1.4926,-1.5441,-1.6276,-1.6534,-1.7125,-1.7978,0.0,0.0,0.0,0.0,0.0,0.0,0.0,0.0,0.0,0.0,0.0,0.0,0.0,0.0,0.0,0.0,0.0,0.0,-1.0889,0.0,0.0,0.0,0.0,0.0,-1.0174,0.0,0.0,0.0,0.0,0.0,0.0,0.0,0.0,0.0,-1.0267,0.0,0.0,0.0,-1.002,0.0,-0.9713,-0.982,0.0,-0.9342,-0.9137,-0.9103,-0.8898,-0.8804,-0.8851,0.0,-0.9203,-0.9316,0.0,-0.9679,-0.9339,-0.9566,0.0,0.0,0.0,0.0,0.0,0.0,-1.2344,0.0,-1.1225,0.0,-1.1566,-1.0864,0.0,0.0,0.0,0.0,0.0,0.0,0.0,0.0,-0.8464,0.0,0.0,0.0,0.0,0.0,0.0,-1.1065,-1.2129,-1.2822,-1.2881,-1.2881,-1.2881,-1.2881,-1.2881,-1.2881,-1.2881,-1.2881,-1.2881,-1.2881,-1.2881,-1.2881,-1.2881,-1.3238,-1.3815,-1.3815,-1.4411,-1.5499,-1.5499,-1.5776,-1.6293,-1.6293,-1.6293,-1.6238,-1.5732,-1.5579,-1.582,-1.6893,-1.7042,-1.6861,0.0,0.0,0.0,0.0,0.0,0.0,0.0,0.0,0.0,0.0,0.0,0.0,0.0,0.0,0.0,0.0,0.0,-1.016,-1.0708,0.0,0.0,0.0,0.0,0.0,0.0,0.0,0.0,0.0,-1.0624,0.0,0.0,0.0,0.0,0.0,-1.0174,0.0,-1.0053,0.0,-1.0047,0.0,0.0,0.0,0.0,-0.9272,-0.8985,-0.8971,-0.8851,-0.8804,-0.8824,0.0,-0.9212,0.0,0.0,0.0,0.0,-0.9285,0.0,0.0,0.0,0.0,0.0,0.0,0.0,0.0,-1.2049,0.0,-1.2246,0.0,0.0,0.0,0.0,0.0,0.0,0.0,-0.9179,0.0,0.0,0.0,-0.8804,0.0,0.0,0.0,0.0,0.0,0.0,0.0,-1.2666,-1.2881,-1.2881,-1.2881,-1.2881,-1.2881,-1.2881,-1.2881,-1.2881,-1.3238,-1.342,-1.342,-1.3789,-1.4236,-1.4858,-1.4858,-1.532,-1.6139,-1.6139,-1.6281,-1.6522,-1.6522,-1.6522,-1.6466,-1.6238,-1.6139,-1.6175,-1.6698,-1.6722,-1.6635,0.0,0.0,0.0,0.0,0.0,0.0,0.0,0.0,0.0,0.0,0.0,0.0,-1.0441,-1.0581,-1.0681,-1.0681,-1.0408,-1.0361,-1.0661,0.0,-1.014,0.0,0.0,0.0,0.0,0.0,0.0,0.0,0.0,0.0,0.0,0.0,0.0,0.0,0.0,-1.0,-0.9813,0.0,-0.9947,-0.9873,-0.9873,-0.9944,-0.9918,-0.9193,-0.8878,-0.8804,-0.8804,-0.8804,-0.8818,-0.8898,-0.9212,0.0,-0.9158,0.0,-0.9753,0.0,0.0,0.0,-1.0172,0.0,0.0,0.0,0.0,0.0,0.0,0.0,0.0,0.0,0.0,0.0,0.0,0.0,0.0,0.0,0.0,-0.8778,0.0,0.0,0.0,0.0,0.0,0.0,0.0,0.0,0.0,-1.1814,-1.2295,-1.2666,-1.2881,-1.2881,-1.2968,-1.3152,-1.3152,-1.3248,-1.3382,-1.3836,-1.405,-1.405,-1.4468,-1.5017,-1.5588,-1.5588,-1.5908,-1.6522,-1.6522,-1.6522,-1.6522,-1.6522,-1.6522,-1.6522,-1.6522,-1.6522,-1.6522,-1.6522,-1.6522,-1.6572,-0.5433,-0.5542,0.0,0.0,0.0,0.0,0.0,0.0,0.0,0.0,0.0,0.0,-1.0134,-1.0641,-1.0982,-1.0982,-1.0715,-1.0668,-1.0962,0.0,-0.9866,0.0,0.0,-1.0356,-0.9726,0.0,0.0,0.0,0.0,0.0,0.0,0.0,0.0,0.0,0.0,-1.0114,-1.0087,-0.9813,-0.9532,-0.9216,-0.9216,-0.9465,-0.9792,0.0,-0.9051,-0.8804,-0.8804,0.0,0.0,-0.9077,-0.9183,0.0,0.0,0.0,0.0,0.0,0.0,0.0,0.0,0.0,0.0,-1.083,0.0,0.0,0.0,0.0,-1.2881,0.0,0.0,0.0,0.0,0.0,0.0,0.0,0.0,0.0,0.0,0.0,0.0,0.0,0.0,0.0,0.0,0.0,0.0,-1.1715,-1.1814,-1.2129,-1.2871,-1.2881,-1.3152,-1.3732,-1.3768,-1.405,-1.4663,-1.4663,-1.4652,-1.4652,-1.4709,-1.5017,-1.5588,-1.5588,-1.5908,-1.6522,-1.6522,-1.6522,-1.6522,-1.6522,-1.6522,-1.6522,-1.6522,-1.6522,-1.6522,-1.6522,-1.6522,-1.6522,0.0,0.0,0.0,0.0,0.0,0.0,0.0,-0.9035,0.0,0.0,-1.0398,0.0,-1.0463,-1.114,-1.1577,-1.1577,-1.1129,-1.0969,-1.1263,-1.0915,-1.0521,-1.0134,-1.0581,-1.0568,-0.998,0.0,0.0,0.0,0.0,0.0,0.0,0.0,0.0,0.0,0.0,-1.0007,0.0,0.0,0.0,0.0,0.0,-0.9603,-1.0234,0.0,-0.9559,-0.9465,-0.9465,-0.9159,0.0,-0.8918,-0.9024,-0.917,-0.9132,-0.9305,-0.9452,-0.9065,-0.9173,0.0,0.0,0.0,-0.9769,-1.0858,0.0,0.0,0.0,0.0,0.0,0.0,0.0,0.0,0.0,0.0,0.0,0.0,0.0,0.0,0.0,0.0,0.0,0.0,0.0,0.0,0.0,0.0,0.0,-1.1166,-1.199,-1.2618,-1.2881,-1.2881,-1.32,-1.3768,-1.3815,-1.4097,-1.4698,-1.5096,-1.5276,-1.532,-1.57,-1.602,-1.6194,-1.6194,-1.6293,-1.6522,-1.6522,-1.6522,-1.6522,-1.6522,-1.6522,-1.6522,-1.6522,-1.6522,-1.6522,-1.6522,-1.6522,-1.6522,-0.446,0.0,0.0,0.0,0.0,0.0,0.0,0.0,0.0,0.0,-1.014,0.0,-1.0599,0.0,-1.2024,-1.2024,-1.1677,-1.145,-1.1423,-1.1249,-1.0922,-1.0421,-1.0681,-1.0561,-0.9973,-1.0254,0.0,0.0,0.0,-1.0624,0.0,0.0,0.0,0.0,0.0,-1.0053,-0.9686,-0.9686,-0.9452,0.0,0.0,-0.9559,0.0,0.0,-0.9888,-0.9971,0.0,-0.9159,-0.8804,-0.8804,-0.8931,-0.9051,-0.8864,-0.9065,-0.9299,-0.8918,-0.8938,-0.9085,-0.9085,-0.8945,0.0,-1.0446,-1.0581,0.0,-1.1316,0.0,-1.1466,0.0,0.0,0.0,0.0,0.0,0.0,0.0,0.0,0.0,0.0,-0.9008,0.0,0.0,0.0,0.0,0.0,0.0,-1.1116,-1.1166,-1.199,-1.2608,0.0,0.0,-1.3286,-1.4097,-1.4097,-1.4514,-1.5332,-1.5732,-1.5908,-1.5908,-1.6324,-1.6522,-1.6522,-1.6522,-1.6522,-1.6522,-1.6522,-1.6522,-1.6522,-1.6522,-1.6522,-1.6522,-1.6522,-1.6522,-1.6522,-1.6522,-1.6522,-1.6522,-0.4349,0.0,0.0,0.0,-0.6216,0.0,0.0,0.0,-0.8044,0.0,-0.9416,-1.0256,-1.0524,-1.1583,-1.2325,-1.2325,-1.2311,-1.2058,-1.1483,-1.145,0.0,-1.0174,-1.0408,-1.0349,-0.9699,-0.9967,-1.0114,0.0,0.0,0.0,0.0,0.0,0.0,0.0,-1.0624,0.0,-0.9686,-0.9686,-0.9345,-0.8804,-0.8804,-0.9218,-0.9836,-0.9769,-1.0068,-1.0378,-0.9224,-0.8804,-0.8804,-0.8804,-0.8804,-0.8804,-0.8804,-0.8804,-0.8804,-0.8804,-0.8804,-0.8804,-0.8804,-0.8804,-0.8956,-0.9614,0.0,0.0,0.0,0.0,-1.0813,0.0,0.0,0.0,0.0,0.0,0.0,0.0,0.0,0.0,0.0,0.0,0.0,0.0,0.0,0.0,0.0,-1.0073,-1.0415,-1.1715,-1.1814,-1.2187,0.0,0.0,-1.343,-1.4617,-1.4698,-1.5242,-1.6423,-1.6479,-1.6522,-1.6522,-1.6522,-1.6522,-1.6522,-1.6522,-1.6522,-1.6522,-1.6522,-1.6522,-1.6522,-1.6522,-1.6522,-1.6522,-1.6522,-1.6522,-1.6522,-1.6522,-1.6522,-1.6522,-0.446,-0.4555,-0.4855,0.0,-0.5568,-0.5924,0.0,0.0,0.0,0.0,-0.9533,-1.0684,-1.0308,-1.1708,-1.2708,-1.2708,-1.2432,0.0,0.0,0.0,0.0,-1.0488,-1.0521,-1.0349,-0.9699,-0.9967,-1.0114,-1.0114,0.0,0.0,-1.0624,0.0,0.0,0.0,0.0,0.0,-0.9686,-0.9686,-0.9345,-0.8804,-0.8804,-0.9404,0.0,0.0,-0.9659,-1.0424,-0.9783,-0.9211,-0.8804,-0.8804,-0.8804,-0.8804,-0.8804,-0.8804,-0.8804,-0.8804,-0.8804,-0.8804,-0.8804,-0.8804,-0.8956,-0.9614,-0.9814,-0.9865,0.0,0.0,0.0,0.0,0.0,0.0,0.0,0.0,0.0,0.0,0.0,0.0,0.0,0.0,0.0,-1.0213,0.0,-1.0055,-1.0664,-1.0612,-1.0914,-1.1765,-1.2295,-1.2715,-1.2881,0.0,0.0,-1.4003,-1.4468,-1.5062,-1.582,-1.6281,-1.6522,-1.6522,-1.6522,-1.6522,-1.6522,-1.6522,-1.6522,-1.6522,-1.6522,-1.6522,-1.6522,-1.6522,-1.6522,-1.6522,-1.6522,-1.6522,-1.6522,-1.6522,-1.6522,-1.6552,-0.4432,-0.4684,0.0,-0.5404,0.0,0.0,-0.6803,-0.6776,0.0,-0.6973,-0.8553,0.0,-0.9426,-1.0532,-1.1474,-1.1853,-1.1675,0.0,-1.1697,0.0,0.0,-1.0651,-1.0376,-0.996,-0.9499,-0.9653,-0.9793,-0.9927,0.0,0.0,-1.0624,0.0,0.0,0.0,0.0,-1.0301,-0.986,-0.9599,-0.9299,-0.8985,-0.8858,-0.9164,0.0,-0.9024,-0.9217,-0.971,-0.9477,-0.9106,-0.8804,-0.8804,-0.8804,-0.8804,-0.8804,-0.8804,-0.8804,-0.8804,-0.8804,-0.8804,-0.8804,-0.8804,-0.891,-0.9263,-0.9361,-0.9361,-0.9361,-0.9666,-0.9814,0.0,0.0,0.0,0.0,0.0,0.0,0.0,0.0,0.0,0.0,0.0,0.0,0.0,-1.0712,0.0,-1.1199,-1.1071,-1.1193,-1.1765,-1.2461,-1.2881,0.0,0.0,0.0,-1.4143,-1.4514,-1.5107,-1.5996,-1.6324,-1.6522,-1.6522,-1.6522,-1.6522,-1.6522,-1.6522,-1.6522,-1.6522,-1.6522,-1.6522,-1.6522,-1.6522,-1.6522,-1.6522,-1.6522,-1.6522,-1.6522,-1.6752,-1.671,-1.6595,-0.4219,0.0,0.0,0.0,0.0,0.0,0.0,-0.6084,0.0,-0.6227,0.0,-0.7901,-0.8295,-0.885,-0.9574,-1.0461,-1.0333,-1.0443,-1.0983,-1.087,-1.0659,-1.0329,-0.986,-0.9506,-0.919,-0.9183,-0.9385,-0.9686,-0.9973,-1.0267,0.0,0.0,0.0,0.0,0.0,0.0,0.0,-0.9416,-0.9163,-0.9103,-0.8911,-0.8804,-0.8804,-0.8804,-0.8804,-0.8804,-0.8804,-0.8804,-0.8804,-0.8804,-0.8804,-0.8804,-0.8804,-0.8804,-0.8804,-0.8804,-0.8804,-0.8804,-0.8804,-0.8804,-0.8804,-0.8804,-0.8804,-0.8804,-0.8804,-0.8857,-0.891,-0.8804,-0.8857,-0.891,0.0,0.0,0.0,0.0,0.0,0.0,0.0,0.0,0.0,0.0,0.0,0.0,-1.1607,-1.1363,-1.1318,-1.1774,-1.2461,-1.2881,0.0,0.0,0.0,-1.456,-1.4663,-1.5277,-1.6492,0.0,-1.6559,-1.6635,-1.6559,-1.6522,-1.6522,-1.6522,-1.6522,-1.6522,-1.6522,-1.6522,-1.6522,-1.6522,-1.6522,-1.6522,-1.6522,-1.6522,-1.6552,-1.7034,-1.6951,-1.668,-0.3573,0.0,0.0,0.0,0.0,-0.5658,-0.5842,-0.6057,-0.62,-0.6254,-0.7176,-0.7808,-0.7871,-0.8494,-0.8948,-0.9156,-0.9119,0.0,0.0,0.0,0.0,-0.895,-0.915,-0.9236,-0.9183,-0.9183,-0.9385,-0.9686,-0.9973,-1.0267,0.0,0.0,0.0,0.0,0.0,0.0,-0.974,-0.9385,0.0,-0.8878,-0.8831,-0.8804,-0.8804,-0.8804,-0.8804,-0.8804,-0.8804,-0.8804,-0.8804,-0.8804,-0.8804,-0.8804,-0.8804,-0.8804,-0.8804,-0.8804,-0.8804,-0.8804,-0.8804,-0.8804,-0.8804,-0.8804,-0.8804,-0.8804,-0.8804,-0.9211,-0.9465,-0.891,-0.9263,-0.9465,-0.891,0.0,0.0,0.0,0.0,0.0,0.0,0.0,0.0,0.0,0.0,-1.1076,0.0,-1.0906,-1.1148,-1.1765,-1.2461,-1.2881,0.0,0.0,0.0,0.0,-1.4422,0.0,0.0,0.0,-1.676,-1.7225,-1.6748,-1.6522,-1.6522,-1.6522,-1.6522,-1.6522,-1.6522,-1.6522,-1.6522,-1.6522,-1.6522,-1.6522,-1.6522,-1.6522,-1.6522,-1.6595,-1.6879,-1.7312,-0.3518,0.0,0.0,0.0,0.0,0.0,0.0,-0.5878,-0.6051,-0.6132,-0.6514,-0.6756,-0.6756,-0.7033,-0.7381,-0.7767,-0.7733,-0.7807,-0.7927,-0.807,-0.8077,-0.7838,-0.7817,-0.8015,-0.8408,-0.8402,-0.8837,-0.9686,-0.9394,-0.9682,0.0,0.0,0.0,0.0,0.0,-1.0174,0.0,0.0,0.0,-0.9018,-0.8871,-0.8804,-0.8804,-0.8804,-0.8804,-0.8804,-0.8804,-0.8804,-0.8804,-0.8804,-0.8804,-0.8804,-0.8804,-0.8804,-0.8804,-0.8804,-0.8804,-0.8804,-0.8804,-0.8804,-0.8804,-0.8804,-0.8804,-0.8804,-0.8804,-0.9061,-0.9211,-0.8857,-0.9061,-0.9159,-0.8857,-0.9061,0.0,0.0,0.0,0.0,0.0,0.0,-1.1922,0.0,0.0,0.0,0.0,0.0,0.0,0.0,0.0,-1.2881,0.0,0.0,0.0,0.0,0.0,0.0,0.0,0.0,0.0,-1.6936,-1.6647,-1.6522,-1.6522,-1.6522,-1.6522,-1.6522,-1.6522,-1.6522,-1.6522,-1.6522,-1.6522,-1.6522,-1.6522,-1.668,-1.6951,-1.7229,-1.7666,-1.8185,0.0,-0.3524,0.0,0.0,-0.5073,-0.5309,-0.5309,-0.5544,-0.581,-0.5962,-0.585,-0.5755,-0.5755,-0.5698,-0.5883,-0.6499,-0.64,-0.6531,-0.7007,-0.6929,-0.6781,-0.6736,-0.6678,-0.6858,-0.7456,-0.745,-0.8001,-0.9176,-0.851,-0.8873,0.0,0.0,0.0,0.0,0.0,0.0,0.0,0.0,-0.915,-0.907,-0.8898,-0.8804,-0.8804,-0.8804,-0.8804,-0.8804,-0.8804,-0.8804,-0.8804,-0.8804,-0.8804,-0.8804,-0.8804,-0.8804,-0.8804,-0.8804,-0.8804,-0.8804,-0.8804,-0.8804,-0.8804,-0.8804,-0.8804,-0.8804,-0.8804,-0.8804,-0.8804,-0.8804,-0.8804,-0.8804,-0.8804,-0.9211,0.0,0.0,0.0,0.0,0.0,0.0,-1.1665,0.0,0.0,0.0,-0.9814,0.0,0.0,0.0,0.0,-1.2881,-1.2881,-1.2881,-1.343,0.0,0.0,-1.5345,-1.6697,0.0,-1.6572,0.0,-1.6572,-1.6522,-1.6522,-1.6522,-1.6522,-1.6522,-1.6522,-1.6522,-1.6522,-1.6522,-1.6522,-1.6522,-1.6522,-1.6752,-1.7188,-1.7747,-1.8263,-1.8688,0.0,0.0,0.0,0.0,0.0,0.0,-0.4327,-0.5038,-0.5661,-0.5803,-0.5698,-0.561,-0.561,-0.5359,-0.5189,-0.5236,-0.5165,-0.5015,-0.4972,-0.5562,-0.5862,-0.5686,-0.6268,-0.6642,-0.6696,-0.6696,-0.6924,-0.7348,-0.7374,-0.7849,-0.8812,0.0,0.0,0.0,0.0,0.0,0.0,-0.9203,-0.903,-0.8844,-0.8818,-0.8804,-0.8804,-0.8804,-0.8804,-0.8804,-0.8804,-0.8804,-0.8804,-0.8804,-0.8804,-0.8804,-0.8804,-0.8804,-0.8804,-0.8804,-0.8804,-0.8804,-0.8804,-0.8804,-0.8804,-0.8804,-0.8804,-0.8804,-0.8804,-0.8804,-0.8804,-0.8804,-0.8804,-0.8804,-0.8804,-0.8857,-0.9106,0.0,0.0,0.0,0.0,0.0,-1.1116,-1.1715,0.0,0.0,0.0,-1.0415,0.0,0.0,-1.2098,-1.2881,-1.2881,-1.2881,-1.343,-1.4663,0.0,-1.552,-1.73,-1.6773,-1.6785,-1.73,-1.6773,-1.6522,-1.6522,-1.6522,-1.6522,-1.6522,-1.6522,-1.6522,-1.6522,-1.6522,-1.6522,-1.6522,-1.6522,-1.6522,-1.6637,-1.7188,-1.7706,-1.8263,0.0,0.0,0.0,0.0,0.0,0.0,0.0,-0.3959,-0.4199,-0.5256,-0.5348,-0.5315,-0.5315,-0.5128,-0.5003,-0.5003,-0.4867,-0.4755,-0.4694,-0.4883,-0.4964,-0.4897,-0.5171,-0.555,-0.5928,-0.5928,-0.6303,0.0,0.0,-0.706,-0.8044,-0.7741,0.0,0.0,0.0,-0.9402,-0.9176,-0.9051,-0.8911,-0.8804,-0.8804,-0.8804,-0.8804,-0.8804,-0.8804,-0.8804,-0.8804,-0.8804,-0.8804,-0.8804,-0.8804,-0.8804,-0.8804,-0.8804,-0.8804,-0.8804,-0.8804,-0.8804,-0.8804,-0.8804,-0.8804,-0.8804,-0.8804,-0.8804,-0.8804,-0.8804,-0.8804,-0.8804,-0.8804,-0.8804,-0.8804,-0.8804,-0.9008,0.0,0.0,0.0,0.0,0.0,0.0,-1.0568,0.0,-0.9361,0.0,0.0,0.0,0.0,0.0,-1.3065,-1.342,-1.342,-1.4003,-1.5186,0.0,-1.5751,-1.6861,-1.6635,-1.6635,-1.6861,-1.6635,-1.6522,-1.6522,-1.6522,-1.6522,-1.6522,-1.6522,-1.6522,-1.6522,-1.6522,-1.6522,-1.6522,-1.6522,-1.6879,-1.7504,-1.7706,-1.8341,-1.9095,-0.0273,0.0,-0.1152,0.0,-0.2129,-0.2515,-0.3109,-0.2883,-0.3072,-0.4236,-0.4303,-0.447,-0.4994,-0.4938,-0.4853,-0.4853,-0.4711,-0.4623,-0.4623,-0.4577,-0.4519,-0.4519,-0.4519,0.0,-0.5218,-0.5218,-0.5554,-0.6314,-0.5881,-0.6122,-0.7026,0.0,0.0,0.0,-0.8989,-0.9137,-0.9044,-0.8891,-0.8804,-0.8804,-0.8804,-0.8804,-0.8804,-0.8804,-0.8804,-0.8804,-0.8804,-0.8804,-0.8804,-0.8804,-0.8804,-0.8804,-0.8804,-0.8804,-0.8804,-0.8804,-0.8804,-0.8804,-0.8804,-0.8804,-0.8804,-0.8804,-0.8804,-0.8804,-0.8804,-0.8804,-0.8804,-0.8804,-0.8804,-0.8804,-0.8804,-0.8804,-0.8956,-0.9413,0.0,0.0,0.0,-0.9917,0.0,-0.9762,-0.9361,-0.9263,-0.9762,-1.0568,0.0,0.0,0.0,0.0,-1.3779,-1.3815,0.0,0.0,0.0,0.0,0.0,-1.6522,-1.6522,-1.6522,-1.6522,-1.6522,-1.6522,-1.6522,-1.6522,-1.6522,-1.6522,-1.6522,-1.6522,-1.6522,-1.6522,-1.6522,-1.6522,-1.7076,-1.7867,-1.8027,-1.8688,-1.9479,0.1264,0.056,0.0,0.0,-0.0723,-0.1352,-0.1352,-0.2019,-0.2554,-0.2696,-0.2445,-0.2921,-0.4706,-0.4785,-0.4694,-0.4694,-0.4555,-0.4522,-0.4522,-0.4519,-0.4519,0.0,0.0,-0.4519,-0.4519,-0.4519,-0.4519,-0.4519,0.0,0.0,-0.5555,0.0,-0.8173,-0.8229,-0.8899,-0.9024,-0.8811,-0.8804,-0.8804,-0.8804,-0.8804,-0.8804,-0.8804,-0.8804,-0.8804,-0.8804,-0.8804,-0.8804,-0.8804,-0.8804,-0.8804,-0.8804,-0.8804,-0.8804,-0.8804,-0.8804,-0.8804,-0.8804,-0.8804,-0.8804,-0.8804,-0.8804,-0.8804,-0.8804,-0.8804,-0.8804,-0.8804,-0.8804,-0.8804,-0.8804,-0.8804,-0.8804,-0.8804,-0.8804,0.0,0.0,0.0,-0.9211,0.0,-0.971,-0.9814,-0.9814,-0.9814,-1.1015,0.0,0.0,0.0,0.0,0.0,0.0,0.0,-1.5543,-1.5588,0.0,-1.6466,-1.6522,-1.6522,-1.6522,-1.6522,-1.6522,-1.6522,-1.6522,-1.6522,-1.6522,-1.6522,-1.6522,-1.6522,-1.6522,-1.6522,-1.6522,-1.6522,-1.6837,-1.7394,-1.7907,-1.8458,-1.9006,0.1564,0.1088,0.0679,0.0135,-0.0201,-0.0594,-0.1228,-0.0997,-0.1209,-0.2387,-0.1894,-0.1857,-0.2928,-0.3478,-0.3964,0.0,-0.4546,-0.4519,0.0,-0.4519,-0.4519,-0.4519,-0.4519,-0.4519,-0.4519,-0.4519,-0.4519,-0.4519,0.0,0.0,0.0,-0.6085,-0.6492,-0.6404,-0.7127,-0.7632,-0.799,-0.7509,-0.7883,-0.8752,-0.8262,-0.8374,-0.8804,-0.8804,-0.8804,-0.8804,-0.8804,-0.8804,-0.8699,-0.8209,-0.8374,-0.8699,-0.8209,-0.8374,-0.8804,-0.8804,-0.8804,-0.8804,-0.8804,-0.8804,-0.8804,-0.8804,-0.8804,-0.8804,-0.8804,-0.8804,-0.8804,-0.8804,-0.8804,-0.8804,-0.8804,-0.8804,-0.8804,-0.8804,-0.8804,0.0,-0.9113,0.0,-0.8857,-0.9106,-0.951,-0.9961,-1.0415,-1.1266,0.0,0.0,0.0,0.0,0.0,0.0,0.0,0.0,-1.6194,0.0,-1.6522,-1.6522,-1.6522,-1.6522,-1.6522,-1.6522,-1.6522,-1.6522,-1.6522,-1.6522,-1.6522,-1.6522,-1.6522,-1.6522,-1.6522,-1.6552,-1.6909,-1.7394,-1.7907,-1.8458,-1.8968,-1.9479,0.2544,0.1742,0.114,0.0605,0.02,-0.0198,-0.0711,-0.0374,-0.0361,-0.1413,-0.1028,-0.095,-0.173,-0.2174,0.0,-0.3959,-0.407,-0.4181,-0.4463,-0.4519,-0.4519,-0.4519,-0.4519,-0.4519,-0.4519,-0.4519,0.0,-0.4519,-0.4558,-0.4606,-0.4663,-0.5333,-0.56,-0.5538,-0.6258,-0.6858,-0.7235,-0.6804,-0.7128,-0.7943,-0.745,-0.7563,-0.7996,-0.7996,-0.7996,-0.7996,-0.7996,-0.7996,-0.7883,-0.745,-0.7616,-0.7883,-0.745,-0.7777,-0.8427,-0.8699,-0.8804,-0.8804,-0.8804,-0.8804,-0.8804,-0.8804,-0.8804,-0.8804,-0.8804,-0.8804,-0.8804,-0.8804,-0.8804,-0.8804,-0.8804,-0.8804,-0.8804,-0.8804,-0.8804,-0.8804,-0.8804,0.0,-0.891,0.0,0.0,0.0,0.0,-1.1774,-1.2393,0.0,0.0,0.0,0.0,0.0,0.0,-1.6466,-1.6522,0.0,-1.6522,-1.6522,-1.6522,-1.6522,-1.6522,-1.6522,-1.6522,-1.6522,-1.6522,-1.6522,-1.6522,-1.6522,-1.6522,-1.6522,-1.6522,-1.6552,-1.7076,-1.7626,-1.8185,-1.8688,-1.9244,-1.969,0.4015,0.2678,0.1474,0.0,0.0657,0.0,0.0065,0.0061,0.0,0.0,0.0,-0.028,-0.095,-0.1006,-0.1619,-0.301,0.0,0.0,0.0,-0.4405,-0.446,-0.4519,-0.4519,-0.4519,-0.4519,-0.4519,-0.4519,-0.4519,-0.4519,-0.4519,-0.4519,-0.5164,-0.5433,-0.5487,-0.615,-0.648,-0.6529,-0.648,-0.6534,-0.6588,-0.6534,-0.6534,-0.6588,-0.6588,-0.6588,-0.6588,-0.6588,-0.6588,-0.6588,-0.6534,-0.6534,-0.6588,-0.6534,-0.7074,-0.783,-0.8533,-0.8752,-0.8804,-0.8804,-0.8804,-0.8804,-0.8804,-0.8804,-0.8804,-0.8804,-0.8804,-0.8804,-0.8804,-0.8804,-0.8804,-0.8804,-0.8804,-0.8804,-0.8804,-0.8804,-0.8804,-0.8804,0.0,-0.9113,0.0,0.0,0.0,0.0,-1.2452,-1.2881,0.0,0.0,0.0,0.0,0.0,-1.5908,-1.6466,-1.6522,-1.6522,-1.6522,-1.6522,-1.6522,-1.6522,-1.6522,-1.6522,-1.6552,-1.6552,-1.6552,-1.6552,-1.6552,-1.6522,-1.6522,-1.6522,-1.6522,-1.6552,-1.7105,-1.7666,-1.8185,-1.8727,-1.9281,-1.9675,0.0,0.0,0.3145,0.2476,0.16,0.099,0.0969,0.0438,0.0,0.0,0.0,-0.0056,-0.0224,-0.028,-0.0615,-0.1563,-0.212,-0.2788,-0.3624,-0.3624,-0.3846,-0.446,-0.4519,-0.4519,-0.4519,-0.4519,-0.4519,-0.4519,-0.4519,-0.4519,-0.4519,-0.468,-0.4732,-0.4732,-0.4901,-0.5277,-0.5706,-0.5226,-0.5605,-0.6534,-0.5982,-0.6091,-0.6588,-0.6588,-0.6588,-0.6588,-0.6588,-0.6588,-0.6534,-0.5928,-0.6145,-0.648,-0.5928,-0.6632,-0.7723,-0.7883,-0.8374,-0.8804,-0.8804,-0.8804,-0.8804,-0.8804,-0.8804,-0.8804,-0.8804,-0.8804,-0.8804,-0.8804,-0.8804,-0.8804,-0.8804,-0.8804,-0.8804,-0.8804,-0.8804,-0.8804,-0.8804,-0.9263,0.0,0.0,-1.0864,-1.1616,-1.1765,-1.2452,-1.2881,0.0,0.0,0.0,0.0,-1.57,-1.6337,-1.6522,-1.6522,-1.6522,-1.6522,-1.6522,-1.6522,-1.6522,-1.6522,-1.671,-1.7118,-1.7118,-1.7118,-1.7118,-1.7118,-1.6879,-1.6522,-1.6522,-1.6522,-1.6595,-1.7544,-1.7987,-1.8224,-1.9169,-1.9603,-1.9615,0.4755,0.4284,0.3882,0.3347,0.2544,0.1933,0.1971,0.1153,0.0623,0.0604,0.0234,0.0,0.0,0.0,-0.0168,-0.056,-0.1284,-0.2009,-0.2788,-0.2843,-0.3176,-0.3959,-0.4015,-0.4181,-0.4519,-0.4519,-0.4519,-0.4519,-0.4519,-0.4519,-0.4519,-0.4519,-0.4519,-0.4519,-0.4519,-0.468,-0.5003,-0.468,-0.4952,-0.5605,-0.5222,-0.5277,-0.5664,-0.5664,-0.5664,-0.5664,-0.5664,-0.5664,-0.555,-0.5167,-0.5332,-0.555,-0.5167,-0.5819,-0.6686,-0.6686,-0.7717,-0.8804,-0.8804,-0.8804,-0.8804,-0.8804,-0.8804,-0.8804,-0.8804,-0.8804,-0.8804,-0.8804,-0.8804,-0.8804,-0.8804,-0.8804,-0.8804,-0.8804,-0.8804,-0.891,-0.9211,-0.9562,0.0,-1.0669,-1.1366,-1.1922,-1.2295,-1.2666,-1.2881,-1.2881,-1.4025,0.0,-1.507,-1.6251,-1.6785,-1.6522,-1.6522,-1.6522,-1.6522,-1.6522,-1.6522,-1.6522,-1.6752,-1.7034,-1.7312,-1.7544,-1.7666,-1.7666,-1.7666,-1.7504,-1.7229,-1.7229,-1.7229,-1.7312,-1.8145,-1.8458,-1.8574,-1.9406,-1.969,-1.9585,0.5428,0.4755,0.4215,0.4215,0.348,0.2878,0.2878,0.2087,0.1458,0.1298,0.0657,0.0116,0.0,0.0,0.0,0.0,-0.056,-0.1229,-0.2009,-0.2009,-0.2399,-0.3178,-0.3345,-0.368,-0.4294,-0.4463,-0.4519,-0.4519,-0.4519,-0.4519,-0.4519,-0.4519,-0.4519,-0.4519,-0.4519,-0.4519,-0.4519,-0.4519,-0.4519,-0.4519,-0.4519,-0.4519,-0.4519,-0.4519,-0.4519,-0.4519,-0.4519,-0.4519,-0.4519,-0.4519,-0.4519,-0.4519,-0.4519,-0.4948,-0.5487,-0.5487,-0.6897,-0.848,-0.8586,-0.8699,-0.8804,-0.8804,-0.8804,-0.8804,-0.8804,-0.8804,-0.8804,-0.8804,-0.8804,-0.8804,-0.8804,-0.8804,-0.8804,-0.8804,-0.8804,-0.9061,-0.9718,0.0,-1.0415,-1.1665,-1.1913,-1.2187,-1.2822,-1.2881,-1.2881,-1.2881,-1.4025,-1.4888,-1.535,-1.6578,-1.7024,-1.6534,-1.6609,-1.6609,-1.6522,-1.6595,-1.6637,-1.6637,-1.7076,-1.7394,-1.7544,-1.7947,-1.8145,-1.8224,-1.8224,-1.8145,-1.7987,-1.7987,-1.7947,-1.7907,-1.8535,-1.8779,-1.8841,-1.9375,-1.954,-1.9435,0.5428,0.5292,0.516,0.516,0.4417,0.3816,0.3816,0.2947,0.204,0.1417,0.1112,0.0675,0.0056,0.0,0.0,0.0,-0.0112,-0.0504,-0.1229,-0.1284,-0.1619,-0.2343,-0.301,-0.3345,-0.3511,-0.4125,-0.4519,-0.4519,-0.4519,-0.4519,-0.4519,-0.4519,-0.4519,-0.4519,-0.4519,-0.4519,-0.4519,-0.4519,-0.4519,-0.4519,-0.4519,-0.4519,-0.4519,-0.4519,-0.4519,-0.4519,-0.4519,-0.4519,-0.4519,-0.4519,-0.4519,-0.4519,-0.4519,-0.4948,-0.5487,-0.5487,-0.6199,-0.7074,-0.7723,-0.8321,-0.8804,-0.8804,-0.8804,-0.8804,-0.8804,-0.8804,-0.8804,-0.8804,-0.8804,-0.8804,-0.8804,-0.8804,-0.8804,-0.8804,-0.8804,-0.9061,-0.9718,0.0,-1.0914,-1.1715,-1.2344,-1.2774,-1.2881,-1.2881,-1.2881,-1.2881,-1.4025,-1.4743,-1.481,-1.5965,-1.6609,-1.6522,-1.6986,-1.7011,-1.6479,-1.6951,-1.7188,-1.7188,-1.7271,-1.7787,-1.865,-1.8263,-1.8341,-1.8779,-1.8779,-1.8263,-1.7435,-1.7435,-1.7146,-1.6837,-1.7827,-1.8224,-1.8271,-1.8714,-1.8852,-1.8687,0.5428,0.5428,0.5428,0.5428,0.5024,0.4755,0.4755,0.3878,0.3063,0.2709,0.2067,0.1425,0.0673,0.0616,0.0448,0.0056,0.0,-0.0168,-0.0504,-0.0504,-0.0838,-0.1563,-0.1952,-0.2286,-0.2674,-0.3065,-0.3289,-0.3289,-0.3677,-0.3846,-0.3846,-0.4294,-0.4519,-0.4519,-0.4519,-0.4519,-0.4519,-0.4519,-0.4519,-0.4519,-0.4519,-0.4519,-0.4519,-0.4519,-0.4519,-0.4519,-0.4519,-0.4519,-0.4519,-0.4519,-0.4519,-0.4519,-0.4519,-0.4736,-0.4948,-0.4948,-0.6036,-0.7289,-0.7616,-0.8262,-0.8804,-0.8804,-0.8804,-0.8804,-0.8804,-0.8804,-0.8804,-0.8804,-0.8804,-0.8804,-0.8804,-0.8804,-0.8804,-0.8804,-0.8804,0.0,0.0,-1.0618,-1.1225,-1.2246,-1.2666,-1.2881,-1.2881,-1.2881,-1.3017,-1.3372,-1.4201,-1.4959,-1.558,-1.6504,-1.6986,-1.6986,-1.6936,-1.6785,-1.6522,-1.6752,-1.6879,-1.6879,-1.7463,-1.7987,-1.8496,-1.8817,-1.9095,-1.9332,-1.9332,-1.9043,-1.8574,-1.8574,-1.8458,-1.8221,-1.8355,-1.8425,-1.839,-1.8233,-1.8179,-1.8011,0.5428,0.5428,0.5428,0.5428,0.5428,0.5428,0.5428,0.4613,0.3969,0.3822,0.303,0.2182,0.1456,0.1341,0.1062,0.0336,0.028,0.0168,0.0,0.0,-0.028,-0.0839,-0.1006,-0.1452,-0.2174,-0.2174,-0.2174,-0.2174,-0.2788,-0.3065,-0.3065,-0.368,-0.407,-0.4236,-0.4236,-0.4349,-0.4519,-0.4519,-0.4519,-0.4519,-0.4519,-0.4519,-0.4519,-0.4519,-0.4519,-0.4519,-0.4519,-0.4519,-0.4519,-0.4519,-0.4519,-0.4519,-0.4519,-0.4519,-0.4519,-0.4519,-0.5769,-0.723,-0.7396,-0.799,-0.8533,-0.8533,-0.8699,-0.8804,-0.8804,-0.8804,-0.8804,-0.8804,-0.8804,-0.8804,-0.8804,-0.8804,-0.8804,-0.8804,0.0,0.0,0.0,-1.0813,-1.1334,-1.2725,-1.2881,-1.2881,-1.2881,-1.2881,-1.3104,-1.3552,-1.4154,-1.4947,-1.5939,-1.6642,-1.704,-1.7187,-1.6748,-1.6522,-1.6522,-1.6637,-1.668,-1.671,-1.7504,-1.8027,-1.8302,-1.9006,-1.9442,-1.969,-1.969,-1.9639,-1.953,-1.953,-1.9442,-1.9259,-1.8732,-1.8515,-1.8426,-1.7724,-1.7458,-1.7369,0.5557,0.5428,0.5428,0.5428,0.5428,0.5428,0.5428,0.5055,0.4562,0.3872,0.3495,0.3019,0.2232,0.212,0.184,0.1062,0.1006,0.0727,0.0056,0.0,0.0,-0.0056,-0.0727,-0.1452,-0.2174,-0.2174,-0.2174,-0.2174,-0.2232,-0.2286,-0.2286,-0.2343,-0.2732,-0.3398,-0.3398,-0.379,-0.4519,-0.4519,-0.4519,-0.4519,-0.4519,-0.4519,-0.4519,-0.4519,-0.4519,-0.4519,-0.4519,-0.4519,-0.4519,-0.4519,-0.4519,-0.4519,-0.4519,-0.4519,-0.4519,-0.4519,-0.5058,-0.5814,-0.6475,-0.7235,-0.7777,-0.7777,-0.8321,-0.8804,-0.8804,-0.8804,-0.8804,-0.8804,-0.8804,-0.8804,-0.8804,-0.8804,-0.8804,-0.8804,0.0,0.0,-1.061,-1.0813,-1.1334,-1.2725,-1.2881,-1.2881,-1.2881,-1.2881,-1.2929,-1.2968,-1.3515,-1.4165,-1.48,-1.5379,-1.5969,-1.6541,-1.6547,-1.6522,-1.6522,-1.6993,-1.7229,-1.7229,-1.7312,-1.7867,-1.8817,-1.8419,-1.8765,-1.969,-1.969,-1.9406,-1.8968,-1.8968,-1.865,-1.8193,-1.8041,-1.7957,-1.7848,-1.7075,-1.6786,-1.6697,0.6268,0.6203,0.6009,0.5491,0.5815,0.5975,0.5294,0.5047,0.4763,0.443,0.4188,0.379,0.2954,0.2899,0.2619,0.1842,0.1341,0.1006,0.0727,0.028,0.0,0.0,-0.028,-0.056,-0.0838,-0.0838,-0.0838,-0.0838,-0.1284,-0.1507,-0.1507,-0.2009,-0.2343,-0.2619,-0.2619,-0.2788,-0.3065,-0.3065,-0.3065,-0.3065,-0.3065,-0.3065,-0.3065,-0.3065,-0.3345,-0.3735,-0.3735,-0.407,-0.4519,-0.4519,-0.4519,-0.4519,-0.4519,-0.4519,-0.4519,-0.4519,-0.468,-0.4948,-0.5226,-0.6475,-0.7723,-0.7723,-0.8262,-0.8804,-0.8804,-0.8804,-0.8804,-0.8804,-0.8804,-0.8804,-0.8804,-0.8804,-0.8804,-0.8804,0.0,-0.9106,-1.0064,-1.0517,-1.1174,-1.2089,-1.2608,-1.2881,-1.2881,-1.2881,-1.3065,-1.342,-1.3684,-1.405,-1.4652,-1.5276,-1.5864,-1.6466,-1.6522,-1.6522,-1.6522,-1.671,-1.6795,-1.6795,-1.7463,-1.8027,-1.8419,-1.8893,-1.9332,-1.969,-1.969,-1.9566,-1.9406,-1.9406,-1.9281,-1.8979,-1.81,-1.7773,-1.7644,-1.6562,-1.6144,-1.6099,0.7177,0.7111,0.6915,0.6338,0.6461,0.64,0.5657,0.5133,0.4863,0.4711,0.4558,0.4294,0.3732,0.3735,0.3456,0.2621,0.212,0.1675,0.1452,0.0727,0.0224,0.0,0.0,0.0,0.0,0.0,0.0,0.0,-0.0504,-0.0727,-0.0783,-0.1284,-0.1619,-0.1842,-0.1842,-0.2009,-0.2174,-0.2174,-0.2174,-0.2174,-0.2174,-0.2174,-0.2174,-0.2174,-0.2508,-0.2954,-0.2954,-0.3287,-0.379,-0.379,-0.3959,-0.4125,-0.4125,-0.4294,-0.4519,-0.4519,-0.4519,-0.4519,-0.4519,-0.5714,-0.7069,-0.7289,-0.7883,-0.8533,-0.8752,-0.8804,-0.8804,-0.8804,-0.8804,-0.8804,-0.8804,-0.8804,-0.8804,-0.8804,-0.8804,-0.9061,-0.9718,-1.0364,-1.1065,-1.1715,-1.2452,-1.2881,-1.2881,-1.2881,-1.3065,-1.3505,-1.3505,-1.3873,-1.4663,-1.5466,-1.6051,-1.6479,-1.6522,-1.6522,-1.6522,-1.6522,-1.6522,-1.6522,-1.7435,-1.7947,-1.8145,-1.9043,-1.953,-1.969,-1.969,-1.969,-1.969,-1.969,-1.969,-1.9555,-1.8238,-1.7697,-1.7533,-1.6278,-1.5799,-1.5799,0.8156,0.8027,0.8027,0.8027,0.7307,0.6655,0.6409,0.5562,0.4863,0.4707,0.4558,0.4519,0.4519,0.4519,0.4184,0.3456,0.3345,0.301,0.2232,0.1507,0.0783,0.0056,0.0,0.0,0.0,0.0,0.0,0.0,0.0,0.0,0.0,0.0,-0.0392,-0.1118,-0.1118,-0.1507,-0.2174,-0.2174,-0.2174,-0.2174,-0.2174,-0.2174,-0.2174,-0.2174,-0.2174,-0.2174,-0.2174,-0.2174,-0.2174,-0.2174,-0.2732,-0.34,-0.3287,-0.3846,-0.4519,-0.4519,-0.4519,-0.4519,-0.4519,-0.5003,-0.5651,-0.6421,-0.7128,-0.7883,-0.8593,-0.8804,-0.8804,-0.8804,-0.8804,-0.8804,-0.8804,-0.8804,-0.8804,-0.8804,-0.8804,-0.9061,-0.9718,-1.0364,-1.1065,-1.1715,-1.2452,-1.2881,-1.2881,-1.2881,-1.2881,-1.2881,-1.2881,-1.343,-1.4663,-1.5832,-1.6522,-1.6522,-1.6522,-1.6522,-1.6522,-1.6522,-1.6522,-1.6522,-1.7034,-1.7585,-1.8106,-1.865,-1.9207,-1.969,-1.969,-1.969,-1.969,-1.969,-1.969,-1.9555,-1.8238,-1.7697,-1.7533,-1.6293,-1.5814,-1.5814,0.8947,0.8941,0.8742,0.8091,0.808,0.7768,0.6459,0.5854,0.5277,0.4661,0.4546,0.4519,0.4519,0.4519,0.4405,0.4184,0.368,0.301,0.2232,0.2009,0.1563,0.0783,0.028,0.0,0.0,0.0,0.0,0.0,0.0,0.0,0.0,0.0,-0.0112,-0.0336,-0.0336,-0.0448,-0.0671,-0.0671,-0.0671,-0.0671,-0.0671,-0.0671,-0.0671,-0.0671,-0.095,-0.1452,-0.1452,-0.1786,-0.2174,-0.2174,-0.2343,-0.2565,-0.251,-0.3065,-0.3735,-0.3735,-0.407,-0.4519,-0.4519,-0.4625,-0.4952,-0.5655,-0.6362,-0.6966,-0.7182,-0.767,-0.8049,-0.8049,-0.8427,-0.8804,-0.8804,-0.8804,-0.8804,-0.8804,-0.8804,-0.9061,-0.9718,-1.0364,-1.1065,-1.1715,-1.2452,-1.2881,-1.2881,-1.2881,-1.2881,-1.2881,-1.3286,-1.3873,-1.4663,-1.5466,-1.6051,-1.6479,-1.6522,-1.6522,-1.6522,-1.6522,-1.6522,-1.6522,-1.7034,-1.7394,-1.7585,-1.8496,-1.9006,-1.9169,-1.953,-1.969,-1.969,-1.969,-1.969,-1.96,-1.8747,-1.8403,-1.8253,-1.6906,-1.6428,-1.6353,0.9786,0.9786,0.9652,0.9128,0.8995,0.8466,0.6926,0.6302,0.5616,0.4653,0.4519,0.4519,0.4519,0.4519,0.4519,0.4519,0.407,0.3511,0.2676,0.2621,0.2286,0.1563,0.1118,0.0616,0.0,0.0,0.0,0.0,0.0,0.0,0.0,0.0,0.0,0.0,0.0,0.0,0.0,0.0,0.0,0.0,0.0,0.0,0.0,0.0,-0.028,-0.0671,-0.0671,-0.095,-0.134,-0.134,-0.1507,-0.184,-0.212,-0.251,-0.2899,-0.2899,-0.3456,-0.4015,-0.4015,-0.4239,-0.457,-0.5003,-0.5655,-0.6258,-0.6534,-0.7182,-0.7723,-0.7723,-0.8262,-0.8804,-0.8804,-0.8804,-0.8844,-0.8958,-0.8884,-0.8996,-0.9479,-1.0304,-1.0965,-1.1366,-1.2295,-1.2881,-1.2881,-1.2881,-1.2881,-1.2881,-1.3467,-1.3956,-1.4329,-1.4915,-1.5511,-1.6139,-1.6139,-1.6238,-1.6522,-1.6522,-1.6522,-1.6522,-1.7034,-1.7312,-1.7353,-1.8185,-1.8574,-1.8612,-1.893,-1.9207,-1.9369,-1.9369,-1.953,-1.9615,-1.8957,-1.8702,-1.8553,-1.7189,-1.6712,-1.6622,1.0624,1.0624,1.0624,1.0624,0.9894,0.8948,0.7816,0.6878,0.5898,0.4793,0.4581,0.4519,0.4519,0.4519,0.4519,0.4519,0.4519,0.4184,0.3456,0.34,0.3065,0.2343,0.2286,0.1619,0.0224,0.0112,0.0112,0.0224,0.0056,0.0056,0.0112,0.0056,0.0,0.0,0.0,0.0,0.0,0.0,0.0,0.0,0.0,0.0,0.0,0.0,0.0,0.0,0.0,0.0,0.0,0.0,-0.0448,-0.1118,-0.1786,-0.2063,-0.212,-0.212,-0.2676,-0.3287,-0.3287,-0.3901,-0.4519,-0.4519,-0.4948,-0.5597,-0.6258,-0.702,-0.7616,-0.7616,-0.8281,-0.8844,-0.8844,-0.8844,-0.8931,-0.9143,-0.8998,-0.8898,-0.9213,-1.0098,-1.0762,-1.0864,-1.1999,-1.2842,-1.293,-1.2939,-1.2939,-1.2939,-1.3488,-1.3815,-1.3815,-1.4422,-1.5005,-1.5588,-1.5632,-1.5952,-1.6466,-1.6522,-1.6522,-1.6522,-1.6993,-1.7229,-1.7229,-1.7827,-1.8106,-1.8106,-1.8224,-1.8535,-1.8968,-1.8968,-1.9214,-1.954,-1.9001,-1.8717,-1.8463,-1.7234,-1.6756,-1.6622,1.0624,1.0624,1.0624,1.0624,1.0243,0.9672,0.8804,0.7683,0.6611,0.5787,0.4983,0.4519,0.4519,0.4519,0.4519,0.4519,0.4519,0.4408,0.4239,0.4236,0.3901,0.3121,0.3121,0.2676,0.173,0.1174,0.1118,0.173,0.056,0.028,0.0838,0.028,0.0,0.0,0.0,0.0,0.0,0.0,0.0,0.0,0.0,0.0,0.0,0.0,0.0,0.0,0.0,0.0,0.0,0.0,-0.0112,-0.028,-0.0448,-0.0895,-0.134,-0.134,-0.2286,-0.3345,-0.3289,-0.3901,-0.4519,-0.4519,-0.4625,-0.4736,-0.4901,-0.5932,-0.6858,-0.6858,-0.8045,-0.909,-0.909,-0.909,-0.911,-0.9176,-0.8998,-0.8983,-0.9604,-0.9859,-1.0415,-1.1466,-1.1873,-1.2417,-1.3289,-1.3369,-1.3369,-1.3369,-1.3662,-1.3815,-1.3815,-1.4824,-1.5454,-1.5588,-1.6051,-1.638,-1.6522,-1.6522,-1.6522,-1.6522,-1.6637,-1.668,-1.671,-1.7666,-1.8106,-1.8145,-1.9006,-1.9406,-1.953,-1.953,-1.9304,-1.8957,-1.9331,-1.8837,-1.7876,-1.7578,-1.716,-1.6622,1.0651,1.0675,1.0722,1.0651,1.0434,1.0027,0.9138,0.8303,0.7381,0.6182,0.5386,0.4838,0.4519,0.4519,0.4519,0.4519,0.4519,0.4519,0.4519,0.4519,0.4294,0.3901,0.3901,0.3735,0.3287,0.2565,0.2174,0.2174,0.1452,0.1229,0.1619,0.1229,0.1062,0.1062,0.1062,0.1062,0.1006,0.0671,0.0504,0.0504,0.0168,0.0,0.0,0.0,0.0,0.0,0.0,0.0,0.0,0.0,0.0,0.0,0.0,-0.028,-0.056,-0.056,-0.1397,-0.2399,-0.2676,-0.3345,-0.4015,-0.4405,-0.4519,-0.4519,-0.4519,-0.5332,-0.6091,-0.6091,-0.7056,-0.8087,-0.8421,-0.8475,-0.8629,-0.9101,-0.8998,-0.8957,-0.9454,-0.9657,-1.0167,-1.1216,-1.1616,-1.2162,-1.3134,-1.3213,-1.3213,-1.3213,-1.332,-1.3372,-1.3372,-1.3967,-1.4457,-1.4721,-1.5332,-1.5788,-1.6051,-1.638,-1.6522,-1.6522,-1.6522,-1.6522,-1.6522,-1.7076,-1.7353,-1.7394,-1.7947,-1.8341,-1.8574,-1.8574,-1.8444,-1.8355,-1.8693,-1.8377,-1.7652,-1.7339,-1.6816,-1.6234,1.0672,1.0755,1.0842,1.0665,1.0624,1.0279,0.9408,0.8902,0.8106,0.6471,0.5871,0.5305,0.4574,0.4519,0.4519,0.4519,0.4519,0.4519,0.4519,0.4519,0.4519,0.4519,0.4519,0.4519,0.4519,0.3846,0.3231,0.2621,0.2343,0.2286,0.2397,0.2286,0.2174,0.2174,0.2174,0.2174,0.2174,0.1563,0.1284,0.1228,0.0612,0.0334,0.0391,0.0332,0.0277,0.0168,0.0167,0.0167,0.0168,0.0056,0.0168,0.0336,0.0056,0.0112,0.0168,0.0056,-0.0504,-0.1229,-0.1842,-0.2565,-0.3287,-0.4125,-0.4294,-0.4356,-0.4494,-0.5022,-0.5496,-0.5529,-0.617,-0.6918,-0.752,-0.7738,-0.8075,-0.8867,-0.889,-0.8891,-0.9077,-0.9418,-0.9865,-1.0568,-1.1377,-1.214,-1.2782,-1.2939,-1.2988,-1.2988,-1.292,-1.2881,-1.2881,-1.3017,-1.3286,-1.3768,-1.4376,-1.4926,-1.5454,-1.592,-1.6194,-1.6194,-1.6293,-1.638,-1.6522,-1.6595,-1.6637,-1.6637,-1.6837,-1.7146,-1.7572,-1.7558,-1.7671,-1.7869,-1.7869,-1.7661,-1.7294,-1.6741,-1.6234,-1.5799,1.0631,1.0658,1.0672,1.0631,1.0624,1.0548,1.0438,0.955,0.8546,0.7462,0.6481,0.5555,0.4584,0.4519,0.4519,0.4519,0.4519,0.4519,0.4519,0.4519,0.4519,0.4519,0.4519,0.4519,0.4519,0.4405,0.4294,0.4184,0.2843,0.2565,0.3231,0.2508,0.2174,0.2174,0.2174,0.2174,0.2174,0.212,0.2063,0.2058,0.1841,0.1797,0.1885,0.1621,0.1327,0.0947,0.0813,0.0874,0.0838,0.0224,0.0838,0.1675,0.0392,0.0448,0.0838,0.0168,-0.0504,-0.1118,-0.1229,-0.1786,-0.2565,-0.3345,-0.3511,-0.3652,-0.4515,-0.511,-0.5534,-0.5701,-0.6548,-0.7262,-0.7321,-0.7905,-0.8316,-0.8309,-0.8613,-0.8824,-0.8858,-0.8884,-0.9159,-0.9865,-1.1421,-1.2416,-1.2529,-1.3052,-1.3418,-1.3418,-1.3086,-1.2881,-1.2881,-1.3372,-1.3732,-1.3815,-1.4376,-1.4744,-1.4835,-1.488,-1.4926,-1.4926,-1.5454,-1.6008,-1.6522,-1.6993,-1.7188,-1.7229,-1.8185,-1.8612,-1.8684,-1.8571,-1.8195,-1.7718,-1.7718,-1.7039,-1.6053,-1.5963,-1.5873,-1.5799,1.0658,1.0688,1.0755,1.0651,1.0624,1.0624,1.0624,1.0053,0.9271,0.8227,0.7627,0.6824,0.5791,0.5664,0.5664,0.5664,0.5664,0.5496,0.5113,0.5054,0.4893,0.4519,0.4519,0.4519,0.4519,0.4519,0.4519,0.4519,0.379,0.3677,0.4015,0.3677,0.3511,0.3511,0.3511,0.3511,0.3456,0.3065,0.2843,0.2841,0.2307,0.2148,0.2168,0.2051,0.1903,0.1728,0.1648,0.1654,0.1675,0.134,0.1675,0.2063,0.1452,0.1174,0.1062,0.0727,0.0112,-0.056,-0.1006,-0.134,-0.1786,-0.2565,-0.301,-0.3413,-0.3863,-0.4501,-0.4997,-0.517,-0.5548,-0.5914,-0.626,-0.692,-0.7511,-0.7856,-0.8397,-0.8804,-0.8804,-0.8804,-0.9211,-1.021,-1.137,-1.2255,-1.2695,-1.3005,-1.3154,-1.3154,-1.2988,-1.2881,-1.2881,-1.3152,-1.3286,-1.3286,-1.3873,-1.419,-1.419,-1.4514,-1.4698,-1.4698,-1.4971,-1.541,-1.6008,-1.657,-1.6837,-1.6879,-1.7353,-1.7544,-1.7572,-1.7816,-1.7486,-1.6835,-1.7156,-1.6657,-1.5799,-1.5799,-1.5799,-1.5799]}]]